[[{"header":{"parameterUnit":"m.s-1","parameterCategory":1,"la1":31.0,"la2":29.5877,"lo1":-88.7671,"lo2":-86.6584,"dy":0.0162,"dx":0.0185,"nx":115,"ny":88,"refTime":"2024-07-12T12:00:00:Z","depth":0,"parameterNumber":2,"parameterNumberName":"U-component_of_WINDS"},"data":[0.0,0.0,0.0,0.0,0.0,0.0,0.0,0.0,0.0,0.0,0.0,0.0,0.0,0.0,0.0,0.0,0.0,0.0,0.0,0.0,0.0,0.0,0.0,0.0,0.0,0.0,0.0,0.0,0.0,0.0,0.0,0.0,0.0,0.0,0.0,0.0,0.0,0.0,0.0,0.0,0.0,0.0,0.0,0.0,0.0,0.0,0.0,0.0,0.0,0.0,0.0,0.0,0.0,0.0,0.0,0.0,0.0,0.0,0.0,0.0,0.0,0.0,0.0,0.0,0.0,0.0,0.0,0.0,0.0,0.0,0.0,0.0,0.0,0.0,0.0,0.0,0.0,0.0,0.0,0.0,0.0,0.0,0.0,0.0,0.0,0.0,0.0,0.0,0.0,0.0,0.0,0.0,0.0,0.0,0.0,0.0,0.0,0.0,0.0,0.0,0.0,0.0,0.0,0.0,0.0,0.0,0.0,0.0,0.0,0.0,0.0,0.0,0.0,0.0,0.0,0.0,0.0,0.0,0.0,0.0,0.0,0.0,0.0,0.0,0.0,0.0,0.0,0.0,0.0,0.0,0.0,0.0,0.0,0.0,0.0,0.0,0.0,0.0,0.0,0.0,0.0,0.0,0.0,0.0,0.0,0.0,0.0,0.0,0.0,0.0,0.0,0.0,0.0,0.0,0.0,0.0,0.0,0.0,0.0,0.0,0.0,0.0,0.0,0.0,0.0,0.0,0.0,0.0,0.0,0.0,0.0,0.0,0.0,0.0,0.0,0.0,0.0,0.0,0.0,0.0,0.0,0.0,0.0,0.0,0.0,0.0,0.0,0.0,0.0,0.0,0.0,0.0,0.0,0.0,0.0,0.0,0.0,0.0,0.0,0.0,0.0,0.0,0.0,0.0,0.0,0.0,0.0,0.0,0.0,0.0,0.0,0.0,0.0,0.0,0.0,0.0,0.0,0.0,0.0,0.0,0.0,0.0,0.0,0.0,0.0,0.0,0.0,0.0,0.0,0.0,0.0,0.0,0.0,0.0,0.0,0.0,0.0,0.0,0.0,0.0,0.0,0.0,0.0,0.0,0.0,0.0,0.0,0.0,0.0,0.0,0.0,0.0,0.0,0.0,0.0,0.0,0.0,0.0,0.0,0.0,0.0,0.0,0.0,0.0,0.0,0.0,0.0,0.0,0.0,0.0,0.0,0.0,0.0,0.0,0.0,0.0,0.0,0.0,0.0,0.0,0.0,0.0,0.0,0.0,0.0,0.0,0.0,0.0,0.0,0.0,0.0,0.0,0.0,0.0,0.0,0.0,0.0,0.0,0.0,0.0,0.0,0.0,0.0,0.0,0.0,0.0,0.0,0.0,0.0,0.0,0.0,0.0,0.0,0.0,0.0,0.0,0.0,0.0,0.0,0.0,0.0,0.0,0.0,0.0,0.0,0.0,0.0,0.0,0.0,0.0,0.0,0.0,0.0,0.0,0.0,0.0,0.0,0.0,0.0,0.0,0.0,0.0,0.0,0.0,0.0,0.0,0.0,0.0,0.0,0.0,0.0,0.0,0.0,0.0,0.0,0.0,0.0,0.0,0.0,0.0,0.0,0.0,0.0,0.0,0.0,0.0,0.0,0.0,0.0,0.0,0.0,0.0,0.0,0.0,0.0,0.0,0.0,0.0,0.0,0.0,0.0,0.0,0.0,0.0,0.0,0.0,0.0,0.0,0.0,0.0,0.0,0.0,0.0,0.0,0.0,0.0,0.0,0.0,0.0,0.0,0.0,0.0,0.0,0.0,0.0,0.0,0.0,0.0,0.0,0.0,0.0,0.0,0.0,0.0,0.0,0.0,0.0,0.0,0.0,0.0,0.0,0.0,0.0,0.0,0.0,0.0,0.0,0.0,0.0,0.0,0.0,0.0,0.0,0.0,0.0,0.0,0.0,0.0,0.0,0.0,0.0,0.0,0.0,0.0,0.0,0.0,0.0,0.0,0.0,0.0,0.0,0.0,0.0,0.0,0.0,0.0,0.0,0.0,0.0,0.0,0.0,0.0,0.0,0.0,0.0,0.0,0.0,0.0,0.0,0.0,0.0,0.0,0.0,0.0,0.0,0.0,0.0,0.0,0.0,0.0,0.0,0.0,0.0,0.0,0.0,0.0,0.0,0.0,0.0,0.0,0.0,0.0,0.0,0.0,0.0,0.0,0.0,0.0,0.0,0.0,0.0,0.0,0.0,0.0,0.0,0.0,0.0,0.0,0.0,0.0,0.0,0.0,0.0,0.0,0.0,0.0,0.0,0.0,0.0,0.0,0.0,0.0,0.0,0.0,0.0,0.0,0.0,0.0,0.0,0.0,0.0,0.0,0.0,0.0,0.0,0.0,0.0,0.0,0.0,0.0,0.0,0.0,0.0,0.0,0.0,0.0,0.0,0.0,0.0,0.0,0.0,0.0,0.0,0.0,0.0,0.0,0.0,0.0,0.0,0.0,0.0,0.0,0.0,0.0,0.0,0.0,0.0,0.0,0.0,0.0,0.0,0.0,0.0,0.0,0.0,0.0,0.0,0.0,0.0,0.0,0.0,0.0,0.0,0.0,0.0,0.0,0.0,0.0,0.0,0.0,0.0,0.0,0.0,0.0,0.0,0.0,0.0,0.0,0.0,0.0,0.0,0.0,0.0,0.0,0.0,0.0,0.0,0.0,0.0,0.0,0.0,0.0,0.0,0.0,0.0,0.0,0.0,0.0,0.0,0.0,0.0,0.0,0.0,0.0,0.0,0.0,0.0,0.0,0.0,0.0,0.0,0.0,0.0,0.0,0.0,0.0,0.0,0.0,0.0,0.0,0.0,0.0,0.0,0.0,0.0,0.0,0.0,0.0,0.0,0.0,0.0,0.0,0.0,0.0,0.0,0.0,0.0,0.0,0.0,0.0,0.0,0.0,0.0,0.0,0.0,0.0,0.0,0.0,0.0,0.0,0.0,0.0,0.0,0.0,0.0,0.0,0.0,0.0,0.0,0.0,0.0,0.0,0.0,0.0,0.0,0.0,0.0,0.0,0.0,0.0,0.0,0.0,0.0,0.0,0.0,0.0,0.0,0.0,0.0,0.0,0.0,0.0,0.0,0.0,0.0,0.0,0.0,0.0,0.0,0.0,0.0,0.0,0.0,0.0,0.0,0.0,0.0,0.0,0.0,0.0,0.0,0.0,0.0,0.0,0.0,0.0,0.0,0.0,0.0,0.0,0.0,0.0,0.0,0.0,0.0,0.0,0.0,0.0,0.0,0.0,0.0,0.0,0.0,0.0,0.0,0.0,0.0,0.0,0.0,0.0,0.0,0.0,0.0,0.0,0.0,0.0,0.0,0.0,0.0,0.0,0.0,0.0,0.0,0.0,0.0,0.0,0.0,0.0,0.0,0.0,0.0,0.0,0.0,0.0,0.0,0.0,0.0,0.0,0.0,0.0,0.0,0.0,0.0,0.0,0.0,0.0,0.0,0.0,0.0,0.0,0.0,0.0,0.0,0.0,0.0,0.0,0.0,0.0,0.0,0.0,0.0,0.0,0.0,0.0,0.0,0.0,0.0,0.0,0.0,0.0,0.0,0.0,0.0,0.0,0.0,0.0,0.0,0.0,0.0,0.0,0.0,0.0,0.0,0.0,0.0,0.0,0.0,0.0,0.0,0.0,0.0,0.0,0.0,0.0,0.0,0.0,0.0,0.0,0.0,0.0,0.0,0.0,0.0,0.0,0.0,0.0,0.0,0.0,0.0,0.0,0.0,0.0,0.0,0.0,0.0,0.0,0.0,0.0,0.0,0.0,0.0,0.0,0.0,0.0,0.0,0.0,0.0,0.0,0.0,0.0,0.0,0.0,0.0,0.0,0.0,0.0,0.0,0.0,0.0,0.0,0.0,0.0,0.0,0.0,0.0,0.0,0.0,0.0,0.0,0.0,0.0,0.0,0.0,0.0,0.0,0.0,0.0,0.0,0.0,0.0,0.0,0.0,0.0,0.0,0.0,0.0,0.0,0.0,0.0,0.0,0.0,0.0,0.0,0.0,0.0,0.0,0.0,0.0,0.0,0.0,0.0,0.0,0.0,0.0,0.0,0.0,0.0,0.0,0.0,0.0,0.0,0.0,0.0,0.0,0.0,0.0,0.0,0.0,0.0,0.0,0.0,0.0,0.0,0.0,0.0,0.0,0.0,0.0,0.0,0.0,0.0,0.0,0.0,0.0,0.0,0.0,0.0,0.0,0.0,0.0,0.0,0.0,0.0,0.0,0.0,0.0,-2.2575,0.0,0.0,0.0,0.0,0.0,0.0,0.0,0.0,0.0,0.0,0.0,0.0,0.0,0.0,0.0,0.0,0.0,0.0,0.0,0.0,0.0,0.0,0.0,0.0,0.0,0.0,0.0,0.0,0.0,0.0,0.0,0.0,0.0,0.0,0.0,0.0,0.0,0.0,0.0,0.0,0.0,0.0,0.0,0.0,0.0,0.0,0.0,0.0,0.0,0.0,0.0,0.0,0.0,0.0,0.0,0.0,0.0,0.0,0.0,0.0,0.0,0.0,0.0,0.0,0.0,0.0,0.0,0.0,0.0,0.0,0.0,0.0,0.0,0.0,0.0,0.0,0.0,0.0,0.0,0.0,0.0,0.0,0.0,0.0,0.0,0.0,0.0,0.0,0.0,0.0,0.0,0.0,0.0,0.0,0.0,0.0,0.0,0.0,0.0,0.0,0.0,0.0,0.0,0.0,0.0,0.0,0.0,0.0,0.0,0.0,-1.97,-2.2005,-2.2605,-2.3047,-2.3231,0.0,0.0,0.0,0.0,0.0,0.0,0.0,0.0,0.0,0.0,0.0,0.0,0.0,0.0,0.0,0.0,0.0,0.0,0.0,0.0,0.0,0.0,0.0,0.0,0.0,0.0,0.0,0.0,0.0,0.0,0.0,0.0,0.0,0.0,0.0,0.0,0.0,0.0,0.0,0.0,0.0,0.0,0.0,0.0,0.0,0.0,0.0,0.0,0.0,0.0,0.0,0.0,0.0,0.0,0.0,0.0,0.0,0.0,0.0,0.0,0.0,0.0,0.0,0.0,0.0,0.0,0.0,0.0,0.0,0.0,0.0,0.0,0.0,0.0,0.0,0.0,0.0,0.0,0.0,0.0,0.0,0.0,0.0,0.0,0.0,0.0,0.0,0.0,0.0,0.0,0.0,0.0,0.0,0.0,0.0,0.0,0.0,0.0,0.0,0.0,0.0,0.0,0.0,0.0,0.0,0.0,0.0,0.0,0.0,0.0,0.0,0.0,-2.4093,-2.3922,-2.3495,0.0,0.0,0.0,0.0,0.0,0.0,0.0,0.0,0.0,0.0,0.0,0.0,0.0,0.0,0.0,0.0,0.0,0.0,0.0,0.0,0.0,0.0,0.0,0.0,0.0,0.0,0.0,0.0,0.0,0.0,0.0,0.0,0.0,0.0,0.0,0.0,0.0,0.0,0.0,0.0,0.0,0.0,0.0,0.0,0.0,0.0,0.0,0.0,0.0,0.0,0.0,0.0,0.0,0.0,0.0,0.0,0.0,0.0,0.0,0.0,0.0,0.0,0.0,0.0,0.0,0.0,0.0,0.0,0.0,0.0,0.0,0.0,0.0,0.0,0.0,0.0,0.0,0.0,0.0,0.0,0.0,0.0,0.0,0.0,0.0,0.0,0.0,0.0,0.0,0.0,0.0,0.0,0.0,0.0,0.0,0.0,0.0,0.0,0.0,0.0,0.0,0.0,0.0,0.0,0.0,0.0,0.0,0.0,0.0,0.0,-2.2797,-2.4829,-2.5496,0.0,-2.2452,0.0,0.0,0.0,0.0,0.0,0.0,0.0,0.0,0.0,0.0,0.0,0.0,0.0,0.0,0.0,0.0,0.0,0.0,0.0,0.0,0.0,0.0,0.0,0.0,0.0,0.0,0.0,0.0,0.0,0.0,0.0,0.0,0.0,0.0,0.0,0.0,0.0,0.0,0.0,0.0,0.0,0.0,0.0,0.0,0.0,0.0,0.0,0.0,0.0,0.0,0.0,0.0,0.0,0.0,0.0,0.0,0.0,0.0,0.0,0.0,0.0,0.0,0.0,0.0,0.0,0.0,0.0,0.0,0.0,0.0,0.0,0.0,0.0,0.0,0.0,0.0,0.0,0.0,0.0,0.0,0.0,0.0,0.0,0.0,0.0,0.0,0.0,0.0,0.0,0.0,0.0,0.0,0.0,0.0,0.0,0.0,0.0,0.0,0.0,0.0,0.0,0.0,0.0,0.0,0.0,0.0,0.0,0.0,0.0,0.0,0.0,-2.6961,-2.5732,-2.431,0.0,0.0,0.0,0.0,0.0,0.0,0.0,0.0,0.0,0.0,0.0,0.0,0.0,0.0,0.0,0.0,0.0,0.0,0.0,0.0,0.0,0.0,0.0,0.0,0.0,0.0,0.0,0.0,0.0,0.0,0.0,0.0,0.0,0.0,0.0,0.0,0.0,0.0,0.0,0.0,0.0,0.0,0.0,0.0,0.0,0.0,0.0,0.0,0.0,0.0,0.0,0.0,0.0,0.0,0.0,0.0,0.0,0.0,0.0,0.0,0.0,0.0,0.0,0.0,0.0,0.0,0.0,0.0,0.0,0.0,0.0,0.0,0.0,0.0,0.0,0.0,0.0,0.0,0.0,0.0,0.0,0.0,0.0,0.0,0.0,0.0,0.0,0.0,0.0,0.0,0.0,0.0,0.0,0.0,0.0,0.0,0.0,0.0,0.0,0.0,0.0,0.0,0.0,0.0,0.0,0.0,0.0,0.0,0.0,0.0,-2.635,0.0,-2.8864,-2.6501,-2.4553,-2.3307,0.0,0.0,0.0,0.0,0.0,0.0,0.0,0.0,0.0,0.0,0.0,0.0,0.0,0.0,0.0,0.0,0.0,0.0,0.0,0.0,0.0,0.0,0.0,0.0,0.0,0.0,0.0,0.0,0.0,0.0,0.0,0.0,0.0,0.0,0.0,0.0,0.0,0.0,0.0,0.0,0.0,0.0,0.0,0.0,0.0,0.0,0.0,0.0,0.0,0.0,0.0,0.0,0.0,0.0,0.0,0.0,0.0,0.0,0.0,0.0,0.0,0.0,0.0,0.0,0.0,0.0,0.0,0.0,0.0,0.0,0.0,0.0,0.0,0.0,0.0,0.0,0.0,0.0,0.0,0.0,0.0,0.0,0.0,0.0,0.0,0.0,0.0,0.0,0.0,0.0,0.0,0.0,0.0,0.0,0.0,0.0,0.0,0.0,0.0,0.0,0.0,0.0,0.0,0.0,0.0,0.0,0.0,0.0,0.0,-2.787,-2.8858,-3.0611,-2.8322,-2.5941,0.0,0.0,0.0,0.0,0.0,0.0,0.0,0.0,0.0,0.0,0.0,0.0,0.0,0.0,0.0,0.0,0.0,0.0,0.0,0.0,0.0,0.0,0.0,0.0,0.0,0.0,0.0,0.0,0.0,0.0,0.0,0.0,0.0,0.0,0.0,0.0,0.0,0.0,0.0,0.0,0.0,0.0,0.0,0.0,0.0,0.0,0.0,0.0,0.0,0.0,0.0,0.0,0.0,0.0,0.0,0.0,0.0,0.0,0.0,0.0,0.0,0.0,0.0,0.0,0.0,0.0,0.0,0.0,0.0,0.0,0.0,0.0,0.0,0.0,0.0,0.0,0.0,0.0,0.0,0.0,0.0,0.0,0.0,0.0,0.0,0.0,0.0,0.0,0.0,0.0,0.0,0.0,0.0,0.0,0.0,0.0,0.0,0.0,0.0,0.0,0.0,0.0,0.0,0.0,0.0,0.0,0.0,0.0,0.0,-2.6363,-2.7882,-3.0137,-3.3037,-2.846,-2.5819,0.0,0.0,0.0,0.0,0.0,0.0,0.0,0.0,0.0,0.0,0.0,0.0,0.0,0.0,0.0,0.0,0.0,0.0,0.0,0.0,0.0,0.0,0.0,0.0,0.0,0.0,0.0,0.0,0.0,0.0,0.0,0.0,0.0,0.0,0.0,0.0,0.0,0.0,0.0,0.0,0.0,0.0,0.0,0.0,0.0,0.0,0.0,0.0,0.0,0.0,0.0,0.0,0.0,0.0,0.0,0.0,0.0,0.0,0.0,0.0,0.0,0.0,0.0,0.0,0.0,0.0,0.0,0.0,0.0,0.0,0.0,0.0,0.0,0.0,0.0,0.0,0.0,0.0,0.0,0.0,0.0,0.0,0.0,0.0,0.0,0.0,0.0,0.0,0.0,0.0,0.0,0.0,0.0,0.0,0.0,0.0,0.0,0.0,0.0,0.0,0.0,0.0,0.0,0.0,0.0,0.0,0.0,0.0,0.0,-2.7751,0.0,-3.2125,0.0,-2.9025,-2.6212,0.0,0.0,0.0,0.0,0.0,0.0,0.0,0.0,0.0,0.0,0.0,0.0,0.0,0.0,0.0,0.0,0.0,0.0,0.0,0.0,0.0,0.0,0.0,0.0,0.0,0.0,0.0,0.0,0.0,0.0,0.0,0.0,0.0,0.0,0.0,0.0,0.0,0.0,0.0,0.0,0.0,0.0,0.0,0.0,0.0,0.0,0.0,0.0,0.0,0.0,0.0,0.0,0.0,0.0,0.0,0.0,0.0,0.0,0.0,0.0,0.0,0.0,0.0,0.0,0.0,0.0,0.0,0.0,0.0,0.0,0.0,0.0,0.0,0.0,0.0,0.0,0.0,0.0,0.0,0.0,0.0,0.0,0.0,0.0,0.0,0.0,0.0,0.0,0.0,0.0,0.0,0.0,0.0,0.0,0.0,0.0,0.0,0.0,0.0,0.0,0.0,0.0,0.0,0.0,0.0,0.0,0.0,0.0,-2.6703,-3.2261,-3.4411,-3.4528,-3.282,-3.0162,-2.7247,0.0,0.0,0.0,0.0,0.0,0.0,0.0,0.0,0.0,0.0,0.0,0.0,0.0,0.0,0.0,0.0,0.0,0.0,0.0,0.0,0.0,0.0,0.0,0.0,0.0,0.0,0.0,0.0,0.0,0.0,0.0,0.0,0.0,0.0,0.0,0.0,0.0,0.0,0.0,0.0,0.0,0.0,0.0,0.0,0.0,0.0,0.0,0.0,0.0,0.0,0.0,0.0,0.0,0.0,0.0,0.0,0.0,0.0,0.0,0.0,0.0,0.0,0.0,0.0,0.0,0.0,0.0,0.0,0.0,0.0,0.0,0.0,0.0,0.0,0.0,0.0,0.0,0.0,0.0,0.0,0.0,0.0,0.0,0.0,0.0,0.0,0.0,0.0,0.0,0.0,0.0,0.0,0.0,0.0,0.0,0.0,0.0,0.0,0.0,0.0,0.0,0.0,0.0,0.0,0.0,0.0,0.0,0.0,0.0,-3.1689,-3.272,-3.3942,-3.5208,-3.1036,-2.842,0.0,0.0,0.0,0.0,0.0,0.0,0.0,0.0,0.0,0.0,0.0,0.0,0.0,0.0,0.0,0.0,0.0,0.0,0.0,0.0,0.0,0.0,0.0,0.0,0.0,0.0,0.0,0.0,0.0,0.0,0.0,0.0,0.0,0.0,0.0,0.0,0.0,0.0,0.0,0.0,0.0,0.0,0.0,0.0,0.0,0.0,0.0,0.0,0.0,0.0,0.0,0.0,0.0,0.0,0.0,0.0,0.0,0.0,0.0,0.0,0.0,0.0,0.0,0.0,0.0,0.0,0.0,0.0,0.0,0.0,0.0,0.0,0.0,0.0,0.0,0.0,0.0,0.0,0.0,0.0,0.0,0.0,0.0,0.0,0.0,0.0,0.0,0.0,0.0,0.0,0.0,0.0,0.0,0.0,0.0,0.0,0.0,0.0,0.0,0.0,0.0,0.0,0.0,0.0,0.0,0.0,0.0,0.0,0.0,-3.322,-3.4108,-3.5115,-3.6302,-3.2755,-3.0198,-2.8818,0.0,0.0,0.0,0.0,0.0,0.0,0.0,0.0,0.0,0.0,0.0,0.0,0.0,0.0,0.0,0.0,0.0,0.0,0.0,0.0,0.0,0.0,0.0,0.0,0.0,0.0,0.0,0.0,0.0,0.0,0.0,0.0,0.0,0.0,0.0,0.0,0.0,0.0,0.0,0.0,0.0,0.0,0.0,0.0,0.0,0.0,0.0,0.0,0.0,0.0,0.0,0.0,0.0,0.0,0.0,0.0,0.0,0.0,0.0,0.0,0.0,0.0,0.0,0.0,0.0,0.0,0.0,0.0,0.0,0.0,0.0,0.0,0.0,0.0,0.0,0.0,0.0,0.0,0.0,0.0,0.0,0.0,0.0,0.0,0.0,0.0,0.0,0.0,0.0,0.0,0.0,0.0,0.0,0.0,0.0,0.0,0.0,0.0,0.0,0.0,0.0,0.0,0.0,0.0,0.0,0.0,0.0,0.0,-3.6395,-3.7991,-3.7911,-3.6136,-3.5108,-3.2493,0.0,0.0,0.0,0.0,0.0,0.0,0.0,0.0,0.0,0.0,0.0,0.0,0.0,0.0,0.0,0.0,0.0,0.0,0.0,0.0,0.0,0.0,0.0,0.0,0.0,0.0,0.0,0.0,0.0,0.0,0.0,0.0,0.0,0.0,0.0,0.0,0.0,0.0,0.0,0.0,0.0,0.0,0.0,0.0,0.0,0.0,0.0,0.0,0.0,0.0,0.0,0.0,0.0,0.0,0.0,0.0,0.0,0.0,0.0,0.0,0.0,0.0,0.0,0.0,0.0,0.0,0.0,0.0,0.0,0.0,0.0,0.0,0.0,0.0,0.0,0.0,0.0,0.0,0.0,0.0,0.0,0.0,0.0,0.0,0.0,0.0,0.0,0.0,0.0,0.0,0.0,0.0,0.0,0.0,0.0,0.0,0.0,0.0,0.0,0.0,0.0,0.0,0.0,0.0,0.0,0.0,0.0,0.0,0.0,-3.801,-3.9643,-4.0203,-3.9644,-3.6903,-3.4132,0.0,0.0,0.0,0.0,0.0,0.0,0.0,0.0,0.0,0.0,0.0,0.0,0.0,0.0,0.0,0.0,0.0,0.0,0.0,0.0,0.0,0.0,0.0,0.0,0.0,0.0,0.0,0.0,0.0,0.0,0.0,0.0,0.0,0.0,0.0,0.0,0.0,0.0,0.0,0.0,0.0,0.0,0.0,0.0,0.0,0.0,0.0,0.0,0.0,0.0,0.0,0.0,0.0,0.0,0.0,0.0,0.0,0.0,0.0,0.0,0.0,0.0,0.0,0.0,0.0,0.0,0.0,0.0,0.0,0.0,0.0,0.0,0.0,0.0,0.0,0.0,0.0,0.0,0.0,0.0,0.0,0.0,0.0,0.0,0.0,0.0,0.0,0.0,0.0,0.0,0.0,0.0,0.0,0.0,0.0,0.0,0.0,0.0,0.0,0.0,0.0,0.0,0.0,0.0,0.0,0.0,0.0,0.0,-3.6857,-3.9166,-4.1111,-4.2121,-4.2103,-3.9118,-3.5965,0.0,0.0,0.0,0.0,0.0,0.0,0.0,0.0,0.0,0.0,0.0,0.0,0.0,0.0,0.0,0.0,0.0,0.0,0.0,0.0,0.0,0.0,0.0,0.0,0.0,0.0,0.0,0.0,0.0,0.0,0.0,0.0,0.0,0.0,0.0,0.0,0.0,0.0,0.0,0.0,0.0,0.0,0.0,0.0,0.0,0.0,0.0,0.0,0.0,0.0,0.0,0.0,0.0,0.0,0.0,0.0,0.0,0.0,0.0,0.0,0.0,0.0,0.0,0.0,0.0,0.0,0.0,0.0,0.0,0.0,0.0,0.0,0.0,0.0,0.0,0.0,0.0,0.0,0.0,0.0,0.0,0.0,0.0,0.0,0.0,0.0,0.0,0.0,0.0,0.0,0.0,0.0,0.0,0.0,0.0,0.0,0.0,0.0,0.0,0.0,0.0,0.0,0.0,0.0,0.0,0.0,0.0,0.0,-3.7925,-3.9992,-4.2286,-4.3479,-4.3406,-4.1148,-3.7699,0.0,0.0,0.0,0.0,0.0,0.0,0.0,0.0,0.0,0.0,0.0,0.0,0.0,0.0,0.0,0.0,0.0,0.0,0.0,0.0,0.0,0.0,0.0,0.0,0.0,0.0,0.0,0.0,0.0,0.0,0.0,0.0,0.0,0.0,0.0,0.0,0.0,0.0,0.0,0.0,0.0,0.0,0.0,0.0,0.0,0.0,0.0,0.0,0.0,0.0,0.0,0.0,0.0,0.0,0.0,0.0,0.0,0.0,0.0,0.0,0.0,0.0,0.0,0.0,0.0,0.0,0.0,0.0,0.0,0.0,0.0,0.0,0.0,0.0,0.0,0.0,0.0,0.0,0.0,0.0,0.0,0.0,0.0,0.0,0.0,0.0,0.0,0.0,0.0,0.0,0.0,0.0,0.0,0.0,0.0,0.0,0.0,0.0,0.0,0.0,0.0,0.0,0.0,0.0,0.0,0.0,0.0,0.0,-3.8743,-4.0785,-4.258,-4.3479,-4.3479,-4.1148,-3.8241,0.0,0.0,0.0,0.0,0.0,0.0,0.0,0.0,0.0,0.0,0.0,0.0,0.0,0.0,0.0,0.0,0.0,0.0,0.0,0.0,0.0,0.0,0.0,0.0,0.0,0.0,0.0,0.0,0.0,0.0,0.0,0.0,0.0,0.0,0.0,0.0,0.0,0.0,0.0,0.0,0.0,0.0,0.0,0.0,0.0,0.0,0.0,0.0,-2.8856,0.0,0.0,0.0,0.0,0.0,0.0,0.0,0.0,0.0,0.0,0.0,0.0,0.0,0.0,0.0,0.0,0.0,0.0,0.0,0.0,0.0,0.0,0.0,0.0,0.0,0.0,0.0,0.0,0.0,0.0,0.0,0.0,0.0,0.0,0.0,0.0,0.0,0.0,0.0,0.0,0.0,0.0,0.0,0.0,0.0,0.0,0.0,0.0,0.0,0.0,0.0,0.0,0.0,0.0,0.0,0.0,0.0,0.0,0.0,-3.9577,-4.1592,-4.2855,-4.3479,-4.3424,-4.1624,-3.888,0.0,0.0,0.0,0.0,0.0,0.0,0.0,0.0,0.0,0.0,0.0,0.0,0.0,0.0,0.0,0.0,0.0,0.0,0.0,0.0,0.0,0.0,0.0,0.0,0.0,0.0,0.0,0.0,0.0,0.0,0.0,0.0,0.0,0.0,0.0,0.0,0.0,0.0,0.0,0.0,0.0,0.0,0.0,0.0,0.0,0.0,0.0,0.0,0.0,0.0,0.0,0.0,0.0,0.0,0.0,0.0,0.0,0.0,0.0,0.0,0.0,0.0,0.0,0.0,0.0,0.0,0.0,0.0,0.0,0.0,0.0,0.0,0.0,0.0,0.0,0.0,0.0,0.0,0.0,0.0,0.0,0.0,0.0,0.0,0.0,0.0,0.0,0.0,0.0,0.0,0.0,0.0,0.0,0.0,0.0,0.0,0.0,0.0,0.0,0.0,0.0,0.0,0.0,0.0,0.0,0.0,0.0,-3.7286,-4.0031,-4.2362,-4.313,-4.3444,-4.3356,-4.2013,-3.9281,-3.5171,0.0,0.0,0.0,0.0,0.0,0.0,0.0,0.0,0.0,0.0,0.0,0.0,0.0,0.0,0.0,0.0,0.0,0.0,0.0,0.0,0.0,0.0,0.0,0.0,0.0,0.0,0.0,0.0,0.0,0.0,0.0,0.0,0.0,0.0,0.0,0.0,0.0,0.0,-2.4511,-2.9435,0.0,0.0,0.0,0.0,0.0,0.0,0.0,0.0,-3.1789,0.0,0.0,0.0,0.0,0.0,0.0,0.0,0.0,0.0,0.0,0.0,0.0,0.0,0.0,0.0,0.0,0.0,0.0,0.0,0.0,0.0,0.0,0.0,0.0,0.0,0.0,0.0,0.0,0.0,0.0,0.0,0.0,0.0,0.0,0.0,0.0,0.0,0.0,0.0,0.0,0.0,0.0,0.0,0.0,0.0,0.0,0.0,0.0,0.0,0.0,0.0,0.0,0.0,0.0,0.0,0.0,-3.5797,-3.6738,-3.9161,-4.3185,-4.3424,-4.3286,-4.279,-4.1515,-3.8819,-3.4681,0.0,0.0,0.0,0.0,0.0,0.0,0.0,0.0,0.0,0.0,0.0,0.0,0.0,0.0,0.0,0.0,0.0,0.0,0.0,0.0,0.0,0.0,0.0,0.0,0.0,0.0,0.0,0.0,0.0,0.0,0.0,0.0,0.0,0.0,0.0,0.0,0.0,0.0,0.0,-3.3084,-3.6077,0.0,0.0,0.0,0.0,0.0,0.0,0.0,0.0,-3.237,0.0,0.0,0.0,0.0,0.0,0.0,0.0,0.0,0.0,0.0,0.0,0.0,0.0,0.0,0.0,0.0,0.0,0.0,0.0,0.0,0.0,0.0,0.0,0.0,0.0,0.0,0.0,0.0,0.0,0.0,0.0,0.0,0.0,0.0,0.0,0.0,0.0,0.0,0.0,0.0,0.0,0.0,0.0,0.0,0.0,0.0,0.0,0.0,0.0,0.0,0.0,0.0,0.0,0.0,0.0,-3.5506,-3.829,-4.0909,-4.3387,-4.3214,-4.2976,-4.2675,-4.0352,-3.7551,0.0,0.0,0.0,0.0,0.0,0.0,0.0,0.0,0.0,0.0,0.0,0.0,0.0,0.0,0.0,0.0,0.0,0.0,0.0,0.0,0.0,0.0,0.0,0.0,0.0,0.0,0.0,0.0,0.0,0.0,0.0,0.0,0.0,0.0,0.0,0.0,0.0,0.0,0.0,0.0,-3.4677,-3.7284,-3.8743,0.0,0.0,0.0,0.0,0.0,0.0,-3.4168,-3.225,0.0,0.0,0.0,0.0,0.0,0.0,0.0,0.0,0.0,0.0,0.0,0.0,0.0,0.0,0.0,0.0,0.0,0.0,0.0,0.0,0.0,0.0,0.0,0.0,0.0,0.0,0.0,0.0,0.0,0.0,0.0,0.0,0.0,0.0,0.0,0.0,0.0,0.0,0.0,0.0,0.0,0.0,0.0,0.0,0.0,0.0,0.0,0.0,0.0,0.0,0.0,0.0,0.0,0.0,0.0,-3.4865,-3.9283,-4.2087,-4.301,-4.2848,-4.2577,-4.2306,-3.9276,-3.6509,0.0,0.0,0.0,0.0,0.0,0.0,0.0,0.0,0.0,0.0,0.0,0.0,0.0,0.0,0.0,0.0,0.0,0.0,0.0,0.0,0.0,0.0,0.0,0.0,0.0,0.0,0.0,0.0,0.0,0.0,0.0,0.0,0.0,0.0,0.0,0.0,0.0,0.0,0.0,0.0,0.0,-3.8564,-4.1728,-4.0753,0.0,0.0,0.0,0.0,-3.7488,-3.4574,0.0,0.0,0.0,0.0,0.0,0.0,0.0,0.0,0.0,0.0,0.0,0.0,0.0,0.0,0.0,0.0,0.0,0.0,0.0,0.0,0.0,0.0,0.0,0.0,0.0,0.0,0.0,0.0,0.0,0.0,0.0,0.0,0.0,0.0,0.0,0.0,0.0,0.0,0.0,0.0,0.0,0.0,0.0,0.0,0.0,0.0,0.0,0.0,0.0,0.0,0.0,0.0,0.0,0.0,0.0,0.0,-3.3975,-3.7389,-3.9944,-4.1596,-4.2352,-4.2221,-4.1098,-3.8834,-3.6318,0.0,0.0,0.0,0.0,0.0,0.0,0.0,0.0,0.0,0.0,0.0,0.0,0.0,0.0,0.0,0.0,0.0,0.0,0.0,0.0,0.0,0.0,0.0,0.0,0.0,0.0,0.0,0.0,0.0,0.0,0.0,0.0,0.0,0.0,0.0,0.0,0.0,0.0,0.0,0.0,0.0,-4.0797,-4.4521,-4.2015,-3.9513,0.0,0.0,-3.7343,-3.7514,-3.6305,0.0,0.0,0.0,0.0,0.0,0.0,0.0,0.0,0.0,0.0,0.0,0.0,0.0,0.0,0.0,0.0,0.0,0.0,0.0,0.0,0.0,0.0,0.0,0.0,0.0,0.0,0.0,0.0,0.0,0.0,0.0,0.0,0.0,0.0,0.0,0.0,0.0,0.0,0.0,0.0,0.0,0.0,0.0,0.0,0.0,0.0,0.0,0.0,0.0,0.0,0.0,0.0,0.0,0.0,0.0,-3.1173,-3.3904,-3.7672,-4.0182,-4.1339,-4.1184,-4.0797,-4.0245,-3.7403,-3.4874,0.0,0.0,0.0,0.0,0.0,0.0,0.0,0.0,0.0,0.0,0.0,0.0,0.0,0.0,0.0,0.0,0.0,0.0,0.0,0.0,0.0,0.0,0.0,0.0,0.0,0.0,0.0,0.0,0.0,0.0,0.0,0.0,0.0,0.0,0.0,0.0,0.0,0.0,0.0,0.0,0.0,0.0,-4.3184,-4.1771,0.0,0.0,0.0,-3.7305,-3.6778,0.0,0.0,0.0,0.0,0.0,0.0,0.0,0.0,0.0,0.0,0.0,0.0,0.0,0.0,0.0,0.0,0.0,0.0,0.0,0.0,0.0,0.0,0.0,0.0,0.0,0.0,0.0,0.0,0.0,0.0,0.0,0.0,0.0,0.0,0.0,0.0,0.0,0.0,0.0,0.0,0.0,0.0,0.0,0.0,0.0,0.0,0.0,0.0,0.0,0.0,0.0,0.0,0.0,0.0,0.0,0.0,0.0,-3.3186,-3.7666,-4.0129,-4.0402,-3.9859,-3.9472,-3.9273,-3.6382,0.0,0.0,0.0,0.0,0.0,0.0,0.0,0.0,0.0,0.0,0.0,0.0,0.0,0.0,0.0,0.0,0.0,0.0,0.0,0.0,0.0,0.0,0.0,0.0,0.0,0.0,0.0,-1.9091,0.0,0.0,0.0,0.0,0.0,0.0,0.0,0.0,0.0,0.0,0.0,0.0,0.0,0.0,-4.01,-4.1503,-4.0946,-4.0541,0.0,0.0,-3.6863,-3.6319,-3.5291,-3.4134,0.0,0.0,0.0,0.0,0.0,0.0,0.0,0.0,0.0,0.0,0.0,0.0,0.0,0.0,0.0,0.0,0.0,0.0,0.0,0.0,0.0,0.0,0.0,0.0,0.0,0.0,0.0,0.0,0.0,0.0,0.0,0.0,0.0,0.0,0.0,0.0,0.0,0.0,0.0,0.0,0.0,0.0,0.0,0.0,0.0,0.0,0.0,0.0,0.0,0.0,0.0,0.0,0.0,0.0,0.0,-3.1166,-3.638,-3.8719,-3.7808,-3.8443,-3.855,-3.8034,-3.6383,-3.4201,0.0,0.0,0.0,0.0,0.0,0.0,0.0,0.0,0.0,0.0,0.0,0.0,0.0,0.0,0.0,0.0,0.0,0.0,0.0,0.0,0.0,0.0,0.0,0.0,0.0,0.0,0.0,0.0,0.0,0.0,0.0,0.0,0.0,0.0,0.0,0.0,0.0,0.0,0.0,0.0,0.0,-3.9358,-4.0624,-3.9693,-3.9058,0.0,0.0,-3.6201,-3.6678,-3.5531,-3.3953,-3.1739,0.0,0.0,0.0,0.0,0.0,0.0,0.0,0.0,0.0,0.0,0.0,0.0,0.0,0.0,0.0,0.0,0.0,0.0,0.0,0.0,0.0,0.0,0.0,0.0,0.0,0.0,0.0,0.0,0.0,0.0,0.0,0.0,0.0,0.0,0.0,0.0,0.0,0.0,0.0,0.0,0.0,0.0,0.0,0.0,0.0,0.0,0.0,0.0,0.0,0.0,0.0,0.0,0.0,-3.0497,-3.1498,-3.5407,-3.7434,-3.7482,-3.7504,-3.7439,-3.7212,-3.618,-3.4235,0.0,0.0,0.0,0.0,0.0,0.0,0.0,0.0,0.0,0.0,0.0,0.0,0.0,0.0,0.0,0.0,0.0,0.0,0.0,0.0,0.0,0.0,0.0,0.0,0.0,0.0,0.0,0.0,-2.4784,-2.5305,-2.5501,0.0,0.0,0.0,0.0,0.0,0.0,0.0,0.0,0.0,0.0,-3.9827,-4.0694,-3.9407,0.0,0.0,-3.6939,-3.5245,-3.447,-3.4258,-3.3595,-3.2014,-3.0637,0.0,0.0,0.0,0.0,0.0,0.0,0.0,0.0,0.0,0.0,0.0,0.0,0.0,0.0,0.0,0.0,0.0,0.0,0.0,0.0,0.0,0.0,0.0,0.0,0.0,0.0,0.0,0.0,0.0,0.0,0.0,0.0,0.0,0.0,0.0,0.0,0.0,0.0,0.0,0.0,0.0,0.0,0.0,0.0,0.0,0.0,0.0,0.0,0.0,0.0,0.0,0.0,-3.0456,-3.1386,-3.4673,-3.655,-3.6939,-3.6627,-3.6325,-3.6152,-3.5802,-3.4044,0.0,0.0,0.0,0.0,0.0,0.0,0.0,0.0,0.0,0.0,0.0,0.0,0.0,0.0,0.0,0.0,0.0,0.0,0.0,0.0,0.0,0.0,0.0,0.0,0.0,0.0,0.0,0.0,-2.6138,-2.6257,-2.5862,0.0,0.0,0.0,0.0,0.0,0.0,0.0,0.0,0.0,0.0,-3.9546,-3.9754,-3.85,-3.7379,-3.708,-3.5508,-3.3954,-3.3027,-3.3013,-3.2761,-3.1772,0.0,0.0,0.0,0.0,0.0,0.0,0.0,0.0,0.0,0.0,0.0,0.0,0.0,0.0,0.0,0.0,0.0,0.0,0.0,0.0,0.0,0.0,0.0,0.0,0.0,0.0,0.0,0.0,0.0,0.0,-2.317,0.0,0.0,0.0,0.0,0.0,0.0,0.0,0.0,0.0,0.0,0.0,0.0,0.0,0.0,0.0,0.0,0.0,0.0,0.0,0.0,0.0,0.0,-3.0558,-3.023,-3.4249,-3.6139,-3.5701,-3.5656,-3.5304,-3.4738,-3.5253,-3.3656,-2.9473,0.0,0.0,0.0,0.0,0.0,0.0,0.0,0.0,0.0,0.0,0.0,0.0,0.0,0.0,0.0,0.0,0.0,0.0,0.0,0.0,0.0,0.0,0.0,0.0,0.0,0.0,-2.6198,-2.6361,-2.603,0.0,0.0,0.0,0.0,0.0,0.0,0.0,0.0,0.0,0.0,-3.8169,-3.8207,-3.7376,-3.6593,-3.5726,-3.4859,-3.3238,-3.2302,-3.2856,-3.2102,-3.1223,0.0,0.0,0.0,0.0,0.0,0.0,0.0,0.0,0.0,0.0,0.0,0.0,0.0,0.0,0.0,0.0,0.0,0.0,0.0,0.0,0.0,0.0,0.0,0.0,0.0,0.0,0.0,-2.6654,-2.5568,0.0,0.0,0.0,0.0,0.0,0.0,0.0,0.0,0.0,0.0,0.0,-3.0627,-3.0552,0.0,0.0,0.0,0.0,0.0,0.0,0.0,0.0,0.0,0.0,0.0,0.0,-2.9989,-3.0886,-3.37,-3.5317,-3.5605,-3.5144,-3.483,-3.464,-3.4399,-3.2563,-2.8951,0.0,0.0,0.0,0.0,0.0,0.0,0.0,0.0,0.0,0.0,0.0,0.0,0.0,0.0,0.0,0.0,0.0,0.0,0.0,0.0,0.0,0.0,0.0,0.0,0.0,-2.6433,0.0,0.0,0.0,0.0,0.0,0.0,0.0,0.0,0.0,0.0,0.0,-3.695,-3.6676,-3.685,-3.6596,-3.564,-3.4627,-3.4036,0.0,0.0,0.0,0.0,0.0,0.0,0.0,0.0,0.0,0.0,0.0,0.0,0.0,0.0,-3.1601,-3.0405,-3.0719,-3.1034,-3.0854,0.0,0.0,0.0,0.0,0.0,0.0,0.0,0.0,0.0,0.0,0.0,0.0,0.0,0.0,-2.8132,0.0,-2.61,0.0,0.0,0.0,0.0,0.0,0.0,0.0,0.0,-3.1603,-3.2449,-3.2723,-3.2739,-3.2369,0.0,-3.0664,-2.9264,0.0,0.0,0.0,0.0,0.0,0.0,0.0,0.0,-2.9854,-3.0869,-3.3,-3.4385,-3.4834,-3.4419,-3.412,-3.3905,-3.2812,-3.1315,-2.9337,-2.7057,-2.4982,0.0,0.0,0.0,0.0,0.0,0.0,0.0,0.0,0.0,0.0,0.0,0.0,0.0,0.0,0.0,0.0,0.0,0.0,0.0,0.0,0.0,0.0,0.0,-2.721,0.0,0.0,0.0,0.0,0.0,0.0,0.0,0.0,0.0,-3.644,-3.6892,-3.7008,-3.652,-3.6148,-3.5497,-3.4176,0.0,0.0,0.0,0.0,0.0,0.0,0.0,-3.062,-3.0633,-3.0633,-3.0821,-3.1373,-3.1888,-3.2403,-3.298,0.0,0.0,-3.1645,-3.2018,-3.2535,-3.2471,-3.3144,-3.3635,-3.331,-3.3381,-3.3044,0.0,0.0,0.0,0.0,0.0,0.0,0.0,0.0,-2.9803,-2.9705,0.0,-2.7436,0.0,0.0,0.0,0.0,0.0,-3.0501,0.0,0.0,-3.4455,-3.5182,-3.4479,-3.3951,-3.3968,-3.4385,-3.2583,-3.1575,-3.1237,-2.9485,0.0,0.0,0.0,0.0,0.0,0.0,-3.0053,-3.0188,-3.2191,-3.3349,-3.3521,-3.3444,-3.3143,-3.2579,-3.0676,-2.9925,-3.0432,-2.7989,-2.6303,-2.5644,-2.4358,0.0,0.0,0.0,0.0,0.0,0.0,0.0,0.0,0.0,0.0,0.0,0.0,0.0,0.0,0.0,0.0,0.0,0.0,0.0,0.0,-2.779,0.0,0.0,0.0,0.0,0.0,0.0,0.0,0.0,0.0,0.0,-3.8147,-3.7033,-3.6365,-3.6924,0.0,0.0,0.0,0.0,-3.2163,-3.0173,-2.9854,-2.988,-2.9917,-3.0331,-3.0984,-3.1989,0.0,0.0,-3.2993,-3.2679,-3.2566,-3.3106,-3.3696,-3.3796,-3.3343,-3.3215,-3.3167,-3.3205,-3.3316,-3.3429,-3.4053,-3.3842,-3.3205,-3.2188,0.0,0.0,0.0,0.0,-2.9702,-3.0091,-3.0581,-3.0784,-3.048,-2.9719,-2.8755,0.0,0.0,0.0,0.0,0.0,0.0,-3.197,-3.3119,-3.4286,-3.4979,-3.5284,-3.5105,-3.4889,-3.4562,-3.4018,-3.3469,-3.2934,-3.2394,-3.0417,-2.7137,0.0,0.0,0.0,0.0,-2.9175,-3.022,-3.097,-3.1843,-3.2854,-3.2392,-3.2033,-3.1838,-3.0363,-2.9672,-2.9856,-2.8237,-2.6991,-2.6333,-2.5495,0.0,0.0,0.0,0.0,0.0,0.0,0.0,0.0,0.0,0.0,0.0,0.0,0.0,0.0,0.0,0.0,0.0,0.0,0.0,-2.7434,-2.7478,-2.7736,0.0,0.0,0.0,0.0,0.0,0.0,0.0,0.0,0.0,-3.7667,-3.6873,-3.5851,0.0,0.0,-3.1991,-3.0894,-3.1059,-3.1128,-3.0623,0.0,0.0,0.0,-3.1323,-3.126,-3.1574,-3.229,-3.3018,-3.3583,-3.4173,-3.4776,-3.5303,-3.5554,-3.5592,-3.5416,-3.4763,-3.4424,-3.4738,-3.4839,-3.5002,-3.56,-3.5558,-3.5228,-3.4167,-3.2831,-3.1529,-3.097,-3.1004,-3.1275,-3.1664,-3.2087,-3.2374,-3.2256,-3.1782,-3.0751,-2.9617,-2.845,-2.7858,0.0,0.0,0.0,-3.2882,-3.432,-3.4742,-3.5182,-3.5605,-3.5639,-3.5362,-3.4988,-3.4988,-3.4624,-3.3971,-3.3745,-3.2046,-2.9038,0.0,0.0,-2.7954,-2.8349,-2.8992,-2.9832,-3.0256,-3.0852,-3.1694,-3.1374,-3.1025,-3.0731,-2.9998,-2.946,-2.919,-2.821,-2.7515,-2.738,-2.6497,-2.563,0.0,0.0,0.0,0.0,0.0,0.0,0.0,0.0,0.0,0.0,0.0,-2.4741,-2.5107,0.0,0.0,0.0,-2.7796,-2.7715,-2.8435,-2.8642,0.0,0.0,0.0,0.0,0.0,0.0,0.0,-3.4685,-3.6572,-3.7734,-3.7451,-3.6716,-3.5897,-3.5079,-3.3397,-3.1744,-3.0417,0.0,-3.1273,-3.1348,-3.1373,-3.1499,-3.1825,-3.1788,-3.18,-3.2026,-3.2993,-3.3796,-3.4173,-3.4964,-3.5717,-3.6207,-3.637,-3.637,-3.637,-3.5805,-3.5454,-3.5793,-3.5868,-3.5994,-3.6307,-3.637,-3.6207,-3.5639,-3.5453,-3.3389,-3.251,-3.2527,-3.3203,-3.3491,-3.3558,-3.4269,-3.4539,-3.4387,-3.3,-3.1968,-3.119,-2.9854,0.0,-3.2476,-3.3068,-3.41,-3.552,-3.552,-3.5537,-3.5537,-3.5588,-3.5639,-3.5639,-3.5639,-3.5299,-3.4655,-3.4074,-3.3053,-3.1725,-3.0892,-3.0057,-2.9272,-2.914,-2.914,-2.9206,-2.9872,-3.0298,-3.0497,-3.054,-3.0298,-2.9699,-2.9609,-2.928,-2.8637,-2.7934,-2.7889,-2.8517,-2.7365,-2.6662,-2.6587,0.0,0.0,0.0,0.0,0.0,0.0,0.0,0.0,0.0,0.0,0.0,0.0,0.0,0.0,0.0,-2.9627,0.0,-3.0593,-3.0702,0.0,0.0,0.0,-3.2109,-3.2996,-3.4634,-3.5923,-3.6775,0.0,0.0,-3.7539,0.0,-3.6447,-3.7113,-3.5237,-3.3199,-3.1265,-3.1775,-3.2256,-3.2092,-3.1789,-3.1537,-3.17,-3.2014,-3.2441,-3.2905,-3.396,-3.4537,-3.4625,-3.514,-3.5705,-3.6169,-3.632,-3.637,-3.637,-3.632,-3.637,-3.6332,-3.6345,-3.6358,-3.637,-3.637,-3.6219,-3.5639,-3.5571,-3.5047,-3.4489,-3.3981,-3.415,-3.4235,-3.4303,-3.5047,-3.503,-3.4421,-3.3541,-3.273,-3.2043,-3.1687,-3.2449,-3.3931,-3.2966,-3.3355,-3.4726,-3.4759,-3.4759,-3.4793,-3.5351,-3.5639,-3.5639,-3.5639,-3.5515,-3.5345,-3.5194,-3.4393,-3.3004,-3.1753,-3.0553,-2.9296,-2.8662,-2.8622,-2.9206,-2.9475,-3.0177,-3.1295,-3.1283,-3.0986,-3.0298,-2.9834,-2.9265,-2.8622,-2.7934,-2.7889,-2.8532,-2.7799,-2.7335,-2.732,-2.533,0.0,0.0,0.0,0.0,0.0,0.0,0.0,0.0,0.0,-2.7238,-2.8153,0.0,-2.828,0.0,-3.0278,-3.1264,-3.1958,-3.2497,0.0,0.0,-3.4277,-3.4349,-3.5696,-3.6522,-3.703,-3.721,-3.7764,-3.8342,-3.8852,-3.8247,-3.8094,-3.8676,-3.6244,-3.3774,-3.2085,-3.2683,-3.3264,-3.2925,-3.2769,-3.2679,-3.2641,-3.278,-3.2905,-3.3056,-3.3646,-3.4085,-3.4098,-3.4901,-3.5579,-3.5755,-3.6094,-3.6332,-3.637,-3.637,-3.637,-3.637,-3.637,-3.637,-3.637,-3.6358,-3.632,-3.5639,-3.5639,-3.5639,-3.5182,-3.4506,-3.4844,-3.5013,-3.503,-3.5436,-3.5385,-3.4962,-3.4201,-3.366,-3.3271,-3.3271,-3.3525,-3.3981,-3.3846,-3.4032,-3.4489,-3.4489,-3.4675,-3.4979,-3.4742,-3.4793,-3.5098,-3.4793,-3.4641,-3.4641,-3.4624,-3.4218,-3.3406,-3.232,-3.1241,-3.0139,-2.8797,-2.831,-2.8728,-2.9456,-3.0224,-3.114,-3.142,-3.0794,-2.9319,-2.916,-2.8562,-2.7305,-2.6901,-2.7021,-2.7649,-2.7066,-2.6976,-2.7535,-2.5704,-2.4448,0.0,0.0,0.0,0.0,0.0,0.0,0.0,0.0,0.0,0.0,0.0,-2.923,-2.9999,-3.1739,-3.311,-3.3784,-3.4442,-3.5355,-3.6656,-3.6447,-3.6716,-3.7848,-3.8157,-3.8302,-3.8302,-3.8616,-3.9002,-3.9354,-3.8659,-3.8282,-3.8649,-3.6746,-3.4931,-3.4043,-3.371,-3.336,-3.3119,-3.3139,-3.3081,-3.3081,-3.3081,-3.3081,-3.3119,-3.3545,-3.3909,-3.3922,-3.46,-3.5253,-3.5504,-3.5687,-3.6056,-3.6295,-3.637,-3.637,-3.637,-3.637,-3.627,-3.6056,-3.6194,-3.6307,-3.5694,-3.5694,-3.5622,-3.525,-3.4675,-3.5351,-3.5504,-3.5334,-3.5334,-3.5334,-3.5301,-3.4844,-3.459,-3.4489,-3.4489,-3.4201,-3.3778,-3.4783,-3.4979,-3.4353,-3.4353,-3.4658,-3.5131,-3.3964,-3.3744,-3.432,-3.3711,-3.3389,-3.3389,-3.3389,-3.3322,-3.3102,-3.2476,-3.1772,-3.0886,-2.9126,-2.8279,-2.8378,-2.9617,-3.0441,-3.0817,-3.114,-3.0161,-2.7896,-2.8195,-2.7575,-2.5719,-2.56,-2.5914,-2.6527,-2.6048,-2.6288,-2.7505,-2.5944,-2.5211,0.0,-2.4702,0.0,0.0,0.0,0.0,0.0,0.0,0.0,0.0,-3.0228,-3.0582,-3.1809,-3.3709,-3.513,-3.5804,-3.6462,-3.73,-3.8377,-3.8512,-3.8766,-3.932,-3.9424,-3.9424,-3.9424,-3.9424,-3.9424,-3.9337,-3.8472,-3.7829,-3.7753,-3.6654,-3.5716,-3.5664,-3.438,-3.3348,-3.3154,-3.3006,-3.2893,-3.2918,-3.2943,-3.2905,-3.2918,-3.3368,-3.3671,-3.3495,-3.406,-3.465,-3.5064,-3.5174,-3.5437,-3.6056,-3.6119,-3.6132,-3.6069,-3.6056,-3.5994,-3.583,-3.6069,-3.6182,-3.6266,-3.6224,-3.5766,-3.5537,-3.5419,-3.5554,-3.4928,-3.3829,-3.3829,-3.3812,-3.3914,-3.4945,-3.5081,-3.4506,-3.4489,-3.4759,-3.5148,-3.4235,-3.3744,-3.3626,-3.3609,-3.3355,-3.2949,-3.3254,-3.3474,-3.3592,-3.3474,-3.3389,-3.3389,-3.3389,-3.2797,-3.1647,-3.1461,-3.0734,-2.9448,0.0,0.0,0.0,-3.0046,-3.0844,-3.1941,-3.0523,-2.9308,-2.8365,-2.7981,0.0,-2.5704,-2.56,-2.5899,-2.6542,-2.6467,0.0,0.0,0.0,0.0,0.0,0.0,0.0,0.0,0.0,0.0,0.0,-2.916,-2.9214,-2.9795,-3.1625,-3.308,-3.3888,-3.5699,-3.712,-3.7778,-3.8467,-3.896,-3.9185,-3.923,-3.9275,-3.9409,-3.9424,-3.9424,-3.9424,-3.9424,-3.9352,-3.9235,-3.8457,-3.7738,-3.7529,-3.616,-3.4847,-3.4286,-3.4252,-3.4011,-3.33,-3.2654,-3.239,-3.2378,-3.2378,-3.224,-3.1938,-3.2592,-3.2807,-3.2261,-3.2754,-3.3382,-3.3596,-3.4261,-3.4864,-3.5027,-3.5039,-3.5077,-3.5027,-3.5052,-3.5265,-3.6031,-3.627,-3.632,-3.6139,0.0,-3.5827,-3.5419,0.0,-3.5064,-3.4218,-3.2899,-3.3626,-3.3947,-3.4015,-3.5131,-3.5402,-3.503,-3.4658,-3.4506,-3.4489,-3.3744,-3.3203,-3.2865,-3.2848,-3.2848,-3.2814,-3.2476,-3.251,-3.2831,-3.2493,-3.2324,-3.2307,-3.2324,-3.1935,-3.119,-3.119,-3.0818,-3.0108,-3.0074,-3.026,-3.0649,-3.0654,-3.1248,-3.2295,-3.1402,-3.0228,-2.9013,0.0,0.0,0.0,0.0,0.0,0.0,0.0,0.0,0.0,0.0,0.0,-2.8068,-2.8382,-2.8562,-2.8547,-2.8831,-2.9594,-3.0926,-3.1629,-3.1869,-3.1539,-3.3649,-3.5235,-3.5893,-3.7135,-3.8167,-3.8826,-3.9215,-3.9424,-3.9424,-3.9424,-3.9424,-3.9352,-3.8943,-3.887,-3.9147,-3.8194,-3.7591,-3.815,-3.6528,-3.5523,-3.5355,-3.4113,-3.301,-3.2778,-3.307,-3.3129,-3.2374,-3.2026,-3.1813,-3.18,-3.18,-3.1863,-3.1825,-3.2079,-3.2117,-3.1825,-3.2039,-3.2328,-3.2629,-3.3357,-3.3972,-3.4274,-3.4093,-3.4028,-3.4272,-3.4537,-3.4738,-3.5152,-3.5366,-3.5454,-3.6207,-3.6498,-3.5968,-3.5254,-3.4489,-3.4489,-3.366,-3.2415,0.0,0.0,0.0,-3.5233,-3.5639,-3.5588,-3.4962,-3.4286,-3.3626,-3.3592,-3.3119,-3.2313,-3.2313,-3.2544,-3.2933,-3.1782,-3.1512,-3.2076,-3.1478,-3.119,-3.119,-3.119,-3.119,-3.119,-3.119,-3.119,-3.119,-3.119,-3.119,-3.119,-3.1055,-3.1372,-3.2128,-3.1957,-3.1006,-2.923,-2.8638,-2.7674,-2.6423,-2.6499,-2.6632,-2.6782,-2.741,-2.8068,-2.8727,-2.8876,-2.9175,-2.9699,-2.9849,-3.0133,-3.0642,-3.0687,-3.127,-3.2587,-3.3918,-3.4442,-3.3888,-3.5459,-3.6686,-3.7195,-3.7838,-3.8497,-3.917,-3.923,-3.923,-3.923,-3.9245,-3.9113,-3.8778,-3.8194,-3.7974,-3.8223,-3.6785,-3.5723,-3.641,-3.4561,-3.3013,-3.2883,-3.2272,-3.1348,-3.1361,-3.1807,-3.2009,-3.1574,-3.1386,-3.126,-3.1273,-3.1386,-3.1524,-3.1738,-3.1682,-3.1669,-3.175,-3.1562,-3.1486,-3.1813,-3.2416,-3.3054,-3.347,-3.3408,-3.3266,-3.3671,-3.4098,-3.4299,-3.3922,-3.411,-3.4361,-3.7396,-3.7038,-3.6481,-3.5583,-3.4489,-3.4489,-3.3643,-3.2374,-3.3186,-3.3558,-3.366,-3.503,-3.5639,-3.5605,-3.5504,-3.5047,-3.4353,-3.4336,-3.3592,0.0,-3.2313,-3.2002,-3.1512,-3.1292,-3.1241,-3.1326,-3.1241,-3.119,-3.119,-3.119,-3.119,-3.119,-3.119,-3.119,-3.119,-3.119,-3.119,-3.1173,-3.0581,-3.0627,-3.1341,-3.0244,-2.9303,-2.8565,-2.7962,-2.7042,-2.5785,-2.6306,-2.6841,-2.741,-2.8083,-2.8757,-2.94,-2.9939,-3.0283,-3.0402,-3.0926,-3.1285,-3.1332,-3.1317,-3.1958,-3.3275,-3.4592,-3.5325,-3.5265,-3.5983,-3.6522,-3.6641,-3.7195,-3.7823,-3.8437,-3.8542,-3.8527,-3.8527,-3.8527,-3.8005,-3.685,-3.7075,-3.6877,-3.5776,-3.5752,-3.5447,-3.4854,-3.3698,-3.2829,-3.2752,-3.1842,-3.1223,-3.104,-3.1304,-3.1449,-3.1348,-3.1009,-3.0771,-3.0746,-3.1097,-3.1148,-3.0884,-3.1398,-3.1423,-3.1022,-3.0977,-3.0914,-3.0846,-3.1505,-3.2129,-3.2416,-3.2811,-3.2978,-3.3179,-3.3282,-3.3332,-3.3181,-3.3257,-3.3571,-3.7542,-3.7452,-3.6544,-3.5687,-3.4854,-3.3794,-3.2916,-3.2324,-3.2645,-3.3034,-3.3558,-3.4962,-3.5639,-3.5554,-3.4776,-3.4235,-3.388,-3.3068,-3.2341,-3.1715,-3.1698,-3.1512,-3.1207,-3.119,-3.119,-3.119,-3.119,-3.119,-3.119,-3.119,-3.119,-3.119,-3.119,-3.119,-3.119,-3.119,-3.119,-3.119,-3.0852,-3.0852,-3.1173,-3.0583,-3.0182,-2.9922,-2.9042,-2.829,-2.7673,-2.7686,-2.7979,-2.8622,-2.928,-2.9953,-3.0597,-3.0911,-3.1076,-3.1076,-3.1302,-3.1467,-3.1467,-3.1869,-3.2467,-3.344,-3.4397,-3.5115,-3.5474,-3.5774,-3.6118,-3.6447,-3.6761,-3.7165,-3.7778,-3.7868,-3.7868,-3.7853,-3.7853,-3.758,-3.6796,-3.6057,-3.5611,-3.5218,-3.3991,-3.3136,-3.3301,-3.2132,-3.128,-3.1202,-3.0745,-3.0444,-3.0335,-3.0461,-3.052,-3.0495,-3.0319,-3.0206,-3.0168,-3.0055,-3.0206,-3.0507,-3.0423,-3.0423,-3.0419,-3.0524,-3.031,-3.0206,-3.057,-3.1016,-3.1555,-3.216,-3.2336,-3.2261,-3.2729,-3.283,-3.2428,-3.239,-3.2692,-3.7542,-3.75,-3.6399,-3.5402,-3.449,-3.2781,-3.2076,-3.2053,-3.2205,-3.2611,-3.3305,-3.4726,-3.5351,-3.525,-3.415,-3.3491,-3.3017,-3.1968,-3.1343,-3.1207,-3.119,-3.119,-3.119,-3.119,-3.119,-3.119,-3.119,-3.119,-3.1173,-3.1038,-3.0852,-3.0734,-3.0869,-3.0954,-3.0954,-3.1106,-3.119,-3.119,-3.119,-3.119,-3.119,-3.119,-3.1055,-3.0757,-2.9876,-2.9271,-2.8982,-2.8763,-2.8846,-2.934,-2.9953,-3.0537,-3.1061,-3.1225,-3.1243,-3.1258,-3.145,-3.1467,-3.1511,-3.2153,-3.2736,-3.3245,-3.4023,-3.4696,-3.519,-3.5429,-3.5699,-3.6178,-3.6252,-3.6522,-3.7075,-3.721,-3.7195,-3.7195,-3.721,-3.6954,-3.6547,-3.5254,-3.4371,-3.4607,-3.2421,-3.1074,-3.1305,-3.056,-2.9856,-2.9731,-2.9603,-2.9668,-2.9719,-2.9656,-2.9415,-2.944,-2.9503,-2.9591,-2.9578,-2.9289,-2.9377,-3.0143,-2.9693,-2.963,-2.9982,-2.9767,-2.9554,-2.9415,-2.9462,-2.9961,-3.0834,-3.1041,-3.1242,-3.1411,-3.1976,-3.2139,-3.1474,-3.1549,-3.1863,-3.7849,-3.6816,-3.6221,-3.4638,-3.2644,-3.1687,-3.1348,-3.1393,-3.1985,-3.2347,-3.256,-3.3947,-3.4573,-3.459,-3.4404,-3.3592,-3.25,-3.228,-3.1799,-3.1224,-3.119,-3.119,-3.119,-3.119,-3.119,-3.119,-3.119,-3.119,-3.1157,-3.0548,-2.9888,-2.9347,-2.9871,-3.0226,-3.0277,-3.0869,-3.119,-3.119,-3.119,-3.119,-3.119,-3.119,-3.0683,-2.9585,-2.9496,-2.8857,-2.8008,-2.8336,-2.8622,-2.8742,-2.9325,-2.9699,-2.9834,-3.0298,-3.0612,-3.0642,-3.1195,-3.1467,-3.1511,-3.2138,-3.2527,-3.2677,-3.3739,-3.4442,-3.4592,-3.513,-3.5519,-3.5594,-3.5594,-3.5923,-3.6462,-3.6582,-3.6567,-3.6567,-3.6567,-3.6045,-3.4772,-3.42,-3.341,-3.177,-3.1391,-3.0924,-3.0215,-2.9793,-2.9515,-2.9063,-2.9038,-2.9164,-2.941,-2.8933,-2.8423,-2.8423,-2.8662,-2.895,-2.8976,-2.8976,-2.8925,-2.9089,-2.9429,-2.9378,-2.9152,-2.9012,-2.8695,-2.8637,-2.861,-2.9176,-2.9541,-2.9564,-2.9739,-3.0716,-3.106,-3.0871,-3.0708,-3.0771,-3.1047,-3.7259,-3.7057,-3.5919,-3.4258,-3.2456,-3.1797,-3.1411,-3.1224,-3.1495,-3.1867,-3.2324,-3.2933,-3.3423,-3.3829,-3.3389,-3.2872,-3.2273,-3.185,-3.1495,-3.119,-3.119,-3.119,-3.119,-3.119,-3.119,-3.119,-3.119,-3.119,-3.1072,-3.0446,-2.9939,-2.9702,-2.9973,-2.9888,-2.9567,-3.0615,-3.1004,-3.0581,-3.097,-3.119,-3.119,-3.119,-3.0975,-3.0435,-2.9761,-2.918,-2.8701,-2.8282,-2.8188,-2.8577,-2.8861,-2.919,-2.9564,-2.9819,-3.0118,-3.0507,-3.115,-3.1467,-3.1467,-3.1721,-3.2108,-3.2482,-3.3006,-3.3469,-3.3858,-3.4158,-3.4457,-3.4876,-3.525,-3.5639,-3.5878,-3.5908,-3.5908,-3.5908,-3.5908,-3.5414,-3.4138,-3.3518,-3.2607,-3.1389,-3.0696,-3.0126,-2.9391,-2.8988,-2.8712,-2.8486,-2.8585,-2.872,-2.8518,-2.8097,-2.7863,-2.7838,-2.7936,-2.8097,-2.8323,-2.8134,-2.8134,-2.831,-2.8308,-2.817,-2.8434,-2.8422,-2.8258,-2.8084,-2.817,-2.8533,-2.9151,-2.9075,-2.9176,-2.9886,-3.0265,-3.0218,-3.0545,-3.0357,-3.0331,-3.6486,-3.6549,-3.4991,-3.3548,-3.2282,-3.1825,-3.147,-3.123,-3.119,-3.1495,-3.1952,-3.1985,-3.2273,-3.2713,-3.2408,-3.2188,-3.1918,-3.1444,-3.119,-3.119,-3.119,-3.119,-3.119,-3.119,-3.119,-3.119,-3.119,-3.1089,-3.0869,-3.0395,-3.0006,-2.9854,-3.0006,-2.9837,-2.9465,-3.0581,-3.0937,-3.0531,-3.0954,-3.119,-3.119,-3.1055,-3.0878,-3.0642,-2.9717,-2.9088,-2.8904,-2.8076,-2.7784,-2.8278,-2.8308,-2.8532,-2.9049,-2.9205,-2.9594,-3.0223,-3.0881,-3.1255,-3.1255,-3.1377,-3.1734,-3.2183,-3.2392,-3.2706,-3.314,-3.3395,-3.357,-3.3813,-3.4466,-3.491,-3.5489,-3.5489,-3.5489,-3.5504,-3.5279,-3.4758,-3.4027,-3.3031,-3.1893,-3.1069,-3.0136,-2.934,-2.88,-2.8386,-2.8122,-2.7946,-2.8142,-2.8138,-2.7463,-2.7267,-2.7254,-2.7279,-2.7172,-2.7331,-2.7708,-2.7457,-2.7356,-2.7394,-2.7377,-2.7339,-2.7582,-2.762,-2.7645,-2.7344,-2.7582,-2.7808,-2.8172,-2.8373,-2.8349,-2.8537,-2.8962,-2.9365,-2.934,-2.9264,-2.8976,-3.5844,-3.4924,-3.3297,-3.2403,-3.1825,-3.1449,-3.123,-3.119,-3.119,-3.1224,-3.1292,-3.1292,-3.1275,-3.1427,-3.1968,-3.1884,-3.1309,-3.1224,-3.119,-3.119,-3.119,-3.119,-3.119,-3.119,-3.119,-3.119,-3.119,-3.0886,-3.0277,-3.0142,-2.9736,-2.9161,-2.977,-3.0074,-3.0057,-3.0751,-3.1173,-3.1021,-3.1123,-3.119,-3.1095,-3.0617,-3.0064,-2.954,-2.8873,-2.8319,-2.786,-2.766,-2.7655,-2.7634,-2.7715,-2.7679,-2.7739,-2.8323,-2.8981,-2.9579,-3.0193,-3.0537,-3.0642,-3.112,-3.1452,-3.1586,-3.2034,-3.2437,-3.2437,-3.2809,-3.2827,-3.2376,-3.2811,-3.3667,-3.4925,-3.5073,-3.5213,-3.5213,-3.4543,-3.4095,-3.3876,-3.2253,-3.1136,-3.0414,-2.9523,-2.8674,-2.821,-2.8134,-2.777,-2.754,-2.7536,-2.741,-2.6886,-2.6615,-2.664,-2.664,-2.6628,-2.676,-2.7143,-2.6992,-2.6735,-2.6773,-2.6816,-2.6659,-2.6596,-2.6609,-2.6659,-2.6697,-2.6753,-2.6929,-2.713,-2.7218,-2.7205,-2.7435,-2.7974,-2.8273,-2.8298,-2.7695,-2.7519,-3.4383,-3.3778,-3.287,-3.2248,-3.1789,-3.164,-3.1449,-3.119,-3.119,-3.119,-3.119,-3.119,-3.119,-3.1224,-3.1461,-3.1444,-3.1207,-3.119,-3.119,-3.119,-3.119,-3.119,-3.119,-3.119,-3.119,-3.119,-3.119,-3.1072,-3.0784,-3.0362,-2.9973,-2.9786,-2.9956,-2.9888,-2.9685,-3.0598,-3.0987,-3.0598,-3.0954,-3.1015,-3.0642,-3.0021,-2.9451,-2.8857,-2.8606,-2.8415,-2.8189,-2.781,-2.756,-2.756,-2.756,-2.756,-2.7634,-2.8218,-2.8697,-2.8981,-2.9564,-2.9909,-2.9983,-3.0507,-3.0881,-3.0869,-3.0984,-3.1128,-3.1037,-3.083,-3.0637,-3.0827,-3.0923,-3.1636,-3.2435,-3.32,-3.3616,-3.3602,-3.331,-3.2835,-3.2239,-3.1302,-3.0354,-2.9507,-2.8508,-2.777,-2.7595,-2.7281,-2.6992,-2.6804,-2.6861,-2.6773,-2.6622,-2.6521,-2.6521,-2.6521,-2.6533,-2.6596,-2.6678,-2.6628,-2.6533,-2.6533,-2.6546,-2.6571,-2.6533,-2.6533,-2.6609,-2.6496,-2.6377,-2.6352,-2.664,-2.6666,-2.6578,-2.6979,-2.7469,-2.7494,-2.7356,-2.718,-2.7017,-3.3652,-3.3332,-3.2745,-3.2316,-3.1986,-3.175,-3.1432,-3.119,-3.119,-3.119,-3.119,-3.119,-3.119,-3.119,-3.119,-3.119,-3.119,-3.119,-3.119,-3.119,-3.119,-3.119,-3.119,-3.119,-3.119,-3.119,-3.119,-3.119,-3.1106,-3.0463,-3.0243,-3.0446,-3.0243,-2.9871,-2.9634,-3.0581,-3.0835,-3.0378,-3.0835,-3.0874,-3.0253,-2.9691,-2.8987,-2.8232,-2.7967,-2.8023,-2.8158,-2.781,-2.756,-2.756,-2.756,-2.756,-2.7619,-2.8023,-2.8263,-2.8338,-2.8906,-2.9265,-2.934,-2.9849,-3.0171,-3.0098,-3.0061,-2.9949,-2.9832,-2.9303,-2.9146,-2.9282,-2.9424,-2.9697,-2.9902,-3.0599,-3.1378,-3.1803,-3.1803,-3.1378,-3.0745,-3.0079,-2.9297,-2.848,-2.7654,-2.7105,-2.6992,-2.6703,-2.6596,-2.6521,-2.6521,-2.6521,-2.6521,-2.6521,-2.6521,-2.6521,-2.6521,-2.6533,-2.6452,-2.6302,-2.6395,-2.6408,-2.6445,-2.6471,-2.6389,-2.6402,-2.6314,-2.6226,-2.6138,-2.6088,-2.6076,-2.6181,-2.6352,-2.6703,-2.6929,-2.6992,-2.6954,-2.6979,-2.6816,-3.3762,-3.3606,-3.2854,-3.2451,-3.2282,-3.1657,-3.1252,-3.123,-3.123,-3.1269,-3.119,-3.119,-3.119,-3.119,-3.119,-3.119,-3.119,-3.119,-3.119,-3.119,-3.119,-3.119,-3.119,-3.119,-3.119,-3.119,-3.119,-3.119,-3.114,-3.0581,-3.0531,-3.092,-3.0412,-3.0057,-3.0074,-3.0683,-3.0784,-3.0412,-3.0818,-3.0813,-3.0106,-2.9528,-2.8614,-2.7347,-2.6857,-2.6924,-2.7525,-2.7535,-2.752,-2.7565,-2.756,-2.756,-2.756,-2.7634,-2.7604,-2.7754,-2.8248,-2.8562,-2.8599,-2.9137,-2.9333,-2.9117,-2.9158,-2.8997,-2.8893,-2.8702,-2.8387,-2.8,-2.8144,-2.8213,-2.7717,-2.8033,-2.9035,-3.0515,-3.0196,-2.9649,-2.9385,-2.8677,-2.7896,-2.7406,-2.6924,-2.6571,-2.6546,-2.6546,-2.6521,-2.6521,-2.6521,-2.6521,-2.6521,-2.6521,-2.6521,-2.6508,-2.6408,-2.6239,-2.6138,-2.6038,-2.6194,-2.6269,-2.6319,-2.6289,-2.6226,-2.6201,-2.5937,-2.5799,-2.5494,-2.5419,-2.541,-2.5448,-2.5561,-2.5795,-2.6138,-2.6452,-2.6477,-2.649,-2.6659,-3.3408,-3.3332,-3.2745,-3.2298,-3.2074,-3.2039,-3.1787,-3.1252,-3.147,-3.1449,-3.1213,-3.119,-3.119,-3.119,-3.119,-3.119,-3.119,-3.119,-3.119,-3.119,-3.119,-3.119,-3.119,-3.119,-3.119,-3.119,-3.119,-3.119,-3.1157,-3.0937,-3.1004,-3.1021,-3.0446,-3.0125,-3.004,-3.0328,-3.0294,-3.0243,-3.0818,-3.047,-2.9108,-2.8785,-2.7886,-2.6336,-2.5997,-2.6033,-2.6213,-2.6647,-2.6886,-2.6901,-2.7335,-2.756,-2.756,-2.756,-2.756,-2.759,-2.7754,-2.7632,-2.7325,-2.7769,-2.7932,-2.744,-2.7189,-2.7284,-2.7407,-2.7064,-2.6789,-2.6803,-2.7003,-2.6967,-2.688,-2.6841,-2.7634,-2.8821,-2.8723,-2.8515,-2.8451,-2.7948,-2.7377,-2.6841,-2.6634,-2.6533,-2.6521,-2.6521,-2.6414,-2.6508,-2.6496,-2.6445,-2.6521,-2.6445,-2.6521,-2.6521,-2.6201,-2.5875,-2.5737,-2.5511,-2.5489,-2.569,-2.5854,-2.619,-2.611,-2.5837,-2.5573,-2.5247,-2.4891,-2.4703,-2.4705,-2.4781,-2.4893,-2.5106,-2.5536,-2.5749,-2.5887,-2.5988,-2.6088,-3.3419,-3.3361,-3.2745,-3.2451,-3.2264,-3.2144,-3.1823,-3.1449,-3.1545,-3.1449,-3.123,-3.119,-3.119,-3.119,-3.119,-3.119,-3.119,-3.119,-3.119,-3.119,-3.119,-3.119,-3.119,-3.119,-3.119,-3.119,-3.119,-3.119,-3.1157,-3.0666,-3.0514,-3.0598,-2.977,-2.9228,-2.9313,-2.955,-2.9685,-2.9753,-3.0125,-2.9688,-2.8576,-2.8104,-2.7087,-2.5453,-2.5183,-2.5091,-2.4956,-2.5495,-2.5974,-2.6288,-2.6856,-2.7275,-2.758,-2.756,-2.7458,-2.7255,-2.7152,-2.6893,-2.6286,-2.6505,-2.6484,-2.6021,-2.5782,-2.5818,-2.5986,-2.5559,-2.5561,-2.6025,-2.6206,-2.6214,-2.6483,-2.6533,-2.6804,-2.7394,-2.7528,-2.7494,-2.7444,-2.7193,-2.6879,-2.6553,-2.6533,-2.6521,-2.6521,-2.6226,-2.6276,-2.6352,-2.6101,-2.6126,-2.6176,-2.6063,-2.6025,-2.5925,-2.5649,-2.5398,-2.5285,-2.5034,-2.4796,-2.501,-2.5287,-2.5737,-2.6021,-2.5529,-2.5146,-2.4619,-2.423,-2.3891,-2.3866,-2.4192,-2.4341,-2.4655,-2.4921,-2.5172,-2.5372,-2.5485,-2.5611,-3.3807,-3.3707,-3.2934,-3.2777,-3.2903,-3.1967,-3.1582,-3.1623,-3.1449,-3.1291,-3.119,-3.119,-3.1213,-3.1252,-3.1291,-3.1278,-3.1223,-3.1138,-3.1019,-3.0963,-3.0925,-3.092,-3.1173,-3.1072,-3.1004,-3.1038,-3.1055,-3.1021,-3.0768,-2.9753,-2.9347,-2.9854,-2.8702,-2.7857,-2.811,-2.8602,-2.8924,-2.8924,-2.9025,-2.8783,-2.8046,-2.7535,-2.635,-2.4539,-2.4458,-2.4313,-2.3984,-2.4373,-2.4956,-2.5585,-2.6243,-2.6811,-2.735,-2.7515,-2.7187,-2.673,-2.6563,-2.6176,-2.5618,-2.5467,-2.5279,-2.4965,-2.4891,-2.4935,-2.4836,-2.4847,-2.4996,-2.5485,-2.5561,-2.5749,-2.6138,-2.6294,-2.6289,-2.6433,-2.6553,-2.6615,-2.6571,-2.6584,-2.6452,-2.6389,-2.6402,-2.6352,-2.6226,-2.5812,-2.5862,-2.5937,-2.5485,-2.5536,-2.5749,-2.5611,-2.5156,-2.5018,-2.5059,-2.487,-2.4732,-2.433,-2.4054,-2.4155,-2.452,-2.4925,-2.5422,-2.4975,-2.4531,-2.4017,-2.3654,-2.3328,-2.3265,-2.3654,-2.3841,-2.3954,-2.4293,-2.4632,-2.4858,-2.4971,-2.5184,-3.3807,-3.378,-3.3532,-3.3148,-3.2763,-3.2616,-3.2127,-3.1449,-3.1603,-3.1432,-3.1252,-3.119,-3.1355,-3.1623,-3.164,-3.1546,-3.122,-3.0923,-3.0453,-2.9969,-2.968,-3.0281,-3.0869,-3.0632,-3.0412,-3.0395,-3.0378,-3.0108,-2.9604,-2.9144,-2.9059,-2.9228,-2.8298,-2.7755,-2.7857,-2.801,-2.8112,-2.8213,-2.8721,-2.8235,-2.7006,-2.6687,-2.5648,-2.4031,-2.3876,-2.3804,-2.361,-2.3759,-2.4448,-2.551,-2.5749,-2.6168,-2.6767,-2.6856,-2.6872,-2.696,-2.6678,-2.6108,-2.5439,-2.4851,-2.4313,-2.3722,-2.3752,-2.3786,-2.4217,-2.4217,-2.4481,-2.4883,-2.5034,-2.5096,-2.5247,-2.5297,-2.5297,-2.536,-2.5912,-2.642,-2.6377,-2.6508,-2.6382,-2.5925,-2.5837,-2.5674,-2.541,-2.5197,-2.5121,-2.5222,-2.5034,-2.487,-2.5197,-2.5071,-2.4605,-2.4682,-2.4619,-2.4368,-2.4079,-2.3653,-2.3414,-2.3427,-2.3615,-2.389,-2.4165,-2.4016,-2.369,-2.3326,-2.3414,-2.314,-2.3103,-2.3278,-2.3376,-2.3502,-2.3791,-2.418,-2.4356,-2.4506,-2.4757,-3.3807,-3.378,-3.3606,-3.3361,-3.3027,-3.2952,-3.2451,-3.1842,-3.1752,-3.1565,-3.1291,-3.1372,-3.1376,-3.1339,-3.1357,-3.1166,-3.0765,-3.0366,-3.0022,-2.9756,-2.9296,-2.9539,-3.0,-2.9786,-2.9634,-2.9634,-2.9634,-2.9414,-2.9008,-2.867,-2.8501,-2.8349,-2.7723,-2.7368,-2.73,-2.7351,-2.7485,-2.7774,-2.7975,-2.7411,-2.6398,-2.5974,-2.507,-2.3882,-2.3595,-2.3595,-2.3595,-2.3595,-2.4223,-2.5226,-2.539,-2.5495,-2.6093,-2.6183,-2.6105,-2.601,-2.5712,-2.516,-2.4303,-2.389,-2.359,-2.3198,-2.3125,-2.3288,-2.3565,-2.364,-2.3866,-2.4368,-2.4469,-2.4594,-2.4782,-2.4833,-2.4833,-2.4946,-2.5398,-2.5774,-2.5774,-2.5724,-2.5624,-2.5372,-2.5247,-2.5184,-2.4833,-2.4632,-2.4632,-2.4657,-2.4356,-2.4481,-2.4707,-2.4406,-2.423,-2.4255,-2.4104,-2.3816,-2.3703,-2.3389,-2.3251,-2.3213,-2.3238,-2.3364,-2.3314,-2.3351,-2.3301,-2.3175,-2.315,-2.3125,-2.3125,-2.3125,-2.3188,-2.3351,-2.354,-2.364,-2.3803,-2.3979,-2.4243,-3.3807,-3.378,-3.3419,-3.3437,-3.3532,-3.2813,-3.2305,-3.2158,-3.169,-3.1298,-3.1052,-3.133,-3.1098,-3.0629,-3.0748,-3.048,-3.0153,-2.9839,-2.9607,-2.9355,-2.8928,-2.8693,-2.8691,-2.9,-2.8895,-2.8892,-2.8892,-2.8738,-2.8416,-2.7926,-2.7723,-2.7571,-2.7029,-2.6776,-2.6826,-2.6776,-2.708,-2.7402,-2.7165,-2.6709,-2.6089,-2.555,-2.4766,-2.3839,-2.3595,-2.3595,-2.3595,-2.3655,-2.4133,-2.5315,-2.4822,-2.4896,-2.539,-2.551,-2.5062,-2.4303,-2.4351,-2.3893,-2.2801,-2.2967,-2.2997,-2.2874,-2.2987,-2.3002,-2.3027,-2.3078,-2.3427,-2.3866,-2.3916,-2.4092,-2.4381,-2.4569,-2.4506,-2.4469,-2.4607,-2.4644,-2.4669,-2.4745,-2.4808,-2.4732,-2.4745,-2.472,-2.4531,-2.4305,-2.4067,-2.4117,-2.3779,-2.3879,-2.3991,-2.3766,-2.3766,-2.3828,-2.3577,-2.3238,-2.3201,-2.3163,-2.315,-2.315,-2.3163,-2.3175,-2.3025,-2.3037,-2.3125,-2.3125,-2.3125,-2.3125,-2.3125,-2.3125,-2.3125,-2.3163,-2.3326,-2.3263,-2.3213,-2.3401,-2.364,-3.3807,-3.3788,-3.3689,-3.3522,-3.3194,-3.2475,-3.1742,-3.108,-3.067,-3.0349,-2.9955,-2.9972,-3.0322,-3.0677,-3.0411,-3.0261,-3.0061,-2.9645,-2.9047,-2.7834,-2.7461,-2.7246,-2.7454,-2.8066,-2.8305,-2.8132,-2.8078,-2.7791,-2.73,-2.7182,-2.6962,-2.6928,-2.686,-2.6708,-2.6708,-2.6708,-2.6742,-2.6894,-2.6759,-2.6258,-2.5621,-2.5272,-2.4657,-2.3724,-2.3595,-2.3595,-2.3595,-2.3595,-2.3744,-2.3924,-2.3984,-2.4119,-2.4596,-2.4745,-2.4538,-2.4148,-2.377,-2.335,-2.2705,-2.2394,-2.2297,-2.2058,-2.2585,-2.2865,-2.2284,-2.2815,-2.3065,-2.3314,-2.3326,-2.3403,-2.3602,-2.354,-2.3602,-2.3591,-2.3566,-2.3528,-2.3591,-2.4217,-2.4519,-2.4381,-2.418,-2.4017,-2.3615,-2.3552,-2.3452,-2.3416,-2.3378,-2.3301,-2.3228,-2.324,-2.3389,-2.3502,-2.3213,-2.2924,-2.2887,-2.2824,-2.2711,-2.2723,-2.2761,-2.2774,-2.2623,-2.2648,-2.2711,-2.2912,-2.3125,-2.3053,-2.2892,-2.3125,-2.3125,-2.3125,-2.3125,-2.3125,-2.3125,-2.3125,-2.2957,-3.3018,-3.2669,-3.2669,-3.2564,-3.2311,-3.1901,-3.1242,-3.0539,-3.0254,-2.9804,-2.9455,-2.9606,-2.988,-2.9951,-2.9908,-2.9836,-2.9582,-2.9207,-2.8522,-2.7719,-2.7365,-2.71,-2.6859,-2.7379,-2.7702,-2.7369,-2.73,-2.7012,-2.6776,-2.6708,-2.6742,-2.6708,-2.6708,-2.6708,-2.6708,-2.6708,-2.6708,-2.6657,-2.6436,-2.5997,-2.5335,-2.495,-2.4511,-2.3767,-2.3595,-2.3595,-2.3595,-2.3595,-2.3595,-2.3551,-2.3334,-2.3334,-2.3598,-2.3671,-2.3479,-2.2895,-2.2834,-2.2325,-2.1846,-2.1835,-2.1807,-2.1493,-2.2071,-2.2121,-2.2133,-2.246,-2.2833,-2.3031,-2.3097,-2.3138,-2.3125,-2.315,-2.3125,-2.3125,-2.3125,-2.3125,-2.3238,-2.3678,-2.3954,-2.3752,-2.3615,-2.3464,-2.3178,-2.315,-2.315,-2.3253,-2.3253,-2.3201,-2.3201,-2.314,-2.3128,-2.3163,-2.2887,-2.2686,-2.2623,-2.246,-2.2184,-2.2133,-2.2096,-2.2071,-2.1983,-2.2108,-2.2272,-2.2447,-2.2598,-2.2598,-2.2501,-2.277,-2.3027,-2.304,-2.304,-2.3125,-2.3065,-2.304,-2.2738,-3.2027,-3.1403,-3.1403,-3.1403,-3.1366,-3.1274,-3.0803,-3.0155,-3.003,-2.9528,-2.911,-2.9677,-2.9461,-2.9191,-2.9278,-2.9214,-2.8974,-2.8543,-2.8083,-2.7886,-2.7547,-2.7178,-2.6891,-2.704,-2.7107,-2.6742,-2.6776,-2.6708,-2.6708,-2.6708,-2.6708,-2.6708,-2.6708,-2.6708,-2.6708,-2.6708,-2.6708,-2.6657,-2.6262,-2.5799,-2.5221,-2.4712,-2.4199,-2.3724,-2.3595,-2.3595,-2.3595,-2.3595,-2.3595,-2.3551,-2.3009,-2.2754,-2.2709,-2.2512,-2.2095,-2.0997,-2.1425,-2.1251,-2.0934,-2.1058,-2.1317,-2.128,-2.1481,-2.1455,-2.1625,-2.1927,-2.2324,-2.2597,-2.2703,-2.2786,-2.2975,-2.2937,-2.3,-2.31,-2.3125,-2.3125,-2.3125,-2.3125,-2.3213,-2.3213,-2.3288,-2.3226,-2.3175,-2.3125,-2.3125,-2.3113,-2.31,-2.3062,-2.3037,-2.3025,-2.2962,-2.2786,-2.251,-2.2259,-2.2184,-2.2071,-2.1794,-2.1681,-2.1581,-2.1481,-2.1418,-2.1455,-2.1606,-2.1769,-2.1888,-2.1965,-2.2145,-2.233,-2.2586,-2.2855,-2.2892,-2.2782,-2.2807,-2.2882,-2.2445,-3.1513,-3.1403,-3.1403,-3.1403,-3.1274,-3.0687,-3.0115,-2.9692,-2.937,-2.8931,-2.8558,-2.8676,-2.8915,-2.8887,-2.8662,-2.8724,-2.8718,-2.8326,-2.7982,-2.7754,-2.7334,-2.6808,-2.6791,-2.6791,-2.6774,-2.6725,-2.6708,-2.6708,-2.6708,-2.6708,-2.6708,-2.6708,-2.6708,-2.6708,-2.6708,-2.6708,-2.6708,-2.6624,-2.6175,-2.5652,-2.5221,-2.4617,-2.4116,-2.3638,-2.3595,-2.3595,-2.3595,-2.3595,-2.3595,-2.3551,-2.3009,-2.2754,-2.2572,-2.2207,-2.1534,-2.1019,-2.0828,-2.0655,-2.0217,-2.0489,-2.0501,-2.0439,-2.0853,-2.0907,-2.074,-2.1081,-2.1687,-2.1813,-2.1901,-2.1983,-2.2397,-2.2447,-2.2686,-2.2924,-2.3012,-2.3012,-2.3025,-2.2987,-2.2962,-2.2887,-2.2975,-2.305,-2.2962,-2.2862,-2.2749,-2.2723,-2.282,-2.2694,-2.2569,-2.256,-2.2552,-2.2385,-2.2108,-2.1882,-2.1707,-2.1594,-2.143,-2.133,-2.1204,-2.1029,-2.0941,-2.0828,-2.0903,-2.1079,-2.133,-2.1562,-2.1704,-2.1827,-2.1709,-2.174,-2.1987,-2.227,-2.2005,-2.174,-2.1762,-3.054,-3.0155,-3.0155,-3.0155,-3.0099,-2.9751,-2.9338,-2.8977,-2.8771,-2.8507,-2.829,-2.8316,-2.8515,-2.859,-2.8496,-2.8464,-2.8326,-2.812,-2.7765,-2.75,-2.6987,-2.6708,-2.6708,-2.6708,-2.6708,-2.6708,-2.6708,-2.6708,-2.6708,-2.6708,-2.6708,-2.6708,-2.6708,-2.6708,-2.6708,-2.6708,-2.6708,-2.6556,-2.598,-2.5465,-2.5144,-2.4415,-2.3822,-2.3666,-2.3595,-2.3595,-2.3595,-2.3595,-2.3595,-2.3465,-2.3024,-2.2754,-2.242,-2.1833,-2.1113,-2.0795,-2.0497,-2.0194,-1.985,-2.01,-2.0075,-1.9949,-2.0376,-2.0373,-2.0167,-2.0586,-2.1142,-2.1393,-2.1493,-2.1581,-2.1857,-2.187,-2.202,-2.2184,-2.2322,-2.2334,-2.2309,-2.2309,-2.2347,-2.2422,-2.2472,-2.2523,-2.2585,-2.246,-2.2309,-2.2367,-2.2443,-2.2337,-2.211,-2.2046,-2.2006,-2.1939,-2.1625,-2.1167,-2.0991,-2.0928,-2.0903,-2.0853,-2.079,-2.0614,-2.0476,-2.0363,-2.0326,-2.0401,-2.0677,-2.1108,-2.0896,-2.0758,-2.0689,-2.0532,-2.0538,-2.0591,-2.0606,-2.0557,-2.0607,-2.9586,-2.8975,-2.8975,-2.8975,-2.8975,-2.8994,-2.8858,-2.8565,-2.8558,-2.8438,-2.8174,-2.8316,-2.842,-2.842,-2.8368,-2.8237,-2.7926,-2.7897,-2.7678,-2.7286,-2.6906,-2.6708,-2.6708,-2.6708,-2.6708,-2.6708,-2.6708,-2.6708,-2.6708,-2.6708,-2.6708,-2.6708,-2.6708,-2.6708,-2.6708,-2.6556,-2.659,-2.6245,-2.5598,-2.5067,-2.4657,-2.4074,-2.3595,-2.3595,-2.3595,-2.3595,-2.3595,-2.3595,-2.3595,-2.3421,-2.3054,-2.2709,-2.2512,-2.1513,-2.0845,-2.0709,-2.0156,-1.9901,-1.9811,-1.9811,-1.9874,-1.9823,-1.9811,-1.9823,-1.9899,-2.025,-2.0652,-2.1054,-2.1104,-2.1154,-2.1267,-2.133,-2.1418,-2.1556,-2.1581,-2.1518,-2.1525,-2.1562,-2.1625,-2.1713,-2.1882,-2.1958,-2.2008,-2.2058,-2.1907,-2.1788,-2.1895,-2.1713,-2.1468,-2.1325,-2.1269,-2.136,-2.1075,-2.0492,-2.0213,-2.0162,-2.0188,-2.0238,-2.0213,-2.0125,-2.0012,-1.9911,-1.9936,-1.9985,-2.0175,-2.0423,-2.013,-1.9788,-1.9793,-1.9606,-1.9118,-1.9089,-1.9379,-1.9338,-1.9264,-2.9085,-2.8975,-2.8975,-2.8975,-2.8975,-2.8975,-2.8975,-2.891,-2.8905,-2.8905,-2.8749,-2.854,-2.842,-2.8368,-2.8394,-2.8192,-2.7936,-2.7811,-2.7607,-2.721,-2.6873,-2.6708,-2.6708,-2.6708,-2.6708,-2.6708,-2.6708,-2.6708,-2.6708,-2.6708,-2.6708,-2.6708,-2.6708,-2.6657,-2.6573,-2.6332,-2.6085,-2.5888,-2.5067,-2.4323,-2.3921,-2.3681,-2.3595,-2.3595,-2.3595,-2.3595,-2.3595,-2.3595,-2.3595,-2.3551,-2.3054,-2.2754,-2.2512,-2.1465,-2.0944,-2.061,-2.0245,-1.9798,-1.9798,-1.9798,-1.9798,-1.9798,-1.9798,-1.9798,-1.9849,-1.9874,-2.0049,-1.9949,-2.0062,-2.0313,-2.0677,-2.0765,-2.1004,-2.1179,-2.1242,-2.1106,-2.1039,-2.0924,-2.0986,-2.0961,-2.1049,-2.128,-2.1393,-2.1468,-2.1506,-2.1387,-2.1231,-2.1037,-2.0861,-2.0752,-2.0643,-2.0727,-2.0696,-2.0164,-1.9949,-1.9823,-1.9798,-1.9798,-1.9798,-1.9798,-1.9798,-1.9798,-1.9683,-1.9783,-1.9883,-1.954,-1.8946,-1.8733,-1.8846,-1.8483,-1.7856,-1.8012,-1.8486,-1.8317,-1.7916,-2.8975,-2.8975,-2.8975,-2.8975,-2.8975,-2.8975,-2.8975,-2.8975,-2.8975,-2.8975,-2.8975,-2.8839,-2.8533,-2.821,-2.8272,-2.7929,-2.7439,-2.747,-2.7365,-2.7068,-2.6791,-2.6708,-2.6708,-2.6708,-2.6708,-2.6708,-2.6708,-2.6708,-2.6708,-2.6708,-2.6708,-2.6708,-2.6657,-2.6505,-2.635,-2.6104,-2.5799,-2.5449,-2.4792,-2.4158,-2.3709,-2.3595,-2.3595,-2.3595,-2.3595,-2.3595,-2.3595,-2.3595,-2.3595,-2.3551,-2.3275,-2.3246,-2.3054,-2.2406,-2.1752,-2.1245,-2.0733,-2.0258,-1.9862,-1.9798,-1.9798,-1.9798,-1.9798,-1.9798,-1.9798,-1.9798,-1.9798,-1.9811,-1.9811,-1.9949,-2.0112,-2.0162,-2.0288,-2.0476,-2.0715,-2.0573,-2.0457,-2.0435,-2.0335,-2.0285,-2.0285,-2.0511,-2.0715,-2.069,-2.0715,-2.0665,-2.0548,-2.0451,-2.0288,-2.0185,-2.0173,-2.0188,-2.0114,-1.9861,-1.9849,-1.9798,-1.9798,-1.9798,-1.9798,-1.9798,-1.9798,-1.9798,-1.9683,-1.9359,-1.9223,-1.8679,-1.7875,-1.7811,-1.8069,-1.7364,-1.6514,-1.6822,-1.7169,-1.6827,-1.6565,-2.9062,-2.8998,-2.8975,-2.8975,-2.8975,-2.8975,-2.8975,-2.8975,-2.8975,-2.8975,-2.8952,-2.8839,-2.8412,-2.7946,-2.8002,-2.7718,-2.6791,-2.7115,-2.7036,-2.6825,-2.6708,-2.6708,-2.6708,-2.6708,-2.6708,-2.6708,-2.6708,-2.6708,-2.6708,-2.6708,-2.6708,-2.6708,-2.6708,-2.6436,-2.6068,-2.5779,-2.5465,-2.4712,-2.4348,-2.3948,-2.3681,-2.3595,-2.3595,-2.3595,-2.3595,-2.3595,-2.3595,-2.3595,-2.3595,-2.3595,-2.3551,-2.3465,-2.3201,-2.2543,-2.188,-2.1342,-2.0696,-2.0258,-1.9901,-1.9798,-1.9798,-1.9798,-1.9798,-1.9798,-1.9798,-1.9798,-1.9798,-1.9798,-1.9798,-1.9798,-1.9811,-1.9823,-1.9911,-1.9949,-1.9949,-1.9836,-1.9823,-1.9987,-2.0062,-2.0049,-1.9985,-1.9962,-2.0037,-1.9924,-1.9886,-1.9849,-1.9798,-1.9798,-1.9811,-1.9836,-1.9874,-1.9936,-1.9886,-1.9798,-1.9798,-1.9798,-1.9798,-1.9798,-1.9798,-1.9798,-1.9798,-1.9695,-1.9527,-1.9202,-1.8673,-1.8015,-1.7379,-1.7289,-1.7197,-1.6472,-1.5934,-1.5672,-1.5634,-1.542,-1.5576,-2.9225,-2.8975,-2.8975,-2.8975,-2.8975,-2.8975,-2.8975,-2.8975,-2.8975,-2.8975,-2.8952,-2.859,-2.8084,-2.7631,-2.7678,-2.747,-2.6725,-2.7115,-2.7004,-2.6791,-2.6708,-2.6708,-2.6708,-2.6708,-2.6708,-2.6708,-2.6708,-2.6708,-2.6708,-2.6708,-2.6708,-2.6708,-2.6708,-2.6401,-2.5908,-2.5335,-2.4752,-2.4116,-2.3794,-2.3752,-2.3595,-2.3595,-2.3595,-2.3595,-2.3595,-2.3595,-2.3595,-2.3595,-2.3595,-2.3595,-2.3595,-2.3421,-2.3054,-2.2575,-2.2007,-2.1403,-2.0733,-2.0295,-2.0042,-1.985,-1.9798,-1.9798,-1.9798,-1.9798,-1.9798,-1.9798,-1.9798,-1.9798,-1.9798,-1.9798,-1.9798,-1.9798,-1.9798,-1.9798,-1.9798,-1.9798,-1.9798,-1.9811,-1.9874,-1.9823,-1.9798,-1.9798,-1.9798,-1.9798,-1.9798,-1.9798,-1.9798,-1.9798,-1.9798,-1.9811,-1.9811,-1.9836,-1.9836,-1.9798,-1.9798,-1.9798,-1.9798,-1.9798,-1.9798,-1.9798,-1.9798,-1.9631,-1.923,-1.8768,-1.8232,-1.7523,-1.6933,-1.6761,-1.6394,-1.5778,-1.542,-1.542,-1.542,-1.542,-1.5586,-2.9265,-2.8975,-2.8975,-2.8975,-2.8975,-2.8975,-2.8975,-2.8975,-2.8975,-2.8975,-2.8994,-2.8583,-2.8112,-2.7765,-2.747,-2.7241,-2.6741,-2.6824,-2.6808,-2.6758,-2.6708,-2.6708,-2.6708,-2.6708,-2.6708,-2.6708,-2.6708,-2.6708,-2.6708,-2.6708,-2.6708,-2.6708,-2.6708,-2.6175,-2.5561,-2.4776,-2.4074,-2.3794,-2.3595,-2.3595,-2.3595,-2.3595,-2.3595,-2.3595,-2.3595,-2.3595,-2.3595,-2.3595,-2.3595,-2.3595,-2.3595,-2.3421,-2.3246,-2.2846,-2.2423,-2.188,-2.1197,-2.072,-2.0295,-2.0055,-1.9798,-1.9798,-1.9798,-1.9798,-1.9798,-1.9798,-1.9798,-1.9798,-1.9798,-1.9798,-1.9798,-1.9798,-1.9798,-1.9798,-1.9798,-1.9798,-1.9798,-1.9798,-1.9798,-1.9798,-1.9798,-1.9798,-1.9798,-1.9798,-1.9798,-1.9798,-1.9798,-1.9798,-1.9798,-1.9798,-1.9798,-1.9798,-1.9798,-1.9798,-1.9798,-1.9798,-1.9798,-1.9798,-1.9798,-1.9683,-1.9567,-1.9024,-1.8643,-1.8186,-1.7622,-1.6922,-1.6379,-1.6056,-1.5778,-1.5478,-1.542,-1.542,-1.542,-1.542,-1.5557,-2.9334,-2.9112,-2.9021,-2.8975,-2.8975,-2.8975,-2.8975,-2.8975,-2.8975,-2.8975,-2.8975,-2.8682,-2.8368,-2.8047,-2.7805,-2.7452,-2.7161,-2.7019,-2.6939,-2.6841,-2.6791,-2.6725,-2.6708,-2.6708,-2.6708,-2.6708,-2.6708,-2.6708,-2.6708,-2.6708,-2.6708,-2.6708,-2.6624,-2.6123,-2.5205,-2.4184,-2.3595,-2.3595,-2.3595,-2.3595,-2.3595,-2.3595,-2.3595,-2.3595,-2.3595,-2.3595,-2.3595,-2.3595,-2.3595,-2.3595,-2.3595,-2.3595,-2.3508,-2.3363,-2.3098,-2.2589,-2.1913,-2.1245,-2.0782,-2.0258,-1.985,-1.9798,-1.9798,-1.9798,-1.9798,-1.9798,-1.9798,-1.9798,-1.9798,-1.9798,-1.9798,-1.9798,-1.9798,-1.9798,-1.9798,-1.9798,-1.9798,-1.9798,-1.9798,-1.9798,-1.9798,-1.9798,-1.9798,-1.9798,-1.9798,-1.9798,-1.9798,-1.9798,-1.9798,-1.9798,-1.9798,-1.9798,-1.9798,-1.9798,-1.9798,-1.9747,-1.9747,-1.9798,-1.9734,-1.9451,-1.9206,-1.8631,-1.7989,-1.7446,-1.6866,-1.6197,-1.5874,-1.571,-1.5594,-1.542,-1.542,-1.542,-1.542,-1.542,-1.542,-2.9589,-2.9372,-2.9112,-2.9017,-2.9017,-2.8975,-2.8975,-2.8975,-2.8975,-2.8975,-2.8975,-2.8905,-2.8682,-2.8386,-2.8166,-2.7918,-2.7648,-2.7396,-2.7241,-2.7147,-2.6841,-2.6725,-2.6708,-2.6708,-2.6708,-2.6708,-2.6708,-2.6708,-2.6708,-2.6708,-2.6708,-2.6657,-2.6556,-2.6123,-2.5182,-2.4158,-2.3638,-2.3595,-2.3595,-2.3595,-2.3595,-2.3595,-2.3595,-2.3595,-2.3595,-2.3595,-2.3595,-2.3595,-2.3551,-2.3421,-2.3566,-2.3566,-2.3421,-2.3157,-2.2934,-2.2785,-2.169,-2.1028,-2.0759,-2.0156,-1.985,-1.9798,-1.9798,-1.9798,-1.9798,-1.9798,-1.9798,-1.9798,-1.9798,-1.9798,-1.9798,-1.9798,-1.9798,-1.9798,-1.9798,-1.9798,-1.9798,-1.9798,-1.9798,-1.9798,-1.9798,-1.9798,-1.9798,-1.9798,-1.9798,-1.9798,-1.9798,-1.9798,-1.9798,-1.9798,-1.9798,-1.9798,-1.9798,-1.9503,-1.9503,-1.9631,-1.9695,-1.9747,-1.9527,-1.902,-1.8691,-1.824,-1.7544,-1.6765,-1.6322,-1.5921,-1.5642,-1.542,-1.542,-1.542,-1.542,-1.542,-1.542,-1.542,-1.542,-2.9713,-2.9373,-2.931,-2.9178,-2.9017,-2.8975,-2.8975,-2.8975,-2.8975,-2.8975,-2.8929,-2.8749,-2.8565,-2.8368,-2.821,-2.8047,-2.7869,-2.75,-2.7303,-2.7224,-2.6873,-2.6758,-2.6708,-2.6708,-2.6708,-2.6708,-2.6708,-2.6708,-2.6708,-2.6708,-2.6708,-2.6657,-2.6401,-2.5872,-2.5221,-2.4471,-2.4032,-2.3681,-2.3595,-2.3595,-2.3595,-2.3595,-2.3595,-2.3595,-2.3595,-2.3595,-2.3595,-2.3595,-2.3465,-2.329,-2.3377,-2.3465,-2.329,-2.3024,-2.329,-2.3143,-2.2346,-2.1657,-2.093,-2.0207,-1.985,-1.9798,-1.9798,-1.9798,-1.9798,-1.9798,-1.9798,-1.9798,-1.9798,-1.9798,-1.9798,-1.9798,-1.9798,-1.9798,-1.9798,-1.9798,-1.9798,-1.9798,-1.9798,-1.9798,-1.9798,-1.9798,-1.9798,-1.9798,-1.9798,-1.9798,-1.9798,-1.9798,-1.9798,-1.9798,-1.9798,-1.9798,-1.9734,-1.9322,-1.9153,-1.9242,-1.9044,-1.8874,-1.8555,-1.8112,-1.7841,-1.772,-1.718,-1.6436,-1.6036,-1.57,-1.5526,-1.542,-1.542,-1.542,-1.542,-1.542,-1.542,-1.542,-1.542,-2.9796,-2.9513,-2.9414,-2.9246,-2.8998,-2.8975,-2.8975,-2.8975,-2.8975,-2.8975,-2.8952,-2.8725,-2.8633,-2.8558,-2.8386,-2.8129,-2.8065,-2.7725,-2.7365,-2.7255,-2.6873,-2.6725,-2.6708,-2.6708,-2.6708,-2.6708,-2.6708,-2.6708,-2.6708,-2.6708,-2.6708,-2.659,-2.6227,-2.5762,-2.5182,-2.4632,-2.4116,-2.3752,-2.3595,-2.3595,-2.3595,-2.3595,-2.3595,-2.3595,-2.3595,-2.3595,-2.3595,-2.3551,-2.3421,-2.3246,-2.3246,-2.3421,-2.3246,-2.3334,-2.3595,-2.3421,-2.2965,-2.2081,-2.0979,-2.0497,-2.0156,-1.985,-1.9798,-1.9798,-1.9798,-1.9798,-1.9798,-1.9798,-1.9798,-1.9798,-1.9798,-1.9798,-1.9798,-1.9798,-1.9798,-1.9798,-1.9798,-1.9798,-1.9798,-1.9798,-1.9798,-1.9798,-1.9798,-1.9798,-1.9798,-1.9798,-1.9798,-1.9798,-1.9798,-1.9798,-1.9798,-1.9798,-1.9683,-1.9282,-1.9008,-1.8862,-1.8555,-1.807,-1.7743,-1.7413,-1.7413,-1.7346,-1.6754,-1.6208,-1.5816,-1.5526,-1.5468,-1.542,-1.542,-1.542,-1.542,-1.542,-1.542,-1.542,-1.542,-2.9877,-2.9697,-2.9493,-2.9246,-2.9021,-2.8975,-2.8975,-2.8975,-2.8975,-2.8975,-2.8975,-2.8975,-2.8929,-2.8952,-2.897,-2.8767,-2.8386,-2.8037,-2.7678,-2.7286,-2.6906,-2.6791,-2.6708,-2.6708,-2.6708,-2.6708,-2.6708,-2.6708,-2.6708,-2.6708,-2.6708,-2.659,-2.6227,-2.5726,-2.5221,-2.4657,-2.4158,-2.3752,-2.3595,-2.3595,-2.3595,-2.3595,-2.3595,-2.3595,-2.3595,-2.3595,-2.3595,-2.3551,-2.3508,-2.3465,-2.3551,-2.3551,-2.3551,-2.3595,-2.3595,-2.3421,-2.3009,-2.2081,-2.1334,-2.1028,-2.0497,-2.0144,-1.9952,-1.985,-1.9798,-1.9798,-1.9798,-1.9798,-1.9798,-1.9798,-1.9798,-1.9798,-1.9798,-1.9798,-1.9798,-1.9798,-1.9798,-1.9798,-1.9798,-1.9798,-1.9798,-1.9798,-1.9798,-1.9798,-1.9798,-1.9798,-1.9798,-1.9798,-1.9798,-1.9798,-1.9798,-1.9747,-1.9579,-1.9242,-1.8915,-1.8305,-1.7731,-1.718,-1.7191,-1.6968,-1.6968,-1.6866,-1.6255,-1.5806,-1.5584,-1.542,-1.542,-1.542,-1.542,-1.542,-1.542,-1.542,-1.542,-1.542,-1.542,-2.9893,-2.9678,-2.9493,-2.9246,-2.8998,-2.8975,-2.8975,-2.8975,-2.8975,-2.8975,-2.8975,-2.8975,-2.8975,-2.8975,-2.8975,-2.8905,-2.8626,-2.8255,-2.7908,-2.75,-2.7004,-2.6791,-2.6708,-2.6708,-2.6708,-2.6708,-2.6708,-2.6708,-2.6708,-2.6708,-2.6708,-2.6624,-2.6191,-2.5689,-2.5166,-2.4657,-2.4116,-2.3767,-2.3595,-2.3595,-2.3595,-2.3595,-2.3595,-2.3595,-2.3595,-2.3595,-2.3595,-2.3595,-2.3465,-2.3098,-2.3421,-2.3465,-2.2979,-2.3334,-2.3595,-2.3508,-2.3054,-2.2466,-2.2128,-2.1677,-2.1099,-2.0534,-2.0396,-2.0144,-2.0003,-1.9798,-1.9798,-1.9798,-1.9798,-1.9798,-1.9798,-1.9798,-1.9798,-1.9798,-1.9798,-1.9798,-1.9798,-1.9798,-1.9798,-1.9798,-1.9798,-1.9798,-1.9798,-1.9798,-1.9798,-1.9798,-1.9798,-1.9798,-1.9798,-1.9798,-1.9798,-1.9747,-1.9475,-1.9137,-1.8055,-1.7335,-1.6824,-1.6358,-1.6415,-1.6415,-1.6244,-1.6026,-1.569,-1.5526,-1.541,-1.542,-1.542,-1.542,-1.542,-1.542,-1.542,-1.542,-1.542,-1.542,-1.542,-2.9992,-2.9696,-2.957,-2.9332,-2.9021,-2.8975,-2.8975,-2.8975,-2.8975,-2.8975,-2.8975,-2.8975,-2.8975,-2.8975,-2.8994,-2.8905,-2.8658,-2.8156,-2.7794,-2.7457,-2.7036,-2.6825,-2.6708,-2.6708,-2.6708,-2.6708,-2.6708,-2.6708,-2.6708,-2.6708,-2.6708,-2.6624,-2.6104,-2.5577,-2.5067,-2.4471,-2.3948,-2.3709,-2.3595,-2.3595,-2.3595,-2.3595,-2.3595,-2.3595,-2.3595,-2.3595,-2.3595,-2.3595,-2.3377,-2.3113,-2.3508,-2.3465,-2.3113,-2.3421,-2.3595,-2.3551,-2.3334,-2.2725,-2.2193,-2.1866,-2.1245,-2.0683,-2.0446,-2.0156,-2.0003,-1.9798,-1.9798,-1.9798,-1.9798,-1.9798,-1.9798,-1.9798,-1.9798,-1.9798,-1.9798,-1.9798,-1.9798,-1.9798,-1.9798,-1.9798,-1.9798,-1.9798,-1.9798,-1.9798,-1.9798,-1.9798,-1.9798,-1.9798,-1.9798,-1.9798,-1.9798,-1.9798,-1.9411,-1.8967,-1.7838,-1.6903,-1.6599,-1.6244,-1.5864,-1.5806,-1.5642,-1.5584,-1.5526,-1.5468,-1.542,-1.542,-1.542,-1.542,-1.542,-1.542,-1.542,-1.542,-1.542,-1.542,-1.542,-3.0114,-2.9696,-2.9661,-2.9357,-2.9021,-2.8975,-2.8975,-2.8975,-2.8975,-2.8975,-2.8975,-2.8975,-2.8975,-2.8975,-2.8994,-2.8839,-2.8608,-2.8183,-2.789,-2.7378,-2.7051,-2.6841,-2.6808,-2.6725,-2.6708,-2.6708,-2.6708,-2.6708,-2.6708,-2.6708,-2.6708,-2.6624,-2.5872,-2.5373,-2.5105,-2.4348,-2.3864,-2.3638,-2.3595,-2.3595,-2.3595,-2.3595,-2.3595,-2.3595,-2.3595,-2.3595,-2.3595,-2.3595,-2.3595,-2.3595,-2.3595,-2.3551,-2.3551,-2.3551,-2.3595,-2.3595,-2.3508,-2.3084,-2.2515,-2.21,-2.1342,-2.062,-1.994,-1.9952,-1.9952,-1.9798,-1.9798,-1.9798,-1.9798,-1.9798,-1.9798,-1.9798,-1.9798,-1.9798,-1.9798,-1.9798,-1.9798,-1.9798,-1.9798,-1.9798,-1.9798,-1.9798,-1.9798,-1.9798,-1.9798,-1.9798,-1.9798,-1.9798,-1.9798,-1.9798,-1.9747,-1.9747,-1.9307,-1.8809,-1.7938,-1.7113,-1.6789,-1.6368,-1.5806,-1.5584,-1.569,-1.5584,-1.542,-1.542,-1.542,-1.542,-1.542,-1.542,-1.542,-1.542,-1.542,-1.542,-1.542,-1.542,-1.542,-2.9943,-2.9661,-2.9295,-2.9093,-2.9017,-2.8975,-2.8975,-2.8975,-2.8975,-2.8975,-2.8975,-2.8975,-2.8975,-2.8975,-2.8975,-2.8887,-2.8773,-2.8412,-2.8246,-2.7872,-2.7422,-2.7083,-2.7034,-2.6808,-2.6725,-2.6708,-2.6708,-2.6708,-2.6708,-2.6708,-2.6691,-2.6624,-2.5944,-2.5524,-2.5182,-2.4389,-2.3906,-2.3638,-2.3595,-2.3595,-2.3595,-2.3595,-2.3595,-2.3595,-2.3595,-2.3595,-2.3595,-2.3595,-2.3595,-2.3595,-2.3595,-2.3595,-2.3595,-2.3595,-2.3595,-2.3595,-2.3595,-2.3319,-2.295,-2.2483,-2.1819,-2.1245,-2.072,-2.0295,-2.0003,-1.9901,-1.9798,-1.9798,-1.9798,-1.9798,-1.9798,-1.9798,-1.9798,-1.9798,-1.9798,-1.9798,-1.9798,-1.9798,-1.9798,-1.9798,-1.9798,-1.9798,-1.9798,-1.9798,-1.9798,-1.9798,-1.9798,-1.9798,-1.9798,-1.9798,-1.9631,-1.9527,-1.9137,-1.8596,-1.7895,-1.7468,-1.7191,-1.6528,-1.5864,-1.5748,-1.5748,-1.5584,-1.542,-1.542,-1.542,-1.542,-1.542,-1.542,-1.542,-1.542,-1.542,-1.542,-1.542,-1.542,-1.542,-2.8927,-2.872,-2.8646,-2.8602,-2.8636,-2.8897,-2.8975,-2.8975,-2.8975,-2.8975,-2.8975,-2.8975,-2.8975,-2.8975,-2.8975,-2.8975,-2.8929,-2.8583,-2.8394,-2.8166,-2.7747,-2.7378,-2.7147,-2.6906,-2.6758,-2.6708,-2.6708,-2.6708,-2.6708,-2.6708,-2.6691,-2.6573,-2.6087,-2.5524,-2.5144,-2.4496,-2.3991,-2.3595,-2.3595,-2.3595,-2.3595,-2.3595,-2.3595,-2.3595,-2.3595,-2.3595,-2.3595,-2.3595,-2.3595,-2.3595,-2.3595,-2.3595,-2.3595,-2.3595,-2.3595,-2.3595,-2.3551,-2.3523,-2.3201,-2.2815,-2.2207,-2.1534,-2.1064,-2.0446,-1.9952,-1.9798,-1.9798,-1.9798,-1.9798,-1.9798,-1.9798,-1.9798,-1.9798,-1.9798,-1.9798,-1.9798,-1.9798,-1.9798,-1.9798,-1.9798,-1.9798,-1.9798,-1.9798,-1.9798,-1.9798,-1.9798,-1.9798,-1.9747,-1.9747,-1.9747,-1.9631,-1.9463,-1.9137,-1.8821,-1.8394,-1.795,-1.7567,-1.6845,-1.6026,-1.5806,-1.569,-1.5526,-1.542,-1.542,-1.542,-1.542,-1.542,-1.542,-1.542,-1.542,-1.542,-1.542,-1.542,-1.542,-1.542,-2.7788,-2.7561,-2.7827,-2.7958,-2.803,-2.8596,-2.8815,-2.8851,-2.8962,-2.8975,-2.8975,-2.8975,-2.8975,-2.8975,-2.8975,-2.8975,-2.8929,-2.8725,-2.8583,-2.8237,-2.7718,-2.747,-2.7178,-2.6906,-2.6758,-2.6708,-2.6708,-2.6708,-2.6708,-2.6708,-2.6657,-2.6505,-2.6016,-2.5373,-2.5012,-2.4471,-2.3921,-2.3794,-2.3709,-2.3595,-2.3595,-2.3595,-2.3595,-2.3595,-2.3595,-2.3595,-2.3595,-2.3595,-2.3595,-2.3595,-2.3595,-2.3595,-2.3595,-2.3595,-2.3595,-2.3595,-2.3595,-2.3275,-2.2875,-2.2589,-2.1833,-2.1175,-2.0894,-2.0446,-1.9952,-1.9798,-1.9798,-1.9798,-1.9798,-1.9798,-1.9798,-1.9798,-1.9798,-1.9798,-1.9798,-1.9798,-1.9798,-1.9798,-1.9798,-1.9798,-1.9798,-1.9798,-1.9798,-1.9798,-1.9798,-1.9798,-1.9747,-1.9747,-1.9695,-1.9631,-1.9579,-1.9463,-1.9294,-1.898,-1.8555,-1.8447,-1.8058,-1.7357,-1.6585,-1.6083,-1.569,-1.5526,-1.542,-1.542,-1.542,-1.542,-1.542,-1.542,-1.542,-1.542,-1.542,-1.542,-1.542,-1.542,-1.542,-2.7742,-2.7499,-2.7228,-2.7139,-2.7213,-2.7767,-2.8007,-2.8154,-2.8741,-2.8975,-2.8975,-2.8975,-2.8975,-2.8975,-2.8975,-2.8975,-2.8975,-2.8839,-2.8633,-2.8324,-2.7936,-2.7619,-2.7255,-2.6939,-2.6758,-2.6708,-2.6708,-2.6708,-2.6708,-2.6708,-2.6657,-2.659,-2.6573,-2.6104,-2.5652,-2.5028,-2.4405,-2.4116,-2.3752,-2.3595,-2.3595,-2.3595,-2.3595,-2.3595,-2.3595,-2.3595,-2.3595,-2.3595,-2.3595,-2.3595,-2.3595,-2.3595,-2.3595,-2.3595,-2.3595,-2.3595,-2.3595,-2.3246,-2.2875,-2.2406,-2.169,-2.0944,-2.0597,-2.0207,-1.985,-1.9798,-1.9798,-1.9798,-1.9798,-1.9798,-1.9798,-1.9798,-1.9798,-1.9798,-1.9798,-1.9798,-1.9798,-1.9798,-1.9798,-1.9798,-1.9798,-1.9798,-1.9798,-1.9798,-1.9798,-1.9747,-1.9619,-1.9567,-1.9125,-1.9242,-1.9463,-1.9294,-1.923,-1.8703,-1.8124,-1.8715,-1.8436,-1.7743,-1.7034,-1.6322,-1.5758,-1.5468,-1.542,-1.542,-1.542,-1.542,-1.542,-1.542,-1.542,-1.542,-1.542,-1.542,-1.542,-1.542,-1.542]},{"header":{"parameterUnit":"m.s-1","parameterCategory":1,"la1":31.0,"la2":29.5877,"lo1":-88.7671,"lo2":-86.6584,"dy":0.0162,"dx":0.0185,"nx":115,"ny":88,"refTime":"2024-07-12T12:00:00:Z","depth":0,"parameterNumber":3,"parameterNumberName":"V-component_of_WINDS"},"data":[0.0,0.0,0.0,0.0,0.0,0.0,0.0,0.0,0.0,0.0,0.0,0.0,0.0,0.0,0.0,0.0,0.0,0.0,0.0,0.0,0.0,0.0,0.0,0.0,0.0,0.0,0.0,0.0,0.0,0.0,0.0,0.0,0.0,0.0,0.0,0.0,0.0,0.0,0.0,0.0,0.0,0.0,0.0,0.0,0.0,0.0,0.0,0.0,0.0,0.0,0.0,0.0,0.0,0.0,0.0,0.0,0.0,0.0,0.0,0.0,0.0,0.0,0.0,0.0,0.0,0.0,0.0,0.0,0.0,0.0,0.0,0.0,0.0,0.0,0.0,0.0,0.0,0.0,0.0,0.0,0.0,0.0,0.0,0.0,0.0,0.0,0.0,0.0,0.0,0.0,0.0,0.0,0.0,0.0,0.0,0.0,0.0,0.0,0.0,0.0,0.0,0.0,0.0,0.0,0.0,0.0,0.0,0.0,0.0,0.0,0.0,0.0,0.0,0.0,0.0,0.0,0.0,0.0,0.0,0.0,0.0,0.0,0.0,0.0,0.0,0.0,0.0,0.0,0.0,0.0,0.0,0.0,0.0,0.0,0.0,0.0,0.0,0.0,0.0,0.0,0.0,0.0,0.0,0.0,0.0,0.0,0.0,0.0,0.0,0.0,0.0,0.0,0.0,0.0,0.0,0.0,0.0,0.0,0.0,0.0,0.0,0.0,0.0,0.0,0.0,0.0,0.0,0.0,0.0,0.0,0.0,0.0,0.0,0.0,0.0,0.0,0.0,0.0,0.0,0.0,0.0,0.0,0.0,0.0,0.0,0.0,0.0,0.0,0.0,0.0,0.0,0.0,0.0,0.0,0.0,0.0,0.0,0.0,0.0,0.0,0.0,0.0,0.0,0.0,0.0,0.0,0.0,0.0,0.0,0.0,0.0,0.0,0.0,0.0,0.0,0.0,0.0,0.0,0.0,0.0,0.0,0.0,0.0,0.0,0.0,0.0,0.0,0.0,0.0,0.0,0.0,0.0,0.0,0.0,0.0,0.0,0.0,0.0,0.0,0.0,0.0,0.0,0.0,0.0,0.0,0.0,0.0,0.0,0.0,0.0,0.0,0.0,0.0,0.0,0.0,0.0,0.0,0.0,0.0,0.0,0.0,0.0,0.0,0.0,0.0,0.0,0.0,0.0,0.0,0.0,0.0,0.0,0.0,0.0,0.0,0.0,0.0,0.0,0.0,0.0,0.0,0.0,0.0,0.0,0.0,0.0,0.0,0.0,0.0,0.0,0.0,0.0,0.0,0.0,0.0,0.0,0.0,0.0,0.0,0.0,0.0,0.0,0.0,0.0,0.0,0.0,0.0,0.0,0.0,0.0,0.0,0.0,0.0,0.0,0.0,0.0,0.0,0.0,0.0,0.0,0.0,0.0,0.0,0.0,0.0,0.0,0.0,0.0,0.0,0.0,0.0,0.0,0.0,0.0,0.0,0.0,0.0,0.0,0.0,0.0,0.0,0.0,0.0,0.0,0.0,0.0,0.0,0.0,0.0,0.0,0.0,0.0,0.0,0.0,0.0,0.0,0.0,0.0,0.0,0.0,0.0,0.0,0.0,0.0,0.0,0.0,0.0,0.0,0.0,0.0,0.0,0.0,0.0,0.0,0.0,0.0,0.0,0.0,0.0,0.0,0.0,0.0,0.0,0.0,0.0,0.0,0.0,0.0,0.0,0.0,0.0,0.0,0.0,0.0,0.0,0.0,0.0,0.0,0.0,0.0,0.0,0.0,0.0,0.0,0.0,0.0,0.0,0.0,0.0,0.0,0.0,0.0,0.0,0.0,0.0,0.0,0.0,0.0,0.0,0.0,0.0,0.0,0.0,0.0,0.0,0.0,0.0,0.0,0.0,0.0,0.0,0.0,0.0,0.0,0.0,0.0,0.0,0.0,0.0,0.0,0.0,0.0,0.0,0.0,0.0,0.0,0.0,0.0,0.0,0.0,0.0,0.0,0.0,0.0,0.0,0.0,0.0,0.0,0.0,0.0,0.0,0.0,0.0,0.0,0.0,0.0,0.0,0.0,0.0,0.0,0.0,0.0,0.0,0.0,0.0,0.0,0.0,0.0,0.0,0.0,0.0,0.0,0.0,0.0,0.0,0.0,0.0,0.0,0.0,0.0,0.0,0.0,0.0,0.0,0.0,0.0,0.0,0.0,0.0,0.0,0.0,0.0,0.0,0.0,0.0,0.0,0.0,0.0,0.0,0.0,0.0,0.0,0.0,0.0,0.0,0.0,0.0,0.0,0.0,0.0,0.0,0.0,0.0,0.0,0.0,0.0,0.0,0.0,0.0,0.0,0.0,0.0,0.0,0.0,0.0,0.0,0.0,0.0,0.0,0.0,0.0,0.0,0.0,0.0,0.0,0.0,0.0,0.0,0.0,0.0,0.0,0.0,0.0,0.0,0.0,0.0,0.0,0.0,0.0,0.0,0.0,0.0,0.0,0.0,0.0,0.0,0.0,0.0,0.0,0.0,0.0,0.0,0.0,0.0,0.0,0.0,0.0,0.0,0.0,0.0,0.0,0.0,0.0,0.0,0.0,0.0,0.0,0.0,0.0,0.0,0.0,0.0,0.0,0.0,0.0,0.0,0.0,0.0,0.0,0.0,0.0,0.0,0.0,0.0,0.0,0.0,0.0,0.0,0.0,0.0,0.0,0.0,0.0,0.0,0.0,0.0,0.0,0.0,0.0,0.0,0.0,0.0,0.0,0.0,0.0,0.0,0.0,0.0,0.0,0.0,0.0,0.0,0.0,0.0,0.0,0.0,0.0,0.0,0.0,0.0,0.0,0.0,0.0,0.0,0.0,0.0,0.0,0.0,0.0,0.0,0.0,0.0,0.0,0.0,0.0,0.0,0.0,0.0,0.0,0.0,0.0,0.0,0.0,0.0,0.0,0.0,0.0,0.0,0.0,0.0,0.0,0.0,0.0,0.0,0.0,0.0,0.0,0.0,0.0,0.0,0.0,0.0,0.0,0.0,0.0,0.0,0.0,0.0,0.0,0.0,0.0,0.0,0.0,0.0,0.0,0.0,0.0,0.0,0.0,0.0,0.0,0.0,0.0,0.0,0.0,0.0,0.0,0.0,0.0,0.0,0.0,0.0,0.0,0.0,0.0,0.0,0.0,0.0,0.0,0.0,0.0,0.0,0.0,0.0,0.0,0.0,0.0,0.0,0.0,0.0,0.0,0.0,0.0,0.0,0.0,0.0,0.0,0.0,0.0,0.0,0.0,0.0,0.0,0.0,0.0,0.0,0.0,0.0,0.0,0.0,0.0,0.0,0.0,0.0,0.0,0.0,0.0,0.0,0.0,0.0,0.0,0.0,0.0,0.0,0.0,0.0,0.0,0.0,0.0,0.0,0.0,0.0,0.0,0.0,0.0,0.0,0.0,0.0,0.0,0.0,0.0,0.0,0.0,0.0,0.0,0.0,0.0,0.0,0.0,0.0,0.0,0.0,0.0,0.0,0.0,0.0,0.0,0.0,0.0,0.0,0.0,0.0,0.0,0.0,0.0,0.0,0.0,0.0,0.0,0.0,0.0,0.0,0.0,0.0,0.0,0.0,0.0,0.0,0.0,0.0,0.0,0.0,0.0,0.0,0.0,0.0,0.0,0.0,0.0,0.0,0.0,0.0,0.0,0.0,0.0,0.0,0.0,0.0,0.0,0.0,0.0,0.0,0.0,0.0,0.0,0.0,0.0,0.0,0.0,0.0,0.0,0.0,0.0,0.0,0.0,0.0,0.0,0.0,0.0,0.0,0.0,0.0,0.0,0.0,0.0,0.0,0.0,0.0,0.0,0.0,0.0,0.0,0.0,0.0,0.0,0.0,0.0,0.0,0.0,0.0,0.0,0.0,0.0,0.0,0.0,0.0,0.0,0.0,0.0,0.0,0.0,0.0,0.0,0.0,0.0,0.0,0.0,0.0,0.0,0.0,0.0,0.0,0.0,0.0,0.0,0.0,0.0,0.0,0.0,0.0,0.0,0.0,0.0,0.0,0.0,0.0,0.0,0.0,0.0,0.0,0.0,0.0,0.0,0.0,0.0,0.0,0.0,0.0,0.0,0.0,0.0,0.0,0.0,0.0,0.0,0.0,0.0,0.0,0.0,0.0,0.0,0.0,0.0,0.0,0.0,0.0,0.0,0.0,0.0,0.0,0.0,0.0,0.0,0.0,0.0,0.0,0.0,0.0,0.0,0.0,0.0,0.0,0.0,0.0,0.0,0.0,-0.8216,0.0,0.0,0.0,0.0,0.0,0.0,0.0,0.0,0.0,0.0,0.0,0.0,0.0,0.0,0.0,0.0,0.0,0.0,0.0,0.0,0.0,0.0,0.0,0.0,0.0,0.0,0.0,0.0,0.0,0.0,0.0,0.0,0.0,0.0,0.0,0.0,0.0,0.0,0.0,0.0,0.0,0.0,0.0,0.0,0.0,0.0,0.0,0.0,0.0,0.0,0.0,0.0,0.0,0.0,0.0,0.0,0.0,0.0,0.0,0.0,0.0,0.0,0.0,0.0,0.0,0.0,0.0,0.0,0.0,0.0,0.0,0.0,0.0,0.0,0.0,0.0,0.0,0.0,0.0,0.0,0.0,0.0,0.0,0.0,0.0,0.0,0.0,0.0,0.0,0.0,0.0,0.0,0.0,0.0,0.0,0.0,0.0,0.0,0.0,0.0,0.0,0.0,0.0,0.0,0.0,0.0,0.0,0.0,0.0,0.0,-1.6751,-1.3951,-1.2274,-1.0931,-1.0101,0.0,0.0,0.0,0.0,0.0,0.0,0.0,0.0,0.0,0.0,0.0,0.0,0.0,0.0,0.0,0.0,0.0,0.0,0.0,0.0,0.0,0.0,0.0,0.0,0.0,0.0,0.0,0.0,0.0,0.0,0.0,0.0,0.0,0.0,0.0,0.0,0.0,0.0,0.0,0.0,0.0,0.0,0.0,0.0,0.0,0.0,0.0,0.0,0.0,0.0,0.0,0.0,0.0,0.0,0.0,0.0,0.0,0.0,0.0,0.0,0.0,0.0,0.0,0.0,0.0,0.0,0.0,0.0,0.0,0.0,0.0,0.0,0.0,0.0,0.0,0.0,0.0,0.0,0.0,0.0,0.0,0.0,0.0,0.0,0.0,0.0,0.0,0.0,0.0,0.0,0.0,0.0,0.0,0.0,0.0,0.0,0.0,0.0,0.0,0.0,0.0,0.0,0.0,0.0,0.0,0.0,0.0,0.0,0.0,0.0,0.0,0.0,-1.3218,-1.2586,-1.2558,0.0,0.0,0.0,0.0,0.0,0.0,0.0,0.0,0.0,0.0,0.0,0.0,0.0,0.0,0.0,0.0,0.0,0.0,0.0,0.0,0.0,0.0,0.0,0.0,0.0,0.0,0.0,0.0,0.0,0.0,0.0,0.0,0.0,0.0,0.0,0.0,0.0,0.0,0.0,0.0,0.0,0.0,0.0,0.0,0.0,0.0,0.0,0.0,0.0,0.0,0.0,0.0,0.0,0.0,0.0,0.0,0.0,0.0,0.0,0.0,0.0,0.0,0.0,0.0,0.0,0.0,0.0,0.0,0.0,0.0,0.0,0.0,0.0,0.0,0.0,0.0,0.0,0.0,0.0,0.0,0.0,0.0,0.0,0.0,0.0,0.0,0.0,0.0,0.0,0.0,0.0,0.0,0.0,0.0,0.0,0.0,0.0,0.0,0.0,0.0,0.0,0.0,0.0,0.0,0.0,0.0,0.0,0.0,0.0,0.0,-1.5449,-1.5515,-1.4352,0.0,-1.6015,0.0,0.0,0.0,0.0,0.0,0.0,0.0,0.0,0.0,0.0,0.0,0.0,0.0,0.0,0.0,0.0,0.0,0.0,0.0,0.0,0.0,0.0,0.0,0.0,0.0,0.0,0.0,0.0,0.0,0.0,0.0,0.0,0.0,0.0,0.0,0.0,0.0,0.0,0.0,0.0,0.0,0.0,0.0,0.0,0.0,0.0,0.0,0.0,0.0,0.0,0.0,0.0,0.0,0.0,0.0,0.0,0.0,0.0,0.0,0.0,0.0,0.0,0.0,0.0,0.0,0.0,0.0,0.0,0.0,0.0,0.0,0.0,0.0,0.0,0.0,0.0,0.0,0.0,0.0,0.0,0.0,0.0,0.0,0.0,0.0,0.0,0.0,0.0,0.0,0.0,0.0,0.0,0.0,0.0,0.0,0.0,0.0,0.0,0.0,0.0,0.0,0.0,0.0,0.0,0.0,0.0,0.0,0.0,0.0,0.0,0.0,-1.5254,-1.5385,-1.5712,0.0,0.0,0.0,0.0,0.0,0.0,0.0,0.0,0.0,0.0,0.0,0.0,0.0,0.0,0.0,0.0,0.0,0.0,0.0,0.0,0.0,0.0,0.0,0.0,0.0,0.0,0.0,0.0,0.0,0.0,0.0,0.0,0.0,0.0,0.0,0.0,0.0,0.0,0.0,0.0,0.0,0.0,0.0,0.0,0.0,0.0,0.0,0.0,0.0,0.0,0.0,0.0,0.0,0.0,0.0,0.0,0.0,0.0,0.0,0.0,0.0,0.0,0.0,0.0,0.0,0.0,0.0,0.0,0.0,0.0,0.0,0.0,0.0,0.0,0.0,0.0,0.0,0.0,0.0,0.0,0.0,0.0,0.0,0.0,0.0,0.0,0.0,0.0,0.0,0.0,0.0,0.0,0.0,0.0,0.0,0.0,0.0,0.0,0.0,0.0,0.0,0.0,0.0,0.0,0.0,0.0,0.0,0.0,0.0,0.0,-1.4382,0.0,-1.5106,-1.656,-1.7033,-1.6396,0.0,0.0,0.0,0.0,0.0,0.0,0.0,0.0,0.0,0.0,0.0,0.0,0.0,0.0,0.0,0.0,0.0,0.0,0.0,0.0,0.0,0.0,0.0,0.0,0.0,0.0,0.0,0.0,0.0,0.0,0.0,0.0,0.0,0.0,0.0,0.0,0.0,0.0,0.0,0.0,0.0,0.0,0.0,0.0,0.0,0.0,0.0,0.0,0.0,0.0,0.0,0.0,0.0,0.0,0.0,0.0,0.0,0.0,0.0,0.0,0.0,0.0,0.0,0.0,0.0,0.0,0.0,0.0,0.0,0.0,0.0,0.0,0.0,0.0,0.0,0.0,0.0,0.0,0.0,0.0,0.0,0.0,0.0,0.0,0.0,0.0,0.0,0.0,0.0,0.0,0.0,0.0,0.0,0.0,0.0,0.0,0.0,0.0,0.0,0.0,0.0,0.0,0.0,0.0,0.0,0.0,0.0,0.0,0.0,-1.3744,-1.3765,-1.5597,-1.7957,-1.8589,0.0,0.0,0.0,0.0,0.0,0.0,0.0,0.0,0.0,0.0,0.0,0.0,0.0,0.0,0.0,0.0,0.0,0.0,0.0,0.0,0.0,0.0,0.0,0.0,0.0,0.0,0.0,0.0,0.0,0.0,0.0,0.0,0.0,0.0,0.0,0.0,0.0,0.0,0.0,0.0,0.0,0.0,0.0,0.0,0.0,0.0,0.0,0.0,0.0,0.0,0.0,0.0,0.0,0.0,0.0,0.0,0.0,0.0,0.0,0.0,0.0,0.0,0.0,0.0,0.0,0.0,0.0,0.0,0.0,0.0,0.0,0.0,0.0,0.0,0.0,0.0,0.0,0.0,0.0,0.0,0.0,0.0,0.0,0.0,0.0,0.0,0.0,0.0,0.0,0.0,0.0,0.0,0.0,0.0,0.0,0.0,0.0,0.0,0.0,0.0,0.0,0.0,0.0,0.0,0.0,0.0,0.0,0.0,0.0,-1.3001,-1.3224,-1.4213,-1.5935,-1.6681,-1.7008,0.0,0.0,0.0,0.0,0.0,0.0,0.0,0.0,0.0,0.0,0.0,0.0,0.0,0.0,0.0,0.0,0.0,0.0,0.0,0.0,0.0,0.0,0.0,0.0,0.0,0.0,0.0,0.0,0.0,0.0,0.0,0.0,0.0,0.0,0.0,0.0,0.0,0.0,0.0,0.0,0.0,0.0,0.0,0.0,0.0,0.0,0.0,0.0,0.0,0.0,0.0,0.0,0.0,0.0,0.0,0.0,0.0,0.0,0.0,0.0,0.0,0.0,0.0,0.0,0.0,0.0,0.0,0.0,0.0,0.0,0.0,0.0,0.0,0.0,0.0,0.0,0.0,0.0,0.0,0.0,0.0,0.0,0.0,0.0,0.0,0.0,0.0,0.0,0.0,0.0,0.0,0.0,0.0,0.0,0.0,0.0,0.0,0.0,0.0,0.0,0.0,0.0,0.0,0.0,0.0,0.0,0.0,0.0,0.0,-1.1851,0.0,-1.4471,0.0,-1.5841,-1.6063,0.0,0.0,0.0,0.0,0.0,0.0,0.0,0.0,0.0,0.0,0.0,0.0,0.0,0.0,0.0,0.0,0.0,0.0,0.0,0.0,0.0,0.0,0.0,0.0,0.0,0.0,0.0,0.0,0.0,0.0,0.0,0.0,0.0,0.0,0.0,0.0,0.0,0.0,0.0,0.0,0.0,0.0,0.0,0.0,0.0,0.0,0.0,0.0,0.0,0.0,0.0,0.0,0.0,0.0,0.0,0.0,0.0,0.0,0.0,0.0,0.0,0.0,0.0,0.0,0.0,0.0,0.0,0.0,0.0,0.0,0.0,0.0,0.0,0.0,0.0,0.0,0.0,0.0,0.0,0.0,0.0,0.0,0.0,0.0,0.0,0.0,0.0,0.0,0.0,0.0,0.0,0.0,0.0,0.0,0.0,0.0,0.0,0.0,0.0,0.0,0.0,0.0,0.0,0.0,0.0,0.0,0.0,0.0,-1.2099,-1.1982,-1.3468,-1.4479,-1.4784,-1.5785,-1.597,0.0,0.0,0.0,0.0,0.0,0.0,0.0,0.0,0.0,0.0,0.0,0.0,0.0,0.0,0.0,0.0,0.0,0.0,0.0,0.0,0.0,0.0,0.0,0.0,0.0,0.0,0.0,0.0,0.0,0.0,0.0,0.0,0.0,0.0,0.0,0.0,0.0,0.0,0.0,0.0,0.0,0.0,0.0,0.0,0.0,0.0,0.0,0.0,0.0,0.0,0.0,0.0,0.0,0.0,0.0,0.0,0.0,0.0,0.0,0.0,0.0,0.0,0.0,0.0,0.0,0.0,0.0,0.0,0.0,0.0,0.0,0.0,0.0,0.0,0.0,0.0,0.0,0.0,0.0,0.0,0.0,0.0,0.0,0.0,0.0,0.0,0.0,0.0,0.0,0.0,0.0,0.0,0.0,0.0,0.0,0.0,0.0,0.0,0.0,0.0,0.0,0.0,0.0,0.0,0.0,0.0,0.0,0.0,0.0,-1.1612,-1.2806,-1.4059,-1.5127,-1.5137,-1.5111,0.0,0.0,0.0,0.0,0.0,0.0,0.0,0.0,0.0,0.0,0.0,0.0,0.0,0.0,0.0,0.0,0.0,0.0,0.0,0.0,0.0,0.0,0.0,0.0,0.0,0.0,0.0,0.0,0.0,0.0,0.0,0.0,0.0,0.0,0.0,0.0,0.0,0.0,0.0,0.0,0.0,0.0,0.0,0.0,0.0,0.0,0.0,0.0,0.0,0.0,0.0,0.0,0.0,0.0,0.0,0.0,0.0,0.0,0.0,0.0,0.0,0.0,0.0,0.0,0.0,0.0,0.0,0.0,0.0,0.0,0.0,0.0,0.0,0.0,0.0,0.0,0.0,0.0,0.0,0.0,0.0,0.0,0.0,0.0,0.0,0.0,0.0,0.0,0.0,0.0,0.0,0.0,0.0,0.0,0.0,0.0,0.0,0.0,0.0,0.0,0.0,0.0,0.0,0.0,0.0,0.0,0.0,0.0,0.0,-1.2091,-1.3007,-1.3921,-1.4944,-1.4498,-1.4404,-1.4684,0.0,0.0,0.0,0.0,0.0,0.0,0.0,0.0,0.0,0.0,0.0,0.0,0.0,0.0,0.0,0.0,0.0,0.0,0.0,0.0,0.0,0.0,0.0,0.0,0.0,0.0,0.0,0.0,0.0,0.0,0.0,0.0,0.0,0.0,0.0,0.0,0.0,0.0,0.0,0.0,0.0,0.0,0.0,0.0,0.0,0.0,0.0,0.0,0.0,0.0,0.0,0.0,0.0,0.0,0.0,0.0,0.0,0.0,0.0,0.0,0.0,0.0,0.0,0.0,0.0,0.0,0.0,0.0,0.0,0.0,0.0,0.0,0.0,0.0,0.0,0.0,0.0,0.0,0.0,0.0,0.0,0.0,0.0,0.0,0.0,0.0,0.0,0.0,0.0,0.0,0.0,0.0,0.0,0.0,0.0,0.0,0.0,0.0,0.0,0.0,0.0,0.0,0.0,0.0,0.0,0.0,0.0,0.0,-1.3247,-1.3828,-1.4269,-1.4417,-1.4096,-1.3876,0.0,0.0,0.0,0.0,0.0,0.0,0.0,0.0,0.0,0.0,0.0,0.0,0.0,0.0,0.0,0.0,0.0,0.0,0.0,0.0,0.0,0.0,0.0,0.0,0.0,0.0,0.0,0.0,0.0,0.0,0.0,0.0,0.0,0.0,0.0,0.0,0.0,0.0,0.0,0.0,0.0,0.0,0.0,0.0,0.0,0.0,0.0,0.0,0.0,0.0,0.0,0.0,0.0,0.0,0.0,0.0,0.0,0.0,0.0,0.0,0.0,0.0,0.0,0.0,0.0,0.0,0.0,0.0,0.0,0.0,0.0,0.0,0.0,0.0,0.0,0.0,0.0,0.0,0.0,0.0,0.0,0.0,0.0,0.0,0.0,0.0,0.0,0.0,0.0,0.0,0.0,0.0,0.0,0.0,0.0,0.0,0.0,0.0,0.0,0.0,0.0,0.0,0.0,0.0,0.0,0.0,0.0,0.0,0.0,-1.3834,-1.4429,-1.4832,-1.4822,-1.4444,-1.4313,0.0,0.0,0.0,0.0,0.0,0.0,0.0,0.0,0.0,0.0,0.0,0.0,0.0,0.0,0.0,0.0,0.0,0.0,0.0,0.0,0.0,0.0,0.0,0.0,0.0,0.0,0.0,0.0,0.0,0.0,0.0,0.0,0.0,0.0,0.0,0.0,0.0,0.0,0.0,0.0,0.0,0.0,0.0,0.0,0.0,0.0,0.0,0.0,0.0,0.0,0.0,0.0,0.0,0.0,0.0,0.0,0.0,0.0,0.0,0.0,0.0,0.0,0.0,0.0,0.0,0.0,0.0,0.0,0.0,0.0,0.0,0.0,0.0,0.0,0.0,0.0,0.0,0.0,0.0,0.0,0.0,0.0,0.0,0.0,0.0,0.0,0.0,0.0,0.0,0.0,0.0,0.0,0.0,0.0,0.0,0.0,0.0,0.0,0.0,0.0,0.0,0.0,0.0,0.0,0.0,0.0,0.0,0.0,-1.3964,-1.4255,-1.4963,-1.5331,-1.5324,-1.4723,-1.4531,0.0,0.0,0.0,0.0,0.0,0.0,0.0,0.0,0.0,0.0,0.0,0.0,0.0,0.0,0.0,0.0,0.0,0.0,0.0,0.0,0.0,0.0,0.0,0.0,0.0,0.0,0.0,0.0,0.0,0.0,0.0,0.0,0.0,0.0,0.0,0.0,0.0,0.0,0.0,0.0,0.0,0.0,0.0,0.0,0.0,0.0,0.0,0.0,0.0,0.0,0.0,0.0,0.0,0.0,0.0,0.0,0.0,0.0,0.0,0.0,0.0,0.0,0.0,0.0,0.0,0.0,0.0,0.0,0.0,0.0,0.0,0.0,0.0,0.0,0.0,0.0,0.0,0.0,0.0,0.0,0.0,0.0,0.0,0.0,0.0,0.0,0.0,0.0,0.0,0.0,0.0,0.0,0.0,0.0,0.0,0.0,0.0,0.0,0.0,0.0,0.0,0.0,0.0,0.0,0.0,0.0,0.0,0.0,-1.4939,-1.4556,-1.5391,-1.5825,-1.5798,-1.4977,-1.466,0.0,0.0,0.0,0.0,0.0,0.0,0.0,0.0,0.0,0.0,0.0,0.0,0.0,0.0,0.0,0.0,0.0,0.0,0.0,0.0,0.0,0.0,0.0,0.0,0.0,0.0,0.0,0.0,0.0,0.0,0.0,0.0,0.0,0.0,0.0,0.0,0.0,0.0,0.0,0.0,0.0,0.0,0.0,0.0,0.0,0.0,0.0,0.0,0.0,0.0,0.0,0.0,0.0,0.0,0.0,0.0,0.0,0.0,0.0,0.0,0.0,0.0,0.0,0.0,0.0,0.0,0.0,0.0,0.0,0.0,0.0,0.0,0.0,0.0,0.0,0.0,0.0,0.0,0.0,0.0,0.0,0.0,0.0,0.0,0.0,0.0,0.0,0.0,0.0,0.0,0.0,0.0,0.0,0.0,0.0,0.0,0.0,0.0,0.0,0.0,0.0,0.0,0.0,0.0,0.0,0.0,0.0,0.0,-1.5261,-1.4945,-1.5498,-1.5825,-1.5825,-1.4977,-1.4775,0.0,0.0,0.0,0.0,0.0,0.0,0.0,0.0,0.0,0.0,0.0,0.0,0.0,0.0,0.0,0.0,0.0,0.0,0.0,0.0,0.0,0.0,0.0,0.0,0.0,0.0,0.0,0.0,0.0,0.0,0.0,0.0,0.0,0.0,0.0,0.0,0.0,0.0,0.0,0.0,0.0,0.0,0.0,0.0,0.0,0.0,0.0,0.0,-2.1843,0.0,0.0,0.0,0.0,0.0,0.0,0.0,0.0,0.0,0.0,0.0,0.0,0.0,0.0,0.0,0.0,0.0,0.0,0.0,0.0,0.0,0.0,0.0,0.0,0.0,0.0,0.0,0.0,0.0,0.0,0.0,0.0,0.0,0.0,0.0,0.0,0.0,0.0,0.0,0.0,0.0,0.0,0.0,0.0,0.0,0.0,0.0,0.0,0.0,0.0,0.0,0.0,0.0,0.0,0.0,0.0,0.0,0.0,0.0,-1.549,-1.5241,-1.5598,-1.5825,-1.5805,-1.577,-1.5709,0.0,0.0,0.0,0.0,0.0,0.0,0.0,0.0,0.0,0.0,0.0,0.0,0.0,0.0,0.0,0.0,0.0,0.0,0.0,0.0,0.0,0.0,0.0,0.0,0.0,0.0,0.0,0.0,0.0,0.0,0.0,0.0,0.0,0.0,0.0,0.0,0.0,0.0,0.0,0.0,0.0,0.0,0.0,0.0,0.0,0.0,0.0,0.0,0.0,0.0,0.0,0.0,0.0,0.0,0.0,0.0,0.0,0.0,0.0,0.0,0.0,0.0,0.0,0.0,0.0,0.0,0.0,0.0,0.0,0.0,0.0,0.0,0.0,0.0,0.0,0.0,0.0,0.0,0.0,0.0,0.0,0.0,0.0,0.0,0.0,0.0,0.0,0.0,0.0,0.0,0.0,0.0,0.0,0.0,0.0,0.0,0.0,0.0,0.0,0.0,0.0,0.0,0.0,0.0,0.0,0.0,0.0,-1.5731,-1.5668,-1.5523,-1.5698,-1.592,-1.6103,-1.6974,-1.6978,-1.5936,0.0,0.0,0.0,0.0,0.0,0.0,0.0,0.0,0.0,0.0,0.0,0.0,0.0,0.0,0.0,0.0,0.0,0.0,0.0,0.0,0.0,0.0,0.0,0.0,0.0,0.0,0.0,0.0,0.0,0.0,0.0,0.0,0.0,0.0,0.0,0.0,0.0,0.0,-1.6611,-1.4676,0.0,0.0,0.0,0.0,0.0,0.0,0.0,0.0,-2.4503,0.0,0.0,0.0,0.0,0.0,0.0,0.0,0.0,0.0,0.0,0.0,0.0,0.0,0.0,0.0,0.0,0.0,0.0,0.0,0.0,0.0,0.0,0.0,0.0,0.0,0.0,0.0,0.0,0.0,0.0,0.0,0.0,0.0,0.0,0.0,0.0,0.0,0.0,0.0,0.0,0.0,0.0,0.0,0.0,0.0,0.0,0.0,0.0,0.0,0.0,0.0,0.0,0.0,0.0,0.0,0.0,-1.7848,-1.6165,-1.5426,-1.5718,-1.5805,-1.6292,-1.7397,-1.8159,-1.8102,-1.7197,0.0,0.0,0.0,0.0,0.0,0.0,0.0,0.0,0.0,0.0,0.0,0.0,0.0,0.0,0.0,0.0,0.0,0.0,0.0,0.0,0.0,0.0,0.0,0.0,0.0,0.0,0.0,0.0,0.0,0.0,0.0,0.0,0.0,0.0,0.0,0.0,0.0,0.0,0.0,-1.5427,-1.5129,0.0,0.0,0.0,0.0,0.0,0.0,0.0,0.0,-2.6565,0.0,0.0,0.0,0.0,0.0,0.0,0.0,0.0,0.0,0.0,0.0,0.0,0.0,0.0,0.0,0.0,0.0,0.0,0.0,0.0,0.0,0.0,0.0,0.0,0.0,0.0,0.0,0.0,0.0,0.0,0.0,0.0,0.0,0.0,0.0,0.0,0.0,0.0,0.0,0.0,0.0,0.0,0.0,0.0,0.0,0.0,0.0,0.0,0.0,0.0,0.0,0.0,0.0,0.0,0.0,-1.684,-1.586,-1.5397,-1.5792,-1.648,-1.7037,-1.7677,-1.8603,-1.862,0.0,0.0,0.0,0.0,0.0,0.0,0.0,0.0,0.0,0.0,0.0,0.0,0.0,0.0,0.0,0.0,0.0,0.0,0.0,0.0,0.0,0.0,0.0,0.0,0.0,0.0,0.0,0.0,0.0,0.0,0.0,0.0,0.0,0.0,0.0,0.0,0.0,0.0,0.0,0.0,-1.6078,-1.5635,-1.6745,0.0,0.0,0.0,0.0,0.0,0.0,-2.6695,-2.8158,0.0,0.0,0.0,0.0,0.0,0.0,0.0,0.0,0.0,0.0,0.0,0.0,0.0,0.0,0.0,0.0,0.0,0.0,0.0,0.0,0.0,0.0,0.0,0.0,0.0,0.0,0.0,0.0,0.0,0.0,0.0,0.0,0.0,0.0,0.0,0.0,0.0,0.0,0.0,0.0,0.0,0.0,0.0,0.0,0.0,0.0,0.0,0.0,0.0,0.0,0.0,0.0,0.0,0.0,0.0,-1.5523,-1.5276,-1.5423,-1.6081,-1.7095,-1.7963,-1.8395,-1.905,-1.8904,0.0,0.0,0.0,0.0,0.0,0.0,0.0,0.0,0.0,0.0,0.0,0.0,0.0,0.0,0.0,0.0,0.0,0.0,0.0,0.0,0.0,0.0,0.0,0.0,0.0,0.0,0.0,0.0,0.0,0.0,0.0,0.0,0.0,0.0,0.0,0.0,0.0,0.0,0.0,0.0,0.0,-1.6668,-1.7713,-1.8572,0.0,0.0,0.0,0.0,-2.6987,-2.8374,0.0,0.0,0.0,0.0,0.0,0.0,0.0,0.0,0.0,0.0,0.0,0.0,0.0,0.0,0.0,0.0,0.0,0.0,0.0,0.0,0.0,0.0,0.0,0.0,0.0,0.0,0.0,0.0,0.0,0.0,0.0,0.0,0.0,0.0,0.0,0.0,0.0,0.0,0.0,0.0,0.0,0.0,0.0,0.0,0.0,0.0,0.0,0.0,0.0,0.0,0.0,0.0,0.0,0.0,0.0,0.0,-1.5216,-1.454,-1.5133,-1.6911,-1.7435,-1.8688,-2.0828,-1.9894,-1.9311,0.0,0.0,0.0,0.0,0.0,0.0,0.0,0.0,0.0,0.0,0.0,0.0,0.0,0.0,0.0,0.0,0.0,0.0,0.0,0.0,0.0,0.0,0.0,0.0,0.0,0.0,0.0,0.0,0.0,0.0,0.0,0.0,0.0,0.0,0.0,0.0,0.0,0.0,0.0,0.0,0.0,-1.9898,-1.9474,-2.1177,-2.2928,0.0,0.0,-2.8655,-2.8785,-3.0871,0.0,0.0,0.0,0.0,0.0,0.0,0.0,0.0,0.0,0.0,0.0,0.0,0.0,0.0,0.0,0.0,0.0,0.0,0.0,0.0,0.0,0.0,0.0,0.0,0.0,0.0,0.0,0.0,0.0,0.0,0.0,0.0,0.0,0.0,0.0,0.0,0.0,0.0,0.0,0.0,0.0,0.0,0.0,0.0,0.0,0.0,0.0,0.0,0.0,0.0,0.0,0.0,0.0,0.0,0.0,-1.4206,-1.5184,-1.5412,-1.6031,-1.7229,-1.866,-1.9898,-2.095,-2.0098,-1.9431,0.0,0.0,0.0,0.0,0.0,0.0,0.0,0.0,0.0,0.0,0.0,0.0,0.0,0.0,0.0,0.0,0.0,0.0,0.0,0.0,0.0,0.0,0.0,0.0,0.0,0.0,0.0,0.0,0.0,0.0,0.0,0.0,0.0,0.0,0.0,0.0,0.0,0.0,0.0,0.0,0.0,0.0,-2.1062,-2.2327,0.0,0.0,0.0,-2.9277,-2.9782,0.0,0.0,0.0,0.0,0.0,0.0,0.0,0.0,0.0,0.0,0.0,0.0,0.0,0.0,0.0,0.0,0.0,0.0,0.0,0.0,0.0,0.0,0.0,0.0,0.0,0.0,0.0,0.0,0.0,0.0,0.0,0.0,0.0,0.0,0.0,0.0,0.0,0.0,0.0,0.0,0.0,0.0,0.0,0.0,0.0,0.0,0.0,0.0,0.0,0.0,0.0,0.0,0.0,0.0,0.0,0.0,0.0,-1.5299,-1.6085,-1.6931,-1.7777,-1.9548,-2.0657,-2.0992,-2.0375,0.0,0.0,0.0,0.0,0.0,0.0,0.0,0.0,0.0,0.0,0.0,0.0,0.0,0.0,0.0,0.0,0.0,0.0,0.0,0.0,0.0,0.0,0.0,0.0,0.0,0.0,0.0,-1.8356,0.0,0.0,0.0,0.0,0.0,0.0,0.0,0.0,0.0,0.0,0.0,0.0,0.0,0.0,-2.1886,-2.2535,-2.3999,-2.5456,0.0,0.0,-3.0388,-3.1156,-3.349,-3.4887,0.0,0.0,0.0,0.0,0.0,0.0,0.0,0.0,0.0,0.0,0.0,0.0,0.0,0.0,0.0,0.0,0.0,0.0,0.0,0.0,0.0,0.0,0.0,0.0,0.0,0.0,0.0,0.0,0.0,0.0,0.0,0.0,0.0,0.0,0.0,0.0,0.0,0.0,0.0,0.0,0.0,0.0,0.0,0.0,0.0,0.0,0.0,0.0,0.0,0.0,0.0,0.0,0.0,0.0,0.0,-1.5624,-1.6008,-1.7239,-1.9368,-1.9799,-2.0605,-2.1738,-2.1006,-1.9746,0.0,0.0,0.0,0.0,0.0,0.0,0.0,0.0,0.0,0.0,0.0,0.0,0.0,0.0,0.0,0.0,0.0,0.0,0.0,0.0,0.0,0.0,0.0,0.0,0.0,0.0,0.0,0.0,0.0,0.0,0.0,0.0,0.0,0.0,0.0,0.0,0.0,0.0,0.0,0.0,0.0,-2.4475,-2.393,-2.6899,-2.9432,0.0,0.0,-3.2883,-3.3462,-3.5842,-3.673,-3.4335,0.0,0.0,0.0,0.0,0.0,0.0,0.0,0.0,0.0,0.0,0.0,0.0,0.0,0.0,0.0,0.0,0.0,0.0,0.0,0.0,0.0,0.0,0.0,0.0,0.0,0.0,0.0,0.0,0.0,0.0,0.0,0.0,0.0,0.0,0.0,0.0,0.0,0.0,0.0,0.0,0.0,0.0,0.0,0.0,0.0,0.0,0.0,0.0,0.0,0.0,0.0,0.0,0.0,-1.504,-1.6136,-1.7269,-1.846,-1.9616,-2.0363,-2.0967,-2.1484,-2.0889,-1.9766,0.0,0.0,0.0,0.0,0.0,0.0,0.0,0.0,0.0,0.0,0.0,0.0,0.0,0.0,0.0,0.0,0.0,0.0,0.0,0.0,0.0,0.0,0.0,0.0,0.0,0.0,0.0,0.0,-1.8255,-1.8469,-1.9479,0.0,0.0,0.0,0.0,0.0,0.0,0.0,0.0,0.0,0.0,-2.5741,-2.6807,-2.9293,0.0,0.0,-3.3115,-3.4635,-3.5077,-3.6258,-3.6662,-3.5091,-3.5244,0.0,0.0,0.0,0.0,0.0,0.0,0.0,0.0,0.0,0.0,0.0,0.0,0.0,0.0,0.0,0.0,0.0,0.0,0.0,0.0,0.0,0.0,0.0,0.0,0.0,0.0,0.0,0.0,0.0,0.0,0.0,0.0,0.0,0.0,0.0,0.0,0.0,0.0,0.0,0.0,0.0,0.0,0.0,0.0,0.0,0.0,0.0,0.0,0.0,0.0,0.0,0.0,-1.577,-1.6688,-1.8243,-1.9332,-1.9848,-2.0617,-2.1184,-2.1401,-2.0879,-2.0054,0.0,0.0,0.0,0.0,0.0,0.0,0.0,0.0,0.0,0.0,0.0,0.0,0.0,0.0,0.0,0.0,0.0,0.0,0.0,0.0,0.0,0.0,0.0,0.0,0.0,0.0,0.0,0.0,-1.8817,-1.9252,-2.0479,0.0,0.0,0.0,0.0,0.0,0.0,0.0,0.0,0.0,0.0,-2.7562,-2.9283,-3.1038,-3.235,-3.2662,-3.414,-3.5469,-3.5885,-3.6505,-3.6705,-3.5912,0.0,0.0,0.0,0.0,0.0,0.0,0.0,0.0,0.0,0.0,0.0,0.0,0.0,0.0,0.0,0.0,0.0,0.0,0.0,0.0,0.0,0.0,0.0,0.0,0.0,0.0,0.0,0.0,0.0,0.0,-1.099,0.0,0.0,0.0,0.0,0.0,0.0,0.0,0.0,0.0,0.0,0.0,0.0,0.0,0.0,0.0,0.0,0.0,0.0,0.0,0.0,0.0,0.0,-1.6248,-1.7366,-1.8499,-1.952,-2.0508,-2.0586,-2.1108,-2.1918,-2.1078,-2.0624,-2.0733,0.0,0.0,0.0,0.0,0.0,0.0,0.0,0.0,0.0,0.0,0.0,0.0,0.0,0.0,0.0,0.0,0.0,0.0,0.0,0.0,0.0,0.0,0.0,0.0,0.0,0.0,-1.8259,-1.9506,-2.0613,0.0,0.0,0.0,0.0,0.0,0.0,0.0,0.0,0.0,0.0,-2.7478,-3.012,-3.1085,-3.2092,-3.3169,-3.4107,-3.4721,-3.5251,-3.5856,-3.6766,-3.721,0.0,0.0,0.0,0.0,0.0,0.0,0.0,0.0,0.0,0.0,0.0,0.0,0.0,0.0,0.0,0.0,0.0,0.0,0.0,0.0,0.0,0.0,0.0,0.0,0.0,0.0,0.0,-1.3072,-1.2888,0.0,0.0,0.0,0.0,0.0,0.0,0.0,0.0,0.0,0.0,0.0,-1.6285,-1.7551,0.0,0.0,0.0,0.0,0.0,0.0,0.0,0.0,0.0,0.0,0.0,0.0,-1.6881,-1.7832,-1.8969,-1.988,-2.0557,-2.1221,-2.1659,-2.1962,-2.2339,-2.2171,-2.1423,0.0,0.0,0.0,0.0,0.0,0.0,0.0,0.0,0.0,0.0,0.0,0.0,0.0,0.0,0.0,0.0,0.0,0.0,0.0,0.0,0.0,0.0,0.0,0.0,0.0,-1.7496,0.0,0.0,0.0,0.0,0.0,0.0,0.0,0.0,0.0,0.0,0.0,-2.4923,-2.8016,-2.9443,-3.0981,-3.2946,-3.4176,-3.5092,0.0,0.0,0.0,0.0,0.0,0.0,0.0,0.0,0.0,0.0,0.0,0.0,0.0,0.0,-3.5096,-3.1485,-3.126,-3.1718,-3.1811,0.0,0.0,0.0,0.0,0.0,0.0,0.0,0.0,0.0,0.0,0.0,0.0,0.0,0.0,-1.4567,0.0,-1.4024,0.0,0.0,0.0,0.0,0.0,0.0,0.0,0.0,-1.707,-1.7802,-1.7952,-1.8997,-1.9545,0.0,-2.0586,-1.9553,0.0,0.0,0.0,0.0,0.0,0.0,0.0,0.0,-1.7236,-1.7822,-1.9053,-2.0053,-2.0827,-2.1507,-2.2158,-2.2977,-2.3621,-2.3384,-2.2308,-2.1139,-2.014,0.0,0.0,0.0,0.0,0.0,0.0,0.0,0.0,0.0,0.0,0.0,0.0,0.0,0.0,0.0,0.0,0.0,0.0,0.0,0.0,0.0,0.0,0.0,-1.8788,0.0,0.0,0.0,0.0,0.0,0.0,0.0,0.0,0.0,-2.3891,-2.5355,-2.751,-3.0373,-3.1562,-3.2669,-3.4325,0.0,0.0,0.0,0.0,0.0,0.0,0.0,-3.6492,-3.6507,-3.6507,-3.6731,-3.7389,-3.8003,-3.8616,-3.9305,0.0,0.0,-3.4687,-3.4636,-3.5196,-3.5281,-3.5856,-3.6546,-3.7157,-3.7565,-3.768,0.0,0.0,0.0,0.0,0.0,0.0,0.0,0.0,-1.7207,-1.7064,0.0,-1.576,0.0,0.0,0.0,0.0,0.0,-1.6561,0.0,0.0,-1.9893,-2.0312,-2.0007,-2.0703,-2.0714,-2.0053,-2.1261,-2.1297,-2.0286,-2.1422,0.0,0.0,0.0,0.0,0.0,0.0,-1.7439,-1.7517,-1.8773,-2.0038,-2.1356,-2.1512,-2.2672,-2.4886,-2.4841,-2.4341,-2.3352,-2.2665,-2.2071,-2.1518,-2.0439,0.0,0.0,0.0,0.0,0.0,0.0,0.0,0.0,0.0,0.0,0.0,0.0,0.0,0.0,0.0,0.0,0.0,0.0,0.0,0.0,-2.0563,0.0,0.0,0.0,0.0,0.0,0.0,0.0,0.0,0.0,0.0,-2.5489,-2.8288,-3.0649,-3.1259,0.0,0.0,0.0,0.0,-3.5878,-3.5642,-3.5579,-3.5609,-3.5654,-3.6148,-3.6926,-3.8123,0.0,0.0,-3.932,-3.8945,-3.8811,-3.9454,-4.0157,-4.0277,-3.9561,-3.9235,-3.9352,-3.9397,-3.9354,-3.9488,-3.9521,-3.9624,-3.9397,-1.8584,0.0,0.0,0.0,0.0,-1.7148,-1.7373,-1.7656,-1.7773,-1.7598,-1.7158,-1.6602,0.0,0.0,0.0,0.0,0.0,0.0,-1.818,-1.9121,-1.9795,-2.0195,-2.0371,-2.0678,-2.0964,-2.1388,-2.1776,-2.2153,-2.2529,-2.2894,-2.1597,-1.8825,0.0,0.0,0.0,0.0,-1.8142,-1.8792,-2.0016,-2.1177,-2.2265,-2.2999,-2.4248,-2.6013,-2.5253,-2.4678,-2.4394,-2.338,-2.2648,-2.2096,-2.1393,0.0,0.0,0.0,0.0,0.0,0.0,0.0,0.0,0.0,0.0,0.0,0.0,0.0,0.0,0.0,0.0,0.0,0.0,0.0,-1.9388,-2.0426,-2.1283,0.0,0.0,0.0,0.0,0.0,0.0,0.0,0.0,0.0,-2.9034,-2.9726,-3.0891,0.0,0.0,-3.4608,-3.5228,-3.5887,-3.6446,-3.682,0.0,0.0,0.0,-3.733,-3.7255,-3.7629,-3.8482,-3.9349,-4.0023,-4.0726,-4.1444,-4.2073,-4.2372,-4.2417,-4.2207,-4.1429,-4.1025,-4.1399,-4.1519,-4.1713,-4.2052,-4.219,-4.1983,-1.9727,-1.8955,-1.8203,-1.7881,-1.79,-1.8057,-1.8281,-1.8525,-1.8691,-1.8623,-1.835,-1.7754,-1.71,-1.6426,-1.6084,0.0,0.0,0.0,-1.8984,-1.9814,-2.0059,-2.0312,-2.0557,-2.0576,-2.0934,-2.1441,-2.1441,-2.1952,-2.2914,-2.2655,-2.182,-2.0333,0.0,0.0,-1.7809,-1.806,-1.847,-1.9005,-1.9931,-2.1006,-2.2192,-2.3857,-2.5124,-2.5787,-2.5172,-2.472,-2.4494,-2.3566,-2.3088,-2.2975,-2.2234,-2.1506,0.0,0.0,0.0,0.0,0.0,0.0,0.0,0.0,0.0,0.0,0.0,-2.0035,-1.8409,0.0,0.0,0.0,-1.9553,-2.0696,-2.172,-2.2378,0.0,0.0,0.0,0.0,0.0,0.0,0.0,-2.8975,-2.988,-3.0556,-3.0872,-3.1082,-3.1759,-3.3288,-3.4433,-3.5256,-3.5614,0.0,-3.727,-3.736,-3.7389,-3.7539,-3.7928,-3.7883,-3.7898,-3.8167,-3.932,-4.0277,-4.0726,-4.1669,-4.2566,-4.315,-4.3344,-4.3344,-4.3344,-4.2671,-4.2252,-4.2656,-4.2746,-4.2895,-4.3269,-4.3344,-4.315,-2.0576,-2.0469,-1.9277,-1.8769,-1.8779,-1.917,-1.9336,-1.9375,-1.9785,-1.9941,-1.9853,-1.9053,-1.8457,-1.8008,-1.7236,0.0,-1.875,-1.9092,-1.9687,-2.0508,-2.0508,-2.0518,-2.0518,-2.0547,-2.0576,-2.0576,-2.0576,-2.1001,-2.1866,-2.1395,-2.1362,-2.1702,-2.143,-2.0369,-1.8648,-1.8564,-1.8564,-1.8606,-1.9123,-2.0149,-2.1653,-2.4293,-2.5423,-2.4921,-2.4845,-2.4569,-2.4029,-2.3439,-2.3401,-2.3929,-2.2962,-2.2372,-2.2309,0.0,0.0,0.0,0.0,0.0,0.0,0.0,0.0,0.0,0.0,0.0,0.0,0.0,0.0,0.0,-2.1525,0.0,-2.5557,-2.5762,0.0,0.0,0.0,-2.7303,-2.8936,-2.958,-3.0143,-3.0586,0.0,0.0,-3.1499,0.0,-3.2961,-3.3564,-3.5391,-3.6389,-3.5967,-3.7203,-3.8102,-3.7575,-3.755,-3.7584,-3.7778,-3.8153,-3.8661,-3.9215,-4.0472,-4.116,-4.1265,-4.1878,-4.2551,-4.3105,-4.3284,-4.3344,-4.3344,-4.3284,-4.3344,-4.3299,-4.3314,-4.3329,-4.3344,-4.3344,-4.3165,-2.0576,-2.0537,-2.0234,-1.9912,-1.9619,-1.9717,-1.9766,-1.9805,-2.0234,-2.0225,-1.9873,-1.9365,-1.8896,-1.8407,-1.8202,-1.864,-1.959,-1.9033,-1.9258,-2.0049,-2.0068,-2.0068,-2.0088,-2.041,-2.0576,-2.0576,-2.0576,-2.0712,-2.0924,-2.0834,-2.0462,-1.9929,-2.0132,-1.9653,-1.8574,-1.826,-1.8322,-1.8606,-1.9694,-2.1327,-2.3475,-2.5333,-2.6,-2.5423,-2.5034,-2.4556,-2.4017,-2.3439,-2.3401,-2.3941,-2.3326,-2.2937,-2.2924,-2.1255,0.0,0.0,0.0,0.0,0.0,0.0,0.0,0.0,0.0,-2.1666,-1.9622,0.0,-2.1504,0.0,-2.3869,-2.6002,-2.6816,-2.7268,0.0,0.0,-2.8762,-2.895,-3.0622,-3.0918,-3.1072,-3.1223,-3.1687,-3.2031,-3.2027,-3.2235,-3.2536,-3.3178,-3.4245,-3.5127,-3.579,-3.6618,-3.7434,-3.8043,-3.8537,-3.8945,-3.8901,-3.9065,-3.9215,-3.9394,-4.0098,-4.0621,-4.0636,-4.1594,-4.2402,-4.2611,-4.3015,-4.3299,-4.3344,-4.3344,-4.3344,-4.3344,-4.3344,-4.3344,-4.3344,-4.3329,-4.3284,-2.0576,-2.0576,-2.0576,-2.0312,-1.9922,-2.0117,-2.0215,-2.0225,-2.0459,-2.043,-2.0185,-1.9746,-1.9434,-1.9209,-1.9209,-1.9355,-1.9619,-1.9541,-1.9648,-1.9912,-1.9912,-2.0019,-2.0195,-2.0059,-2.0088,-2.0264,-2.0088,-2.0,-2.0,-1.999,-1.9756,-1.9287,-1.9324,-1.8957,-1.8289,-1.8082,-1.8122,-1.8302,-1.9404,-2.1261,-2.368,-2.4881,-2.516,-2.4493,-2.4469,-2.3966,-2.2912,-2.2573,-2.2673,-2.3201,-2.2711,-2.2636,-2.3002,-2.1568,-2.0514,0.0,0.0,0.0,0.0,0.0,0.0,0.0,0.0,0.0,0.0,0.0,-2.346,-2.3969,-2.6164,-2.7783,-2.8348,-2.89,-2.9666,-3.0758,-3.0583,-3.0809,-3.2041,-3.216,-3.2139,-3.2139,-3.2403,-3.2582,-3.2585,-3.3018,-3.3425,-3.3746,-3.4567,-3.5391,-3.6031,-3.7112,-3.8208,-3.8778,-3.9145,-3.9424,-3.9424,-3.9424,-3.9424,-3.9469,-3.9978,-4.0412,-4.0427,-4.1235,-4.2013,-4.2312,-4.2719,-4.297,-4.3254,-4.3344,-4.3344,-4.3344,-4.3344,-4.3225,-4.297,-4.3135,-4.3269,-2.0401,-2.0401,-2.0566,-2.0352,-2.0019,-2.041,-2.0498,-2.04,-2.04,-2.04,-2.0381,-2.0117,-1.9971,-1.9912,-1.9912,-1.9746,-1.9502,-2.0183,-2.0195,-1.9834,-1.9834,-2.001,-2.0283,-1.9609,-1.9482,-1.9814,-1.9463,-1.9277,-1.9277,-1.9277,-1.9238,-1.9111,-1.875,-1.8251,-1.7832,-1.7849,-1.7843,-1.7905,-1.8868,-2.0533,-2.2907,-2.368,-2.367,-2.2996,-2.3553,-2.3138,-2.1581,-2.1481,-2.1744,-2.2259,-2.1857,-2.2058,-2.2977,-2.1769,-2.1154,0.0,-2.0727,0.0,0.0,0.0,0.0,0.0,0.0,0.0,0.0,-2.4587,-2.5661,-2.6691,-2.8285,-2.9478,-3.0043,-3.0595,-3.1298,-3.2202,-3.2315,-3.2528,-3.2993,-3.3081,-3.3081,-3.3081,-3.3081,-3.3081,-3.3154,-3.4037,-3.4664,-3.4746,-3.5707,-3.6345,-3.6451,-3.7849,-3.9045,-3.9337,-3.9334,-3.92,-3.923,-3.926,-3.9215,-3.923,-3.9591,-4.0127,-3.9918,-4.0591,-4.1294,-4.1788,-4.2104,-4.2419,-4.297,-4.3045,-4.306,-4.2985,-4.297,-4.2895,-4.2701,-4.2985,-4.312,-1.9283,-1.9362,-2.0235,-2.0518,-2.0449,-2.0527,-2.0166,-1.9531,-1.9531,-1.9521,-1.958,-2.0176,-2.0254,-1.9922,-1.9912,-2.0068,-2.0293,-1.9766,-1.9482,-1.9414,-1.9404,-1.9258,-1.9023,-1.9199,-1.9326,-1.9394,-1.9326,-1.9277,-1.9277,-1.9277,-1.8936,-1.8271,-1.8164,-1.7744,-1.7002,0.0,0.0,0.0,-1.8775,-2.003,-2.1242,-2.2483,-2.2795,-2.2161,-2.2861,0.0,-2.1568,-2.1481,-2.1732,-2.2272,-2.2209,0.0,0.0,0.0,0.0,0.0,0.0,0.0,0.0,0.0,0.0,0.0,-2.4469,-2.4405,-2.4561,-2.6302,-2.7758,-2.8436,-2.9955,-3.1148,-3.17,-3.2277,-3.2692,-3.288,-3.2918,-3.2955,-3.3068,-3.3081,-3.3081,-3.3081,-3.3081,-3.3167,-3.3215,-3.4024,-3.4733,-3.4844,-3.6318,-3.7206,-3.6768,-3.7543,-3.8442,-3.9162,-3.8916,-3.8601,-3.8586,-3.8586,-3.8422,-3.8063,-3.8329,-3.8582,-3.8277,-3.9035,-3.9783,-4.0038,-4.0831,-4.1549,-4.1743,-4.1758,-4.1803,-4.1743,-4.1773,-4.2028,-4.294,-4.3225,-4.3284,-1.952,0.0,-2.0167,-2.0449,0.0,-2.0244,-1.9756,-1.8994,-1.9414,-1.96,-1.9639,-2.0283,-2.0439,-2.0225,-2.001,-1.9922,-1.9912,-1.9482,-1.917,-1.8975,-1.8965,-1.8965,-1.8945,-1.875,-1.8769,-1.8955,-1.876,-1.8662,-1.8652,-1.8662,-1.8437,-1.8008,-1.8008,-1.7793,-1.7383,-1.7363,-1.7471,-1.7695,-1.8419,-1.9431,-2.0773,-2.1481,-2.1661,-2.1273,0.0,0.0,0.0,0.0,0.0,0.0,0.0,0.0,0.0,0.0,0.0,-2.3552,-2.3816,-2.3966,-2.3954,-2.4192,-2.4833,-2.595,-2.654,-2.6741,-2.6465,-2.8235,-2.9566,-3.0118,-3.116,-3.2026,-3.2579,-3.2905,-3.3081,-3.3081,-3.3081,-3.3081,-3.3167,-3.3556,-3.3641,-3.3288,-3.3791,-3.3996,-3.3457,-3.4513,-3.5214,-3.5355,-3.6582,-3.7476,-3.7212,-3.7709,-3.8279,-3.8411,-3.8167,-3.7913,-3.7898,-3.7898,-3.7973,-3.7928,-3.7893,-3.7938,-3.7928,-3.8182,-3.8527,-3.8886,-3.9753,-4.0487,-4.0846,-4.1174,-4.1279,-4.1025,-4.116,-4.1399,-4.1893,-4.2147,-4.2252,-1.9353,-1.8798,-1.9835,-2.0149,-1.9912,-1.9912,-1.9434,-1.8621,0.0,0.0,0.0,-2.0342,-2.0576,-2.0547,-2.0185,-1.9795,-1.9414,-1.9394,-1.9121,-1.8562,-1.8562,-1.8789,-1.9014,-1.835,-1.8193,-1.8426,-1.8174,-1.8008,-1.8008,-1.8008,-1.8008,-1.8008,-1.8008,-1.8008,-1.8008,-1.8008,-1.8008,-1.8008,-1.793,-1.8664,-2.0271,-2.0359,-2.0425,-2.0467,-2.1288,-2.1331,-2.0459,-2.165,-2.2347,-2.2472,-2.3,-2.3552,-2.4104,-2.423,-2.4481,-2.4921,-2.5046,-2.5285,-2.5711,-2.5749,-2.6239,-2.7344,-2.8461,-2.89,-2.8436,-2.9754,-3.0783,-3.121,-3.175,-3.2303,-3.2867,-3.2918,-3.2918,-3.2918,-3.293,-3.2965,-3.3119,-3.3643,-3.3744,-3.3521,-3.4153,-3.4648,-3.3953,-3.5016,-3.587,-3.6043,-3.6799,-3.736,-3.7375,-3.7739,-3.7978,-3.7629,-3.7404,-3.7255,-3.727,-3.7404,-3.7569,-3.7823,-3.759,-3.7575,-3.7838,-3.7614,-3.7524,-3.7913,-3.8631,-3.9218,-3.9888,-4.0347,-4.0716,-4.0306,-4.0636,-4.0876,-4.0427,-4.0651,-4.095,-1.6846,-1.7666,-1.8789,-1.9521,-1.9912,-1.9912,-1.9424,-1.8691,-1.916,-1.9375,-1.9434,-2.0225,-2.0576,-2.0557,-2.0498,-2.0234,-1.9834,-1.9824,-1.9394,0.0,-1.8562,-1.8477,-1.8193,-1.8066,-1.8037,-1.8086,-1.8037,-1.8008,-1.8008,-1.8008,-1.8008,-1.8008,-1.8008,-1.8008,-1.8008,-1.8008,-1.8008,-1.7998,-1.7656,-1.7772,-1.837,-1.8715,-1.9212,-1.9816,-2.0691,-2.1222,-2.135,-2.1976,-2.2523,-2.3,-2.3565,-2.413,-2.4669,-2.5121,-2.541,-2.5511,-2.595,-2.6251,-2.6408,-2.6395,-2.6816,-2.7921,-2.9026,-2.9641,-2.9591,-3.0193,-3.0645,-3.0746,-3.121,-3.1738,-3.2252,-3.234,-3.2328,-3.2328,-3.2328,-3.246,-3.2745,-3.2371,-3.2626,-3.3802,-3.3485,-3.3638,-3.4251,-3.5201,-3.5827,-3.6057,-3.663,-3.721,-3.6828,-3.7142,-3.7479,-3.736,-3.6956,-3.6671,-3.6641,-3.706,-3.712,-3.6806,-3.7088,-3.7118,-3.6971,-3.6753,-3.6679,-3.6761,-3.7381,-3.7953,-3.8631,-3.8758,-3.9128,-3.9367,-3.9664,-3.9723,-3.9544,-3.9634,-4.0008,-1.6519,-1.6577,-1.7431,-1.8282,-1.9023,-1.912,-1.9004,-1.8662,-1.8848,-1.9072,-1.9375,-2.0185,-2.0576,-2.0527,-2.0078,-1.9766,-1.9561,-1.9092,-1.8672,-1.8311,-1.8301,-1.8193,-1.8018,-1.8008,-1.8008,-1.8008,-1.8008,-1.8008,-1.8008,-1.8008,-1.8008,-1.8008,-1.8008,-1.8008,-1.8008,-1.8008,-1.8008,-1.8008,-1.7812,-1.7812,-1.7998,-1.8195,-1.8405,-1.8788,-2.0054,-2.0838,-2.1043,-2.2419,-2.3477,-2.4017,-2.4569,-2.5134,-2.5674,-2.5937,-2.6076,-2.6076,-2.6382,-2.6521,-2.6521,-2.6741,-2.7243,-2.8059,-2.8863,-2.9465,-2.9767,-3.0018,-3.0306,-3.0583,-3.0846,-3.1185,-3.17,-3.1775,-3.1775,-3.1763,-3.1763,-3.1814,-3.2127,-3.2752,-3.3207,-3.3567,-3.4289,-3.4766,-3.4635,-3.522,-3.5668,-3.5736,-3.6157,-3.6282,-3.5992,-3.6141,-3.6372,-3.6342,-3.6133,-3.5998,-3.5953,-3.5818,-3.5998,-3.6357,-3.6096,-3.6096,-3.6252,-3.6216,-3.5962,-3.5998,-3.6432,-3.7128,-3.7773,-3.8157,-3.8366,-3.8277,-3.9005,-3.9125,-3.8646,-3.8601,-3.896,-1.6226,-1.5725,-1.6492,-1.7458,-1.8339,-1.8452,-1.8426,-1.8506,-1.8594,-1.8828,-1.9228,-2.0049,-2.041,-2.0352,-1.9717,-1.9336,-1.9062,-1.8457,-1.8096,-1.8018,-1.8008,-1.8008,-1.8008,-1.8008,-1.8008,-1.8008,-1.8008,-1.8008,-1.7998,-1.792,-1.7812,-1.7744,-1.7822,-1.7871,-1.7871,-1.7959,-1.8008,-1.8008,-1.8008,-1.8008,-1.8008,-1.8008,-1.8202,-1.8664,-1.9868,-2.0782,-2.125,-2.2982,-2.4205,-2.4619,-2.5134,-2.5624,-2.6063,-2.6201,-2.6332,-2.6345,-2.6389,-2.6521,-2.6559,-2.6979,-2.7469,-2.7896,-2.8549,-2.9114,-2.9528,-2.9729,-2.9955,-3.0357,-3.0419,-3.0645,-3.111,-3.1223,-3.121,-3.121,-3.1223,-3.1284,-3.149,-3.2731,-3.3629,-3.3274,-3.4768,-3.5589,-3.5229,-3.5311,-3.5424,-3.5275,-3.528,-3.52,-3.5106,-3.5031,-3.5055,-3.5085,-3.516,-3.5265,-3.525,-3.4906,-3.5011,-3.5923,-3.523,-3.5155,-3.5574,-3.5474,-3.5066,-3.5055,-3.5424,-3.6024,-3.6746,-3.7158,-3.7398,-3.7434,-3.8108,-3.8302,-3.7509,-3.7599,-3.7973,-1.4814,-1.5438,-1.6221,-1.7459,-1.8375,-1.8202,-1.8008,-1.8125,-1.8467,-1.8582,-1.8799,-1.96,-1.9961,-1.9971,-1.9863,-1.9394,-1.8669,-1.8543,-1.8359,-1.8027,-1.8008,-1.8008,-1.8008,-1.8008,-1.8008,-1.8008,-1.8008,-1.8008,-1.7988,-1.7637,-1.7256,-1.6943,-1.7246,-1.7451,-1.748,-1.7822,-1.8008,-1.8008,-1.8008,-1.8008,-1.8008,-1.8008,-1.871,-2.0333,-2.0462,-2.1353,-2.258,-2.3567,-2.4017,-2.4117,-2.4607,-2.4921,-2.5034,-2.5423,-2.5686,-2.5711,-2.6176,-2.6521,-2.6559,-2.6967,-2.7293,-2.7419,-2.831,-2.89,-2.9026,-2.9478,-2.9804,-2.9867,-2.9867,-3.0143,-3.0595,-3.0696,-3.0683,-3.0683,-3.0683,-3.0785,-3.1172,-3.1338,-3.2123,-3.3772,-3.4257,-3.4496,-3.5222,-3.535,-3.5175,-3.4637,-3.4607,-3.445,-3.3982,-3.3877,-3.3873,-3.3873,-3.4158,-3.4502,-3.4532,-3.4532,-3.4472,-3.4666,-3.4609,-3.455,-3.4588,-3.4271,-3.3746,-3.4128,-3.3946,-3.4465,-3.5205,-3.5389,-3.5599,-3.6768,-3.7015,-3.6791,-3.6596,-3.6671,-3.7,-1.3838,-1.4318,-1.433,-1.5253,-1.6537,-1.6996,-1.7501,-1.8027,-1.8184,-1.8398,-1.8662,-1.9014,-1.9297,-1.9531,-1.9277,-1.8883,-1.8633,-1.8389,-1.8184,-1.8008,-1.8008,-1.8008,-1.8008,-1.8008,-1.8008,-1.8008,-1.8008,-1.8008,-1.7939,-1.7578,-1.7285,-1.7148,-1.7305,-1.7256,-1.707,-1.7676,-1.79,-1.7656,-1.7881,-1.8008,-1.8008,-1.8008,-1.8337,-1.911,-2.0074,-2.091,-2.1628,-2.28,-2.3653,-2.3979,-2.4217,-2.4494,-2.4808,-2.5021,-2.5272,-2.5598,-2.6138,-2.6521,-2.6521,-2.6735,-2.6942,-2.7256,-2.7695,-2.8084,-2.8411,-2.8662,-2.8913,-2.9264,-2.9578,-2.9905,-3.0105,-3.0131,-3.0131,-3.0131,-3.0131,-3.0381,-3.1145,-3.1669,-3.2607,-3.3808,-3.4543,-3.4809,-3.4872,-3.4547,-3.4218,-3.3948,-3.3916,-3.3776,-3.3538,-3.3484,-3.3502,-3.3472,-3.3441,-3.3484,-3.3754,-3.3529,-3.3529,-3.3739,-3.3587,-3.3423,-3.3737,-3.3722,-3.3528,-3.3469,-3.3423,-3.3704,-3.4741,-3.4805,-3.4925,-3.5934,-3.6229,-3.6013,-3.6402,-3.6178,-3.6148,-1.328,-1.3393,-1.3432,-1.424,-1.5658,-1.6567,-1.7354,-1.794,-1.8008,-1.8184,-1.8447,-1.8467,-1.8633,-1.8887,-1.8711,-1.8584,-1.8428,-1.8154,-1.8008,-1.8008,-1.8008,-1.8008,-1.8008,-1.8008,-1.8008,-1.8008,-1.8008,-1.7949,-1.7822,-1.7549,-1.7324,-1.7236,-1.7324,-1.7227,-1.7012,-1.7656,-1.7861,-1.7627,-1.7871,-1.8008,-1.8008,-1.8202,-1.8462,-1.8777,-2.0139,-2.1037,-2.129,-2.2433,-2.3314,-2.3728,-2.3753,-2.3941,-2.4267,-2.4506,-2.4833,-2.536,-2.5912,-2.6226,-2.6226,-2.6445,-2.6628,-2.7005,-2.718,-2.7444,-2.7808,-2.8021,-2.8419,-2.9007,-2.9567,-2.9948,-2.9779,-2.9779,-2.9779,-2.9792,-2.9998,-3.0482,-3.118,-3.2177,-3.317,-3.3758,-3.4515,-3.4966,-3.4322,-3.3829,-3.3514,-3.3305,-3.3242,-3.3092,-3.3021,-3.293,-3.2915,-3.2946,-3.2526,-3.2572,-3.3021,-3.2721,-3.2602,-3.2647,-3.2482,-3.2437,-3.2871,-3.2916,-3.2946,-3.2587,-3.2871,-3.314,-3.3574,-3.3814,-3.3935,-3.4465,-3.4823,-3.4996,-3.4966,-3.4876,-3.4532,-1.3046,-1.3058,-1.4478,-1.5542,-1.6567,-1.7432,-1.794,-1.8008,-1.8008,-1.8027,-1.8066,-1.8066,-1.8057,-1.8144,-1.8457,-1.8408,-1.8076,-1.8027,-1.8008,-1.8008,-1.8008,-1.8008,-1.8008,-1.8008,-1.8008,-1.8008,-1.8008,-1.7832,-1.748,-1.7402,-1.7168,-1.6836,-1.7187,-1.7363,-1.7353,-1.7754,-1.7998,-1.791,-1.7969,-1.8008,-1.8134,-1.8854,-1.9617,-2.0398,-2.1365,-2.2125,-2.2763,-2.3005,-2.3103,-2.3188,-2.3153,-2.3226,-2.3276,-2.3766,-2.4318,-2.482,-2.5335,-2.5624,-2.5711,-2.6113,-2.6508,-2.6622,-2.6999,-2.7339,-2.746,-2.7898,-2.8536,-2.928,-2.9934,-3.0181,-2.9961,-3.0088,-3.0075,-3.0075,-3.0696,-3.1106,-3.1315,-3.2821,-3.3536,-3.3483,-3.3962,-3.4173,-3.3619,-3.3529,-3.3095,-3.2676,-3.2527,-3.2378,-3.19,-3.1719,-3.1749,-3.1749,-3.1734,-3.175,-3.2347,-3.2168,-3.1721,-3.1765,-3.1958,-3.1631,-3.1556,-3.1571,-3.1631,-3.1676,-3.1884,-3.2093,-3.2332,-3.2437,-3.2422,-3.2841,-3.3486,-3.3694,-3.3724,-3.3006,-3.2796,-1.2941,-1.3476,-1.4721,-1.5728,-1.6636,-1.7001,-1.7432,-1.8008,-1.8008,-1.8008,-1.8008,-1.8008,-1.8008,-1.8027,-1.8164,-1.8154,-1.8018,-1.8008,-1.8008,-1.8008,-1.8008,-1.8008,-1.8008,-1.8008,-1.8008,-1.8008,-1.8008,-1.7939,-1.7773,-1.7529,-1.7305,-1.7197,-1.7295,-1.7256,-1.7139,-1.7666,-1.7891,-1.7666,-1.7871,-1.8269,-1.8777,-1.9683,-2.0526,-2.1353,-2.1753,-2.2002,-2.2322,-2.2823,-2.3125,-2.3125,-2.3125,-2.3125,-2.3188,-2.3678,-2.4079,-2.4318,-2.4808,-2.5096,-2.5159,-2.5598,-2.5912,-2.6017,-2.6934,-2.754,-2.7702,-2.8251,-2.8946,-2.9511,-2.9862,-3.0021,-3.0512,-3.1095,-3.1623,-3.1609,-3.1888,-3.2266,-3.2807,-3.3275,-3.3564,-3.3794,-3.3675,-3.3095,-3.2886,-3.2512,-3.2168,-3.1943,-3.187,-3.1765,-3.1586,-3.1467,-3.1467,-3.1467,-3.1482,-3.1556,-3.1794,-3.1734,-3.1482,-3.1482,-3.1497,-3.1526,-3.1482,-3.1482,-3.1571,-3.1437,-3.1435,-3.1405,-3.1749,-3.1779,-3.1674,-3.2153,-3.2736,-3.2766,-3.2602,-3.2392,-3.2198,-1.2666,-1.3382,-1.4665,-1.5587,-1.621,-1.6793,-1.7423,-1.8008,-1.8008,-1.8008,-1.8008,-1.8008,-1.8008,-1.8008,-1.8008,-1.8008,-1.8008,-1.8008,-1.8008,-1.8008,-1.8008,-1.8008,-1.8008,-1.8008,-1.8008,-1.8008,-1.8008,-1.8008,-1.7959,-1.7588,-1.7461,-1.7578,-1.7461,-1.7246,-1.7109,-1.7656,-1.7803,-1.7539,-1.7803,-1.8277,-1.8812,-1.9933,-2.0676,-2.1082,-2.1655,-2.2091,-2.2298,-2.2823,-2.3125,-2.3125,-2.3125,-2.3125,-2.3175,-2.3514,-2.3715,-2.3778,-2.4255,-2.4556,-2.4619,-2.5046,-2.5542,-2.6049,-2.683,-2.7564,-2.8063,-2.8671,-2.9273,-2.9798,-3.0205,-3.0485,-3.1237,-3.2245,-3.2635,-3.2222,-3.2222,-3.2635,-3.326,-3.326,-3.3407,-3.3493,-3.2811,-3.2302,-3.2168,-3.1824,-3.1556,-3.1467,-3.1467,-3.1467,-3.1467,-3.1467,-3.1467,-3.1467,-3.1467,-3.1482,-3.1524,-3.1345,-3.1317,-3.1332,-3.1377,-3.1407,-3.145,-3.1465,-3.136,-3.1255,-3.115,-3.1091,-3.1076,-3.1063,-3.1405,-3.1824,-3.2093,-3.2168,-3.2123,-3.2153,-3.1958,-1.2372,-1.2732,-1.4371,-1.5305,-1.5658,-1.701,-1.7862,-1.794,-1.794,-1.7872,-1.8008,-1.8008,-1.8008,-1.8008,-1.8008,-1.8008,-1.8008,-1.8008,-1.8008,-1.8008,-1.8008,-1.8008,-1.8008,-1.8008,-1.8008,-1.8008,-1.8008,-1.8008,-1.7978,-1.7656,-1.7627,-1.7852,-1.7559,-1.7353,-1.7363,-1.7715,-1.7773,-1.7559,-1.7793,-1.788,-1.7734,-1.9544,-2.0223,-1.9778,-2.1267,-2.2393,-2.2892,-2.3002,-2.299,-2.3027,-2.3125,-2.3125,-2.3125,-2.3188,-2.3163,-2.3288,-2.3703,-2.3966,-2.4104,-2.4557,-2.5499,-2.6448,-2.6953,-2.7638,-2.8642,-2.908,-2.9524,-3.0291,-3.0848,-3.1471,-3.2167,-3.2822,-3.2674,-3.1188,-3.182,-3.2357,-3.2492,-3.2989,-3.3245,-3.2662,-3.1945,-3.1526,-3.1497,-3.1497,-3.1467,-3.1467,-3.1467,-3.1467,-3.1467,-3.1467,-3.1467,-3.1452,-3.1332,-3.127,-3.115,-3.1031,-3.1078,-3.1168,-3.1228,-3.133,-3.1255,-3.1225,-3.0911,-3.0746,-3.0518,-3.0428,-3.0283,-3.0328,-3.0462,-3.0878,-3.115,-3.1524,-3.1554,-3.1569,-3.1631,-1.3244,-1.3382,-1.4665,-1.5579,-1.6079,-1.6149,-1.6724,-1.7862,-1.7354,-1.7432,-1.793,-1.8008,-1.8008,-1.8008,-1.8008,-1.8008,-1.8008,-1.8008,-1.8008,-1.8008,-1.8008,-1.8008,-1.8008,-1.8008,-1.8008,-1.8008,-1.8008,-1.8008,-1.7988,-1.7861,-1.79,-1.791,-1.7578,-1.7393,-1.7344,-1.751,-1.749,-1.7461,-1.7793,-1.8308,-1.8903,-1.9599,-2.0167,-2.0761,-2.143,-2.1845,-2.1995,-2.2359,-2.256,-2.2573,-2.2937,-2.3125,-2.3125,-2.3125,-2.3125,-2.315,-2.3288,-2.3704,-2.4175,-2.4676,-2.5371,-2.6383,-2.7308,-2.8254,-2.9135,-2.9665,-3.028,-3.0969,-3.1338,-3.1575,-3.1752,-3.1988,-3.2212,-3.2577,-3.2897,-3.2948,-3.2874,-3.2868,-3.2482,-3.1988,-3.1601,-3.1482,-3.1467,-3.1467,-3.148,-3.1452,-3.1437,-3.1377,-3.1467,-3.1377,-3.1467,-3.1467,-3.1225,-3.0836,-3.0672,-3.0402,-3.0242,-3.0481,-3.0675,-3.08,-3.0842,-3.0791,-3.0477,-3.0088,-2.9928,-2.9702,-2.9574,-2.9663,-2.9798,-3.0053,-3.0432,-3.0687,-3.0851,-3.0971,-3.1091,-1.3164,-1.331,-1.4665,-1.5305,-1.5649,-1.5939,-1.6655,-1.7432,-1.7217,-1.7432,-1.794,-1.8008,-1.8008,-1.8008,-1.8008,-1.8008,-1.8008,-1.8008,-1.8008,-1.8008,-1.8008,-1.8008,-1.8008,-1.8008,-1.8008,-1.8008,-1.8008,-1.8008,-1.7988,-1.7705,-1.7617,-1.7666,-1.7187,-1.6875,-1.6924,-1.7061,-1.7139,-1.7178,-1.7393,-1.8015,-1.8824,-1.9315,-1.9771,-2.0428,-2.0944,-2.1054,-2.0941,-2.1393,-2.1794,-2.2058,-2.2535,-2.2887,-2.304,-2.3125,-2.3245,-2.3484,-2.3603,-2.3897,-2.462,-2.5043,-2.5687,-2.6595,-2.7527,-2.8423,-2.9243,-2.9926,-3.0462,-3.1016,-3.1093,-3.124,-3.1422,-3.1482,-3.1943,-3.2647,-3.2661,-3.2766,-3.2706,-3.2407,-3.2033,-3.1644,-3.1482,-3.1467,-3.1467,-3.1255,-3.1315,-3.1405,-3.1106,-3.1135,-3.1195,-3.1061,-3.1016,-3.0896,-3.0567,-3.0268,-3.0133,-2.9834,-2.9421,-2.9675,-3.0003,-3.0134,-3.0199,-3.0157,-2.9968,-2.934,-2.9004,-2.8726,-2.8569,-2.8959,-2.9267,-2.9514,-2.9699,-2.9998,-3.0238,-3.0372,-3.0522,-1.2305,-1.2519,-1.4235,-1.4593,-1.4307,-1.6376,-1.7148,-1.6991,-1.7432,-1.7794,-1.8008,-1.8008,-1.793,-1.7862,-1.7794,-1.7696,-1.7755,-1.7707,-1.7639,-1.7697,-1.7765,-1.7852,-1.7998,-1.7939,-1.79,-1.792,-1.793,-1.791,-1.7764,-1.7178,-1.6943,-1.7236,-1.6654,-1.6164,-1.6311,-1.6514,-1.6699,-1.6699,-1.6758,-1.7209,-1.7954,-1.866,-1.9057,-1.9,-2.0073,-2.0401,-2.0125,-2.0451,-2.0941,-2.1468,-2.202,-2.2498,-2.2949,-2.3088,-2.3323,-2.3962,-2.4234,-2.4624,-2.5175,-2.5467,-2.6063,-2.7245,-2.7523,-2.8061,-2.9208,-2.948,-2.9789,-3.0372,-3.0462,-3.0687,-3.115,-3.1198,-3.133,-3.1362,-3.1644,-3.1719,-3.1526,-3.1541,-3.1524,-3.145,-3.1465,-3.1405,-3.1255,-3.0761,-3.0821,-3.0911,-3.0372,-3.0432,-3.0687,-3.0522,-3.0113,-2.9948,-2.9864,-2.9639,-2.9475,-2.8996,-2.8667,-2.8786,-2.9092,-2.9312,-2.9374,-2.9372,-2.9235,-2.8622,-2.8314,-2.7925,-2.785,-2.8314,-2.8539,-2.8674,-2.8951,-2.9355,-2.9624,-2.9759,-3.0013,-1.2305,-1.2378,-1.2872,-1.373,-1.4673,-1.495,-1.6018,-1.7432,-1.707,-1.7423,-1.7862,-1.8008,-1.756,-1.6991,-1.7001,-1.651,-1.5993,-1.6269,-1.6363,-1.6272,-1.6792,-1.7395,-1.7822,-1.7686,-1.7559,-1.7549,-1.7539,-1.7383,-1.7006,-1.6826,-1.6777,-1.6875,-1.6338,-1.6105,-1.6164,-1.6172,-1.623,-1.6289,-1.6582,-1.7134,-1.8045,-1.8342,-1.8892,-1.9547,-1.9858,-1.9974,-1.9811,-1.9936,-2.0514,-2.1405,-2.1606,-2.1958,-2.246,-2.2535,-2.285,-2.3436,-2.4021,-2.4667,-2.5329,-2.596,-2.665,-2.741,-2.7565,-2.7973,-2.8734,-2.8861,-2.9175,-2.9654,-2.9834,-2.9909,-3.0088,-3.0148,-3.0148,-3.0223,-3.0881,-3.1347,-3.1435,-3.1452,-3.1302,-3.0896,-3.0791,-3.0597,-3.0283,-3.0028,-2.9939,-3.0058,-2.9834,-2.9639,-3.0028,-2.9879,-2.9454,-2.9415,-2.934,-2.9041,-2.8697,-2.8188,-2.7904,-2.7919,-2.8143,-2.8345,-2.8419,-2.8495,-2.8233,-2.7799,-2.7904,-2.77,-2.7655,-2.7865,-2.7859,-2.8008,-2.8353,-2.8816,-2.9026,-2.9205,-2.9505,-1.2305,-1.2378,-1.2732,-1.331,-1.4019,-1.4243,-1.5305,-1.6576,-1.6706,-1.7139,-1.7794,-1.7569,-1.7036,-1.6401,-1.6323,-1.5624,-1.4757,-1.5389,-1.5462,-1.508,-1.525,-1.6122,-1.706,-1.7197,-1.7109,-1.7109,-1.7109,-1.6982,-1.6748,-1.6553,-1.6455,-1.6367,-1.6006,-1.5801,-1.5762,-1.5791,-1.5949,-1.6035,-1.6233,-1.6797,-1.8143,-1.8103,-1.8721,-1.9512,-1.9798,-1.9798,-1.9798,-1.9798,-2.0326,-2.1167,-2.1305,-2.1393,-2.1895,-2.197,-2.2394,-2.3215,-2.3976,-2.4833,-2.5834,-2.6533,-2.7137,-2.7524,-2.756,-2.7754,-2.8083,-2.8173,-2.8442,-2.9041,-2.916,-2.931,-2.9535,-2.9594,-2.9594,-2.9729,-3.0268,-3.0717,-3.0717,-3.0657,-3.0537,-3.0238,-3.0088,-3.0013,-2.9594,-2.9355,-2.9355,-2.9385,-2.9026,-2.9175,-2.9445,-2.9086,-2.8876,-2.8906,-2.8727,-2.8382,-2.8248,-2.7874,-2.7709,-2.7664,-2.7694,-2.7844,-2.7784,-2.7829,-2.7769,-2.7619,-2.759,-2.756,-2.756,-2.756,-2.7634,-2.7829,-2.8053,-2.8173,-2.8368,-2.8577,-2.8891,-1.2305,-1.2378,-1.3164,-1.3171,-1.2872,-1.4268,-1.5064,-1.5511,-1.5973,-1.6729,-1.7301,-1.6834,-1.6102,-1.5775,-1.5498,-1.5031,-1.3901,-1.4473,-1.4681,-1.4397,-1.4423,-1.5096,-1.6398,-1.6408,-1.6515,-1.6597,-1.6597,-1.6592,-1.6406,-1.6123,-1.6006,-1.5918,-1.5605,-1.5459,-1.5488,-1.5459,-1.5635,-1.582,-1.5684,-1.6448,-1.7763,-1.7891,-1.841,-1.9565,-1.9798,-1.9798,-1.9798,-1.9849,-2.025,-2.1242,-2.0828,-2.0891,-2.1305,-2.1405,-2.2076,-2.3164,-2.3929,-2.485,-2.6115,-2.6772,-2.7285,-2.726,-2.7395,-2.7535,-2.7565,-2.7625,-2.7919,-2.8442,-2.8502,-2.8712,-2.9056,-2.928,-2.9205,-2.916,-2.9325,-2.937,-2.94,-2.949,-2.9564,-2.9475,-2.949,-2.946,-2.9235,-2.8966,-2.8682,-2.8742,-2.8464,-2.8457,-2.8592,-2.8449,-2.8323,-2.8397,-2.8098,-2.7694,-2.7649,-2.7604,-2.759,-2.759,-2.7604,-2.7619,-2.744,-2.7455,-2.756,-2.756,-2.756,-2.756,-2.756,-2.756,-2.756,-2.7604,-2.7799,-2.7724,-2.7664,-2.7889,-2.8173,-1.2305,-1.2298,-1.2512,-1.2952,-1.3411,-1.3618,-1.4466,-1.5665,-1.5042,-1.538,-1.5927,-1.5853,-1.4953,-1.3739,-1.4181,-1.3473,-1.2145,-1.2737,-1.3314,-1.4335,-1.4833,-1.5103,-1.5612,-1.5477,-1.569,-1.6079,-1.6211,-1.6045,-1.5762,-1.5693,-1.5566,-1.5547,-1.5508,-1.542,-1.542,-1.542,-1.5439,-1.5527,-1.5449,-1.6249,-1.7445,-1.7778,-1.8328,-1.9643,-1.9798,-1.9798,-1.9798,-1.9798,-1.9924,-2.0075,-2.0125,-2.0418,-2.0822,-2.0949,-2.1519,-2.2617,-2.3461,-2.4179,-2.4997,-2.6105,-2.6572,-2.6288,-2.6916,-2.737,-2.6913,-2.731,-2.761,-2.7784,-2.7799,-2.8015,-2.8128,-2.8053,-2.8128,-2.824,-2.821,-2.8165,-2.824,-2.8989,-2.922,-2.8928,-2.8816,-2.8622,-2.8143,-2.8068,-2.7949,-2.803,-2.7985,-2.7769,-2.7805,-2.782,-2.7874,-2.8008,-2.7664,-2.732,-2.7275,-2.72,-2.7066,-2.7081,-2.7126,-2.7141,-2.6961,-2.6991,-2.7066,-2.7305,-2.756,-2.7595,-2.7525,-2.756,-2.756,-2.756,-2.756,-2.756,-2.756,-2.756,-2.7725,-1.2017,-1.1891,-1.1891,-1.2175,-1.2565,-1.2486,-1.3423,-1.473,-1.4512,-1.4941,-1.5661,-1.533,-1.4252,-1.3257,-1.316,-1.2282,-1.1281,-1.1652,-1.2624,-1.3519,-1.4094,-1.4638,-1.5196,-1.4943,-1.4963,-1.5642,-1.5762,-1.5596,-1.5459,-1.542,-1.5439,-1.542,-1.542,-1.542,-1.542,-1.542,-1.542,-1.5546,-1.5806,-1.6482,-1.7413,-1.7961,-1.8555,-1.9592,-1.9798,-1.9798,-1.9798,-1.9798,-1.9798,-1.985,-2.0105,-2.0373,-2.0695,-2.0759,-2.1327,-2.2401,-2.3236,-2.394,-2.4692,-2.5453,-2.5989,-2.5615,-2.6303,-2.6363,-2.6378,-2.6767,-2.7091,-2.7205,-2.7405,-2.7575,-2.756,-2.759,-2.756,-2.756,-2.756,-2.756,-2.7694,-2.8218,-2.8547,-2.8181,-2.8143,-2.7964,-2.7745,-2.759,-2.759,-2.7835,-2.7835,-2.7649,-2.7649,-2.77,-2.7685,-2.7604,-2.7275,-2.7036,-2.6961,-2.6767,-2.6437,-2.6378,-2.6333,-2.6303,-2.6198,-2.6348,-2.6542,-2.6752,-2.6931,-2.7414,-2.7418,-2.75,-2.7565,-2.758,-2.758,-2.756,-2.761,-2.758,-2.783,-1.1657,-1.143,-1.143,-1.143,-1.1416,-1.1383,-1.2289,-1.3663,-1.3606,-1.4084,-1.5478,-1.4315,-1.3348,-1.2996,-1.2503,-1.1581,-1.1122,-1.1677,-1.265,-1.3078,-1.3734,-1.4451,-1.5059,-1.4911,-1.4871,-1.5362,-1.5459,-1.542,-1.542,-1.542,-1.542,-1.542,-1.542,-1.542,-1.542,-1.542,-1.542,-1.5468,-1.6093,-1.6754,-1.7578,-1.8286,-1.8992,-1.9643,-1.9798,-1.9798,-1.9798,-1.9798,-1.9798,-1.985,-2.0446,-2.0759,-2.0809,-2.0993,-2.1431,-2.2615,-2.3177,-2.3705,-2.4295,-2.4985,-2.5405,-2.536,-2.56,-2.557,-2.5657,-2.6016,-2.637,-2.6574,-2.6817,-2.7156,-2.738,-2.7335,-2.741,-2.753,-2.756,-2.756,-2.756,-2.756,-2.7664,-2.7664,-2.7754,-2.7679,-2.7619,-2.756,-2.756,-2.7545,-2.753,-2.7485,-2.7455,-2.744,-2.7365,-2.7156,-2.6826,-2.6527,-2.6437,-2.6303,-2.5974,-2.5839,-2.5719,-2.56,-2.5525,-2.557,-2.5749,-2.5944,-2.6201,-2.6645,-2.7104,-2.7331,-2.7399,-2.748,-2.7525,-2.7515,-2.7545,-2.7635,-2.7966,-1.147,-1.143,-1.143,-1.143,-1.1383,-1.1169,-1.1636,-1.2223,-1.1717,-1.1762,-1.264,-1.232,-1.1903,-1.1452,-1.1799,-1.1387,-1.124,-1.2097,-1.2826,-1.3312,-1.4154,-1.5167,-1.5235,-1.5235,-1.5225,-1.5352,-1.542,-1.542,-1.542,-1.542,-1.542,-1.542,-1.542,-1.542,-1.542,-1.542,-1.542,-1.5526,-1.6197,-1.6978,-1.7578,-1.8382,-1.9097,-1.9747,-1.9798,-1.9798,-1.9798,-1.9798,-1.9798,-1.985,-2.0446,-2.0759,-2.0957,-2.1259,-2.1913,-2.254,-2.2929,-2.3346,-2.3881,-2.4418,-2.4433,-2.4358,-2.4852,-2.5137,-2.5048,-2.5348,-2.5732,-2.5881,-2.5986,-2.6198,-2.6692,-2.6752,-2.7036,-2.732,-2.7425,-2.7425,-2.744,-2.7395,-2.7365,-2.7275,-2.738,-2.747,-2.7365,-2.7245,-2.7111,-2.7081,-2.7076,-2.6927,-2.6777,-2.6886,-2.6995,-2.6677,-2.6348,-2.6078,-2.5869,-2.5734,-2.554,-2.542,-2.527,-2.5061,-2.4956,-2.4822,-2.4911,-2.5121,-2.542,-2.5811,-2.6329,-2.6834,-2.6929,-2.6728,-2.7031,-2.7379,-2.7418,-2.7454,-2.8106,-1.1116,-1.0975,-1.0975,-1.0975,-1.0955,-1.0828,-1.1262,-1.1855,-1.1479,-1.1663,-1.2081,-1.202,-1.1593,-1.1406,-1.1586,-1.1717,-1.2097,-1.252,-1.3243,-1.3786,-1.4805,-1.542,-1.542,-1.542,-1.542,-1.542,-1.542,-1.542,-1.542,-1.542,-1.542,-1.542,-1.542,-1.542,-1.542,-1.542,-1.542,-1.5642,-1.6472,-1.7257,-1.7688,-1.865,-1.9463,-1.9683,-1.9798,-1.9798,-1.9798,-1.9798,-1.9798,-1.9952,-2.0459,-2.0759,-2.1091,-2.1643,-2.2346,-2.2694,-2.2965,-2.3231,-2.3551,-2.3954,-2.3924,-2.3774,-2.4283,-2.4387,-2.4356,-2.4642,-2.5196,-2.5495,-2.5615,-2.5719,-2.6048,-2.6063,-2.6243,-2.6437,-2.6602,-2.6617,-2.6587,-2.6587,-2.6632,-2.6722,-2.6782,-2.6841,-2.6916,-2.6767,-2.6587,-2.6538,-2.6628,-2.6385,-2.6117,-2.6273,-2.6459,-2.6031,-2.5657,-2.5226,-2.5016,-2.4941,-2.4911,-2.4852,-2.4777,-2.4567,-2.4403,-2.4268,-2.4223,-2.4313,-2.4642,-2.5045,-2.5349,-2.5864,-2.5894,-2.6044,-2.6287,-2.6593,-2.6976,-2.7404,-2.7976,-1.0768,-1.0618,-1.0618,-1.0618,-1.0618,-1.0624,-1.0933,-1.1469,-1.1538,-1.1779,-1.2397,-1.202,-1.1772,-1.1772,-1.1896,-1.2205,-1.2948,-1.3009,-1.3425,-1.4204,-1.4991,-1.542,-1.542,-1.542,-1.542,-1.542,-1.542,-1.542,-1.542,-1.542,-1.542,-1.542,-1.542,-1.542,-1.542,-1.5642,-1.5584,-1.6083,-1.7024,-1.7797,-1.8328,-1.915,-1.9798,-1.9798,-1.9798,-1.9798,-1.9798,-1.9798,-1.9798,-2.0003,-2.0396,-2.0809,-2.0993,-2.1988,-2.2649,-2.2799,-2.329,-2.3508,-2.361,-2.361,-2.3684,-2.3625,-2.361,-2.3625,-2.3714,-2.4133,-2.4612,-2.5091,-2.5151,-2.5211,-2.5345,-2.542,-2.5525,-2.5689,-2.5719,-2.5644,-2.5766,-2.5811,-2.5886,-2.5991,-2.6078,-2.6168,-2.6228,-2.6288,-2.6108,-2.6081,-2.6093,-2.5762,-2.5585,-2.5755,-2.5801,-2.5344,-2.4894,-2.4313,-2.4088,-2.4029,-2.4059,-2.4118,-2.4088,-2.3984,-2.3849,-2.3729,-2.3759,-2.3923,-2.4044,-2.4447,-2.4638,-2.4989,-2.5333,-2.5551,-2.5603,-2.5916,-2.6551,-2.7111,-2.764,-1.0658,-1.0618,-1.0618,-1.0618,-1.0618,-1.0618,-1.0618,-1.0737,-1.0807,-1.0807,-1.1108,-1.1531,-1.1772,-1.1896,-1.1834,-1.2258,-1.2879,-1.3191,-1.3614,-1.4392,-1.505,-1.542,-1.542,-1.542,-1.542,-1.542,-1.542,-1.542,-1.542,-1.542,-1.542,-1.542,-1.542,-1.5468,-1.5575,-1.5979,-1.6379,-1.6652,-1.7797,-1.8833,-1.9371,-1.9695,-1.9798,-1.9798,-1.9798,-1.9798,-1.9798,-1.9798,-1.9798,-1.985,-2.0396,-2.0759,-2.0993,-2.2035,-2.2558,-2.2889,-2.3187,-2.3595,-2.3595,-2.3595,-2.3595,-2.3595,-2.3595,-2.3595,-2.3655,-2.3684,-2.3894,-2.3774,-2.3909,-2.4208,-2.4642,-2.4747,-2.5031,-2.5241,-2.5315,-2.5378,-2.5409,-2.5047,-2.5122,-2.5092,-2.5197,-2.536,-2.5495,-2.5585,-2.563,-2.5601,-2.5528,-2.5182,-2.4972,-2.5063,-2.5153,-2.4702,-2.4447,-2.3925,-2.3774,-2.3625,-2.3595,-2.3595,-2.3595,-2.3595,-2.3595,-2.3595,-2.3666,-2.3786,-2.3906,-2.4237,-2.4803,-2.5086,-2.5123,-2.544,-2.586,-2.6085,-2.6278,-2.6776,-2.7326,-1.0618,-1.0618,-1.0618,-1.0618,-1.0618,-1.0618,-1.0618,-1.0618,-1.0618,-1.0618,-1.0618,-1.0926,-1.16,-1.2266,-1.2074,-1.2801,-1.3906,-1.3846,-1.4094,-1.4697,-1.5235,-1.542,-1.542,-1.542,-1.542,-1.542,-1.542,-1.542,-1.542,-1.542,-1.542,-1.542,-1.5468,-1.569,-1.5911,-1.6312,-1.6754,-1.7246,-1.8178,-1.9044,-1.9631,-1.9798,-1.9798,-1.9798,-1.9798,-1.9798,-1.9798,-1.9798,-1.9798,-1.985,-2.0144,-2.0207,-2.0396,-2.1077,-2.1752,-2.2193,-2.2725,-2.3201,-2.3566,-2.3595,-2.3595,-2.3595,-2.3595,-2.3595,-2.3595,-2.3595,-2.3595,-2.361,-2.361,-2.3774,-2.3969,-2.4029,-2.4178,-2.4403,-2.4687,-2.4627,-2.4597,-2.4462,-2.4342,-2.4282,-2.4282,-2.4552,-2.4687,-2.4657,-2.4687,-2.4627,-2.4597,-2.4373,-2.4178,-2.4162,-2.4147,-2.4059,-2.3865,-2.367,-2.3655,-2.3595,-2.3595,-2.3595,-2.3595,-2.3595,-2.3595,-2.3595,-2.3666,-2.3906,-2.4166,-2.4564,-2.5059,-2.532,-2.5449,-2.5864,-2.63,-2.6405,-2.6438,-2.6541,-2.7164,-1.0434,-1.0555,-1.0618,-1.0618,-1.0618,-1.0618,-1.0618,-1.0618,-1.0618,-1.0618,-1.0681,-1.0926,-1.1841,-1.281,-1.2687,-1.3295,-1.5235,-1.4569,-1.4756,-1.5177,-1.542,-1.542,-1.542,-1.542,-1.542,-1.542,-1.542,-1.542,-1.542,-1.542,-1.542,-1.542,-1.542,-1.5806,-1.6368,-1.6821,-1.7257,-1.8286,-1.8768,-1.9307,-1.9695,-1.9798,-1.9798,-1.9798,-1.9798,-1.9798,-1.9798,-1.9798,-1.9798,-1.9798,-1.985,-1.9952,-2.0258,-2.093,-2.1595,-2.21,-2.2785,-2.3201,-2.3508,-2.3595,-2.3595,-2.3595,-2.3595,-2.3595,-2.3595,-2.3595,-2.3595,-2.3595,-2.3595,-2.3595,-2.361,-2.3625,-2.3729,-2.3774,-2.3774,-2.364,-2.3625,-2.3819,-2.3909,-2.3894,-2.3923,-2.3789,-2.3879,-2.3744,-2.3699,-2.3655,-2.3595,-2.3595,-2.361,-2.364,-2.3684,-2.3759,-2.3699,-2.3595,-2.3595,-2.3595,-2.3595,-2.3595,-2.3595,-2.3595,-2.3595,-2.3681,-2.3794,-2.4032,-2.4446,-2.491,-2.5406,-2.5632,-2.5859,-2.6234,-2.6519,-2.6606,-2.6674,-2.6708,-2.6979,-0.9849,-1.0618,-1.0618,-1.0618,-1.0618,-1.0618,-1.0618,-1.0618,-1.0618,-1.0618,-1.0681,-1.1406,-1.2504,-1.3476,-1.3425,-1.3846,-1.5352,-1.4569,-1.4815,-1.5235,-1.542,-1.542,-1.542,-1.542,-1.542,-1.542,-1.542,-1.542,-1.542,-1.542,-1.542,-1.542,-1.542,-1.5864,-1.6585,-1.7413,-1.8232,-1.9097,-1.9527,-1.9579,-1.9798,-1.9798,-1.9798,-1.9798,-1.9798,-1.9798,-1.9798,-1.9798,-1.9798,-1.9798,-1.9798,-2.0003,-2.0396,-2.0868,-2.1438,-2.2067,-2.2725,-2.3143,-2.3363,-2.3551,-2.3595,-2.3595,-2.3595,-2.3595,-2.3595,-2.3595,-2.3595,-2.3595,-2.3595,-2.3595,-2.3595,-2.3595,-2.3595,-2.3595,-2.3595,-2.3595,-2.3595,-2.361,-2.3684,-2.3625,-2.3595,-2.3595,-2.3595,-2.3595,-2.3595,-2.3595,-2.3595,-2.3595,-2.3595,-2.361,-2.361,-2.364,-2.364,-2.3595,-2.3595,-2.3595,-2.3595,-2.3595,-2.3595,-2.3595,-2.3595,-2.3709,-2.396,-2.4348,-2.4752,-2.5259,-2.5705,-2.5934,-2.6236,-2.6521,-2.6708,-2.6708,-2.6708,-2.6708,-2.6996,-0.9792,-1.0618,-1.0618,-1.0618,-1.0618,-1.0618,-1.0618,-1.0618,-1.0618,-1.0618,-1.0624,-1.1476,-1.2443,-1.3243,-1.3846,-1.4332,-1.5284,-1.5099,-1.5167,-1.5294,-1.542,-1.542,-1.542,-1.542,-1.542,-1.542,-1.542,-1.542,-1.542,-1.542,-1.542,-1.542,-1.542,-1.6197,-1.7079,-1.8167,-1.915,-1.9527,-1.9798,-1.9798,-1.9798,-1.9798,-1.9798,-1.9798,-1.9798,-1.9798,-1.9798,-1.9798,-1.9798,-1.9798,-1.9798,-2.0003,-2.0207,-2.057,-2.1002,-2.1595,-2.2239,-2.2711,-2.3143,-2.3377,-2.3595,-2.3595,-2.3595,-2.3595,-2.3595,-2.3595,-2.3595,-2.3595,-2.3595,-2.3595,-2.3595,-2.3595,-2.3595,-2.3595,-2.3595,-2.3595,-2.3595,-2.3595,-2.3595,-2.3595,-2.3595,-2.3595,-2.3595,-2.3595,-2.3595,-2.3595,-2.3595,-2.3595,-2.3595,-2.3595,-2.3595,-2.3595,-2.3595,-2.3595,-2.3595,-2.3595,-2.3595,-2.3595,-2.3595,-2.3666,-2.3736,-2.4024,-2.4296,-2.4689,-2.5166,-2.5689,-2.6085,-2.633,-2.6521,-2.6674,-2.6708,-2.6708,-2.6708,-2.6708,-2.6945,-0.939,-1.0238,-1.0491,-1.0618,-1.0618,-1.0618,-1.0618,-1.0618,-1.0618,-1.0618,-1.0618,-1.1226,-1.1896,-1.2634,-1.3114,-1.3837,-1.4442,-1.4746,-1.4932,-1.5108,-1.5235,-1.5352,-1.542,-1.542,-1.542,-1.542,-1.542,-1.542,-1.542,-1.542,-1.542,-1.542,-1.5526,-1.6244,-1.7567,-1.898,-1.9798,-1.9798,-1.9798,-1.9798,-1.9798,-1.9798,-1.9798,-1.9798,-1.9798,-1.9798,-1.9798,-1.9798,-1.9798,-1.9798,-1.9798,-1.9798,-1.9901,-2.0042,-2.0346,-2.0881,-2.1534,-2.2193,-2.268,-2.3201,-2.3551,-2.3595,-2.3595,-2.3595,-2.3595,-2.3595,-2.3595,-2.3595,-2.3595,-2.3595,-2.3595,-2.3595,-2.3595,-2.3595,-2.3595,-2.3595,-2.3595,-2.3595,-2.3595,-2.3595,-2.3595,-2.3595,-2.3595,-2.3595,-2.3595,-2.3595,-2.3595,-2.3595,-2.3595,-2.3595,-2.3595,-2.3595,-2.3595,-2.3595,-2.3595,-2.3638,-2.3638,-2.3595,-2.3623,-2.3806,-2.393,-2.4281,-2.476,-2.5265,-2.5726,-2.6175,-2.6418,-2.6538,-2.6607,-2.6708,-2.6708,-2.6708,-2.6708,-2.6708,-2.6708,-0.8554,-0.9402,-1.0238,-1.0561,-1.0561,-1.0618,-1.0618,-1.0618,-1.0618,-1.0618,-1.0618,-1.0807,-1.1226,-1.1903,-1.232,-1.287,-1.3485,-1.4034,-1.4332,-1.451,-1.5108,-1.5352,-1.542,-1.542,-1.542,-1.542,-1.542,-1.542,-1.542,-1.542,-1.542,-1.5468,-1.5642,-1.6244,-1.7633,-1.9044,-1.9747,-1.9798,-1.9798,-1.9798,-1.9798,-1.9798,-1.9798,-1.9798,-1.9798,-1.9798,-1.9798,-1.9798,-1.985,-2.0003,-1.9862,-1.9862,-2.0003,-2.0308,-2.056,-2.0696,-2.1785,-2.2452,-2.2754,-2.329,-2.3551,-2.3595,-2.3595,-2.3595,-2.3595,-2.3595,-2.3595,-2.3595,-2.3595,-2.3595,-2.3595,-2.3595,-2.3595,-2.3595,-2.3595,-2.3595,-2.3595,-2.3595,-2.3595,-2.3595,-2.3595,-2.3595,-2.3595,-2.3595,-2.3595,-2.3595,-2.3595,-2.3595,-2.3595,-2.3595,-2.3595,-2.3595,-2.3595,-2.3764,-2.3764,-2.3709,-2.3681,-2.3638,-2.3794,-2.4127,-2.4358,-2.4649,-2.5173,-2.5815,-2.612,-2.6367,-2.6556,-2.6708,-2.6708,-2.6708,-2.6708,-2.6708,-2.6708,-2.6708,-2.6708,-0.7962,-0.9332,-0.9594,-1.0047,-1.0561,-1.0618,-1.0618,-1.0618,-1.0618,-1.0618,-1.0744,-1.1108,-1.1469,-1.1896,-1.2266,-1.2634,-1.307,-1.3786,-1.4213,-1.4323,-1.505,-1.5294,-1.542,-1.542,-1.542,-1.542,-1.542,-1.542,-1.542,-1.542,-1.542,-1.5468,-1.5864,-1.6641,-1.7578,-1.8608,-1.9202,-1.9695,-1.9798,-1.9798,-1.9798,-1.9798,-1.9798,-1.9798,-1.9798,-1.9798,-1.9798,-1.9798,-1.9952,-2.0156,-2.0055,-1.9952,-2.0156,-2.0459,-2.0156,-2.0295,-2.1113,-2.1846,-2.2543,-2.3246,-2.3551,-2.3595,-2.3595,-2.3595,-2.3595,-2.3595,-2.3595,-2.3595,-2.3595,-2.3595,-2.3595,-2.3595,-2.3595,-2.3595,-2.3595,-2.3595,-2.3595,-2.3595,-2.3595,-2.3595,-2.3595,-2.3595,-2.3595,-2.3595,-2.3595,-2.3595,-2.3595,-2.3595,-2.3595,-2.3595,-2.3595,-2.3595,-2.3623,-2.3861,-2.3971,-2.3975,-2.4158,-2.4266,-2.4511,-2.4816,-2.5012,-2.5073,-2.547,-2.6049,-2.6297,-2.6521,-2.6624,-2.6708,-2.6708,-2.6708,-2.6708,-2.6708,-2.6708,-2.6708,-2.6708,-0.7567,-0.8812,-0.9204,-0.9786,-1.0555,-1.0618,-1.0618,-1.0618,-1.0618,-1.0618,-1.0681,-1.117,-1.1351,-1.1538,-1.1903,-1.2451,-1.2642,-1.3373,-1.4094,-1.4264,-1.505,-1.5352,-1.542,-1.542,-1.542,-1.542,-1.542,-1.542,-1.542,-1.542,-1.542,-1.5584,-1.6151,-1.681,-1.7633,-1.8394,-1.9097,-1.9579,-1.9798,-1.9798,-1.9798,-1.9798,-1.9798,-1.9798,-1.9798,-1.9798,-1.9798,-1.985,-2.0003,-2.0207,-2.0207,-2.0003,-2.0207,-2.0105,-1.9798,-2.0003,-2.0497,-2.1417,-2.2498,-2.2965,-2.329,-2.3551,-2.3595,-2.3595,-2.3595,-2.3595,-2.3595,-2.3595,-2.3595,-2.3595,-2.3595,-2.3595,-2.3595,-2.3595,-2.3595,-2.3595,-2.3595,-2.3595,-2.3595,-2.3595,-2.3595,-2.3595,-2.3595,-2.3595,-2.3595,-2.3595,-2.3595,-2.3595,-2.3595,-2.3595,-2.3595,-2.3595,-2.3666,-2.3918,-2.4112,-2.4251,-2.4511,-2.4871,-2.5105,-2.5335,-2.5335,-2.5357,-2.5799,-2.6191,-2.6453,-2.6624,-2.6657,-2.6708,-2.6708,-2.6708,-2.6708,-2.6708,-2.6708,-2.6708,-2.6708,-0.7242,-0.8096,-0.8947,-0.9786,-1.0491,-1.0618,-1.0618,-1.0618,-1.0618,-1.0618,-1.0618,-1.0618,-1.0744,-1.0681,-1.0688,-1.1115,-1.1903,-1.2704,-1.3425,-1.4204,-1.4991,-1.5235,-1.542,-1.542,-1.542,-1.542,-1.542,-1.542,-1.542,-1.542,-1.542,-1.5584,-1.6151,-1.6866,-1.7578,-1.8328,-1.9044,-1.9579,-1.9798,-1.9798,-1.9798,-1.9798,-1.9798,-1.9798,-1.9798,-1.9798,-1.9798,-1.985,-1.9901,-1.9952,-1.985,-1.985,-1.985,-1.9798,-1.9798,-2.0003,-2.0446,-2.1417,-2.2189,-2.2452,-2.2965,-2.3275,-2.3465,-2.3551,-2.3595,-2.3595,-2.3595,-2.3595,-2.3595,-2.3595,-2.3595,-2.3595,-2.3595,-2.3595,-2.3595,-2.3595,-2.3595,-2.3595,-2.3595,-2.3595,-2.3595,-2.3595,-2.3595,-2.3595,-2.3595,-2.3595,-2.3595,-2.3595,-2.3595,-2.3595,-2.3595,-2.3638,-2.3752,-2.3975,-2.421,-2.4625,-2.5089,-2.547,-2.5486,-2.5635,-2.5635,-2.5726,-2.6139,-2.6436,-2.659,-2.6708,-2.6708,-2.6708,-2.6708,-2.6708,-2.6708,-2.6708,-2.6708,-2.6708,-2.6708,-0.7177,-0.8091,-0.8947,-0.9786,-1.0555,-1.0618,-1.0618,-1.0618,-1.0618,-1.0618,-1.0618,-1.0618,-1.0618,-1.0618,-1.0618,-1.0807,-1.1421,-1.2212,-1.294,-1.3786,-1.4815,-1.5235,-1.542,-1.542,-1.542,-1.542,-1.542,-1.542,-1.542,-1.542,-1.542,-1.5526,-1.6208,-1.6922,-1.7622,-1.8328,-1.9097,-1.9592,-1.9798,-1.9798,-1.9798,-1.9798,-1.9798,-1.9798,-1.9798,-1.9798,-1.9798,-1.9798,-1.9952,-2.0346,-2.0003,-1.9952,-2.051,-2.0105,-1.9798,-1.9901,-2.0396,-2.1042,-2.1369,-2.1771,-2.2331,-2.2905,-2.3054,-2.3275,-2.3421,-2.3595,-2.3595,-2.3595,-2.3595,-2.3595,-2.3595,-2.3595,-2.3595,-2.3595,-2.3595,-2.3595,-2.3595,-2.3595,-2.3595,-2.3595,-2.3595,-2.3595,-2.3595,-2.3595,-2.3595,-2.3595,-2.3595,-2.3595,-2.3595,-2.3595,-2.3595,-2.3638,-2.3837,-2.4059,-2.4737,-2.5223,-2.566,-2.6052,-2.6016,-2.6016,-2.6123,-2.628,-2.6505,-2.6624,-2.6691,-2.6708,-2.6708,-2.6708,-2.6708,-2.6708,-2.6708,-2.6708,-2.6708,-2.6708,-2.6708,-0.6924,-0.8027,-0.8549,-0.946,-1.0491,-1.0618,-1.0618,-1.0618,-1.0618,-1.0618,-1.0618,-1.0618,-1.0618,-1.0618,-1.0624,-1.0807,-1.1288,-1.2389,-1.3183,-1.3914,-1.4756,-1.5177,-1.542,-1.542,-1.542,-1.542,-1.542,-1.542,-1.542,-1.542,-1.542,-1.5526,-1.6312,-1.709,-1.7797,-1.8608,-1.9307,-1.9631,-1.9798,-1.9798,-1.9798,-1.9798,-1.9798,-1.9798,-1.9798,-1.9798,-1.9798,-1.9798,-2.0055,-2.0359,-1.9901,-1.9952,-2.0359,-2.0003,-1.9798,-1.985,-2.0105,-2.0733,-2.1245,-2.1582,-2.2193,-2.277,-2.3009,-2.329,-2.3421,-2.3595,-2.3595,-2.3595,-2.3595,-2.3595,-2.3595,-2.3595,-2.3595,-2.3595,-2.3595,-2.3595,-2.3595,-2.3595,-2.3595,-2.3595,-2.3595,-2.3595,-2.3595,-2.3595,-2.3595,-2.3595,-2.3595,-2.3595,-2.3595,-2.3595,-2.3595,-2.3595,-2.3864,-2.4168,-2.4893,-2.5538,-2.5806,-2.6123,-2.6401,-2.6436,-2.6556,-2.659,-2.6624,-2.6657,-2.6708,-2.6708,-2.6708,-2.6708,-2.6708,-2.6708,-2.6708,-2.6708,-2.6708,-2.6708,-2.6708,-0.647,-0.8027,-0.8156,-0.9256,-1.0491,-1.0618,-1.0618,-1.0618,-1.0618,-1.0618,-1.0618,-1.0618,-1.0618,-1.0618,-1.0624,-1.0926,-1.1413,-1.2328,-1.2931,-1.4025,-1.4688,-1.5108,-1.5167,-1.5352,-1.542,-1.542,-1.542,-1.542,-1.542,-1.542,-1.542,-1.5526,-1.6641,-1.7357,-1.7743,-1.8768,-1.9411,-1.9747,-1.9798,-1.9798,-1.9798,-1.9798,-1.9798,-1.9798,-1.9798,-1.9798,-1.9798,-1.9798,-1.9798,-1.9798,-1.9798,-1.985,-1.985,-1.985,-1.9798,-1.9798,-1.9901,-2.0333,-2.0904,-2.1342,-2.21,-2.2801,-2.345,-2.3465,-2.3465,-2.3595,-2.3595,-2.3595,-2.3595,-2.3595,-2.3595,-2.3595,-2.3595,-2.3595,-2.3595,-2.3595,-2.3595,-2.3595,-2.3595,-2.3595,-2.3595,-2.3595,-2.3595,-2.3595,-2.3595,-2.3595,-2.3595,-2.3595,-2.3595,-2.3595,-2.3638,-2.3638,-2.3948,-2.4292,-2.4918,-2.5491,-2.573,-2.6068,-2.6436,-2.659,-2.6505,-2.659,-2.6708,-2.6708,-2.6708,-2.6708,-2.6708,-2.6708,-2.6708,-2.6708,-2.6708,-2.6708,-2.6708,-2.6708,-2.6708,-0.7051,-0.8156,-0.9448,-1.0231,-1.0561,-1.0618,-1.0618,-1.0618,-1.0618,-1.0618,-1.0618,-1.0618,-1.0618,-1.0618,-1.0618,-1.08,-1.1045,-1.1841,-1.2135,-1.2923,-1.3897,-1.4628,-1.4678,-1.5167,-1.5352,-1.542,-1.542,-1.542,-1.542,-1.542,-1.541,-1.5526,-1.6528,-1.7135,-1.7633,-1.8715,-1.9359,-1.9747,-1.9798,-1.9798,-1.9798,-1.9798,-1.9798,-1.9798,-1.9798,-1.9798,-1.9798,-1.9798,-1.9798,-1.9798,-1.9798,-1.9798,-1.9798,-1.9798,-1.9798,-1.9798,-1.9798,-2.0093,-2.0484,-2.0966,-2.1629,-2.2193,-2.2711,-2.3143,-2.3421,-2.3508,-2.3595,-2.3595,-2.3595,-2.3595,-2.3595,-2.3595,-2.3595,-2.3595,-2.3595,-2.3595,-2.3595,-2.3595,-2.3595,-2.3595,-2.3595,-2.3595,-2.3595,-2.3595,-2.3595,-2.3595,-2.3595,-2.3595,-2.3595,-2.3595,-2.3709,-2.3794,-2.4059,-2.4455,-2.4973,-2.5297,-2.5486,-2.5944,-2.6401,-2.647,-2.647,-2.659,-2.6708,-2.6708,-2.6708,-2.6708,-2.6708,-2.6708,-2.6708,-2.6708,-2.6708,-2.6708,-2.6708,-2.6708,-2.6708,-0.6413,-0.7361,-0.917,-0.9918,-1.0,-1.0375,-1.0618,-1.0618,-1.0618,-1.0618,-1.0618,-1.0618,-1.0618,-1.0618,-1.0618,-1.0618,-1.0744,-1.1476,-1.1834,-1.232,-1.3235,-1.4025,-1.451,-1.4991,-1.5294,-1.542,-1.542,-1.542,-1.542,-1.542,-1.541,-1.5575,-1.6301,-1.7135,-1.7688,-1.8543,-1.9254,-1.9798,-1.9798,-1.9798,-1.9798,-1.9798,-1.9798,-1.9798,-1.9798,-1.9798,-1.9798,-1.9798,-1.9798,-1.9798,-1.9798,-1.9798,-1.9798,-1.9798,-1.9798,-1.9798,-1.985,-1.9914,-2.0258,-2.0633,-2.1259,-2.1913,-2.2392,-2.3009,-2.3465,-2.3595,-2.3595,-2.3595,-2.3595,-2.3595,-2.3595,-2.3595,-2.3595,-2.3595,-2.3595,-2.3595,-2.3595,-2.3595,-2.3595,-2.3595,-2.3595,-2.3595,-2.3595,-2.3595,-2.3595,-2.3595,-2.3595,-2.3638,-2.3638,-2.3638,-2.3709,-2.3822,-2.4059,-2.4307,-2.4632,-2.4934,-2.5205,-2.5693,-2.628,-2.6436,-2.6505,-2.6624,-2.6708,-2.6708,-2.6708,-2.6708,-2.6708,-2.6708,-2.6708,-2.6708,-2.6708,-2.6708,-2.6708,-2.6708,-2.6708,-0.5464,-0.6426,-0.8177,-0.8949,-0.9108,-1.0056,-1.0488,-1.0501,-1.0541,-1.0618,-1.0618,-1.0618,-1.0618,-1.0618,-1.0618,-1.0618,-1.0744,-1.117,-1.1476,-1.2205,-1.3295,-1.3846,-1.4451,-1.4991,-1.5294,-1.542,-1.542,-1.542,-1.542,-1.542,-1.5468,-1.569,-1.6415,-1.7357,-1.7841,-1.8608,-1.9371,-1.9527,-1.9631,-1.9798,-1.9798,-1.9798,-1.9798,-1.9798,-1.9798,-1.9798,-1.9798,-1.9798,-1.9798,-1.9798,-1.9798,-1.9798,-1.9798,-1.9798,-1.9798,-1.9798,-1.9798,-2.0144,-2.0597,-2.0881,-2.1643,-2.2314,-2.2603,-2.3009,-2.3465,-2.3595,-2.3595,-2.3595,-2.3595,-2.3595,-2.3595,-2.3595,-2.3595,-2.3595,-2.3595,-2.3595,-2.3595,-2.3595,-2.3595,-2.3595,-2.3595,-2.3595,-2.3595,-2.3595,-2.3595,-2.3595,-2.3638,-2.3638,-2.3681,-2.3709,-2.3752,-2.3822,-2.3933,-2.4184,-2.4511,-2.4592,-2.4855,-2.5373,-2.5908,-2.6245,-2.6505,-2.6624,-2.6708,-2.6708,-2.6708,-2.6708,-2.6708,-2.6708,-2.6708,-2.6708,-2.6708,-2.6708,-2.6708,-2.6708,-2.6708,-0.5393,-0.6349,-0.8001,-0.8687,-0.8842,-0.9765,-1.0194,-1.0247,-1.0461,-1.0618,-1.0618,-1.0618,-1.0618,-1.0618,-1.0618,-1.0618,-1.0618,-1.0926,-1.1351,-1.195,-1.2879,-1.3545,-1.4264,-1.4932,-1.5294,-1.542,-1.542,-1.542,-1.542,-1.542,-1.5468,-1.5584,-1.5575,-1.6312,-1.6978,-1.7852,-1.8727,-1.9097,-1.9579,-1.9798,-1.9798,-1.9798,-1.9798,-1.9798,-1.9798,-1.9798,-1.9798,-1.9798,-1.9798,-1.9798,-1.9798,-1.9798,-1.9798,-1.9798,-1.9798,-1.9798,-1.9798,-2.0207,-2.0597,-2.1077,-2.1785,-2.2558,-2.2875,-2.3246,-2.3551,-2.3595,-2.3595,-2.3595,-2.3595,-2.3595,-2.3595,-2.3595,-2.3595,-2.3595,-2.3595,-2.3595,-2.3595,-2.3595,-2.3595,-2.3595,-2.3595,-2.3595,-2.3595,-2.3595,-2.3595,-2.3638,-2.3694,-2.3736,-2.4044,-2.3975,-2.3822,-2.3933,-2.396,-2.4374,-2.4831,-2.4389,-2.4576,-2.5105,-2.5615,-2.612,-2.6487,-2.6657,-2.6708,-2.6708,-2.6708,-2.6708,-2.6708,-2.6708,-2.6708,-2.6708,-2.6708,-2.6708,-2.6708,-2.6708,-2.6708]}]]